GFSNW_con_3kmhel_000.txt.gz
Helicity
40 24 25 72 125 147 59 109 74 109 126 10 68 -1 74 106 31 6 36 22 40 24 28 51 50 13 30 -12 -37 -21 -3 15 11 16 24 40 46 50 35 27 36 45 131 70
32 33 31 58 97 122 92 91 114 109 103 39 46 31 8 63 48 19 22 4 18 18 6 46 37 15 17 -6 -3 3 -13 14 20 13 32 40 32 58 92 95 112 38 79 68
6 23 35 36 71 99 75 97 31 80 92 111 56 71 75 53 40 41 40 21 17 4 10 40 22 24 20 9 16 47 11 12 17 48 82 73 60 89 83 132 124 66 181 114
-8 -17 14 17 61 66 76 88 12 84 29 68 58 59 47 41 31 17 18 11 11 6 15 24 41 34 39 43 53 53 49 19 25 7 15 33 40 52 57 109 78 126 95 85
-28 -18 1 20 49 75 54 86 64 66 -0 72 63 57 15 -12 -11 1 11 17 12 28 38 58 49 45 47 59 66 80 89 51 52 14 26 57 62 58 68 77 71 83 88 65
-36 -31 -17 -3 20 50 53 54 46 59 30 4 31 62 36 -24 -15 19 39 23 32 45 51 44 48 54 61 75 76 75 83 76 47 25 81 46 44 15 -45 1 -2 56 81 53
-16 -47 -45 -30 -38 32 45 54 70 69 42 36 42 34 39 26 28 36 40 32 32 41 29 31 42 53 74 105 112 146 159 152 133 92 45 22 142 83 64 111 71 66 62 100
-19 -7 -63 -66 -39 -44 29 39 59 80 85 97 76 68 68 58 59 59 49 56 78 60 48 19 14 13 26 72 126 97 112 124 131 115 85 76 56 110 109 95 63 131 153 190
38 28 17 -56 -78 -64 -78 -11 60 64 83 74 73 69 33 21 13 8 29 34 42 38 16 -2 -0 -2 27 55 51 117 87 79 155 205 162 164 167 138 190 162 112 147 186 209
57 45 30 31 17 -46 -15 -33 39 33 -5 46 62 65 41 50 54 52 47 45 54 71 29 44 48 32 103 70 80 88 134 167 203 156 268 220 104 112 161 192 174 171 224 280
62 60 47 34 31 36 76 50 -2 24 -6 14 41 62 81 78 74 59 59 46 58 79 40 -4 9 54 86 109 128 121 160 189 269 228 322 255 83 153 232 261 351 299 311 337
59 51 51 45 35 27 55 63 67 91 41 41 40 30 39 72 63 104 90 90 102 119 106 100 121 193 204 171 178 183 255 224 223 295 333 201 230 263 292 351 384 361 321 271
61 65 59 59 38 22 40 91 95 74 6 11 38 27 47 2 -28 54 144 126 124 160 186 187 184 260 253 303 253 220 229 140 301 222 264 193 167 277 298 382 295 275 259 256
55 68 60 42 42 38 38 57 58 76 44 -7 20 -9 -2 -15 12 -2 8 131 159 201 222 237 279 313 187 336 253 297 265 295 181 230 160 106 86 150 211 277 350 361 303 247
63 63 64 60 61 68 70 66 56 55 80 51 34 2 35 54 50 43 45 77 172 223 255 283 351 335 310 395 408 451 393 260 245 287 89 122 150 147 227 223 187 198 202 171
50 50 41 39 46 60 83 64 47 80 103 55 23 57 48 66 72 65 74 62 115 241 291 344 349 377 317 336 399 404 348 206 118 154 92 114 220 305 344 262 205 213 193 164
28 19 22 16 16 50 76 74 51 39 120 149 83 48 42 18 -54 -7 61 103 176 216 273 347 383 388 382 462 349 274 245 148 202 194 195 232 246 274 314 340 339 260 206 151
31 24 32 35 46 55 35 52 81 52 125 143 138 169 160 156 178 154 141 170 172 234 280 330 318 310 397 388 298 219 143 156 149 174 257 320 356 398 427 373 247 183 160 132
47 53 61 75 87 85 68 77 113 136 146 166 228 217 94 168 178 176 168 183 217 215 300 290 298 384 463 257 110 124 141 187 154 278 300 319 320 310 262 222 166 143 93 141
61 65 69 81 89 84 76 112 156 188 229 308 278 306 213 187 148 148 153 153 149 161 216 242 349 428 284 166 147 86 60 163 260 243 254 264 178 126 151 138 89 146 147 114
71 75 88 90 96 88 101 111 140 110 122 135 104 106 170 156 176 171 151 187 184 203 205 275 279 272 141 136 83 86 102 186 209 222 203 167 121 160 163 148 143 126 111 110
82 86 85 96 89 100 100 102 93 69 63 56 46 96 122 173 199 219 206 237 251 272 299 303 287 154 135 97 96 109 116 153 228 225 241 251 247 199 160 136 130 126 117 108
137 126 112 52 85 158 79 62 84 48 61 79 141 182 170 181 162 228 223 263 302 314 407 403 284 154 131 106 124 136 154 201 227 243 238 211 189 164 149 144 127 111 107 103
107 66 112 87 186 127 84 97 52 79 103 125 180 200 189 183 196 228 264 263 293 472 459 325 179 150 163 156 139 127 135 142 159 176 183 180 171 156 133 109 106 112 115 116
193 147 142 168 163 149 135 128 120 114 113 170 182 179 182 246 237 250 305 302 377 300 247 202 215 173 159 142 101 115 113 132 161 177 170 167 158 145 130 126 126 129 121 111
201 222 272 217 175 138 160 145 135 153 195 223 186 198 214 229 276 386 384 403 285 203 206 200 220 142 137 99 92 85 105 137 164 169 169 167 150 135 137 146 136 132 135 130
189 235 244 258 220 178 173 187 154 195 249 229 199 212 167 310 337 421 366 328 310 199 239 210 166 135 116 114 104 99 125 153 176 195 187 164 166 177 168 144 146 162 142 128

GFSNW_con_3kmhel_003.txt.gz
Helicity
40 1 26 66 124 176 63 70 39 46 140 74 144 116 60 -24 47 43 55 45 56 38 57 54 53 56 59 -1 21 28 43 67 48 44 33 68 67 28 7 9 22 48 157 25
18 9 24 45 105 133 114 47 96 83 150 89 100 96 25 7 -11 14 32 39 50 59 51 48 28 28 54 36 20 22 5 32 21 19 35 49 46 31 18 44 83 38 90 49
-0 20 -1 40 73 153 121 83 46 97 111 128 61 72 70 26 76 58 50 52 59 33 55 83 46 50 52 44 45 71 45 47 77 168 144 121 79 51 45 55 52 38 84 26
-21 -0 8 41 65 146 115 99 39 120 72 110 111 88 109 72 78 85 94 56 70 58 37 62 71 66 42 55 60 56 58 48 61 67 67 49 38 31 42 86 89 121 93 71
-20 -6 5 47 61 141 106 101 45 90 80 94 129 146 93 83 72 81 61 52 63 66 44 77 35 41 40 46 42 39 44 19 33 15 21 28 46 44 44 61 41 55 47 52
6 -26 -6 22 74 89 99 109 85 87 45 32 47 55 39 26 26 21 44 43 39 45 60 65 59 48 39 58 53 36 57 42 20 13 54 32 47 35 5 -21 -7 62 90 44
-12 3 -26 -18 24 79 62 88 105 89 22 15 27 24 17 5 12 34 36 60 35 45 49 33 21 20 24 33 32 48 64 58 82 74 49 38 62 17 85 106 67 58 63 37
44 -12 6 -31 -43 25 43 70 112 125 54 59 32 12 19 10 13 26 45 57 64 47 42 39 41 40 35 43 60 24 32 58 86 67 35 48 -4 58 32 84 84 87 86 81
44 40 2 15 -30 -43 17 41 50 94 88 76 115 70 44 54 49 65 63 50 30 27 41 28 20 30 44 35 47 41 32 23 89 122 98 67 188 205 154 157 89 170 156 172
56 61 44 17 8 -4 20 37 53 56 70 107 110 131 109 87 98 102 79 64 73 59 56 5 9 12 50 32 39 36 47 67 89 84 116 159 147 110 170 194 179 220 192 211
57 69 76 48 28 15 78 61 22 63 61 69 75 99 97 107 108 67 87 81 60 78 41 12 2 9 25 38 51 57 53 79 146 167 252 234 81 182 225 143 205 203 230 254
61 63 67 69 64 34 44 63 58 80 78 69 63 47 47 99 131 126 139 133 98 105 57 22 47 49 83 74 141 93 189 160 162 362 324 226 216 135 149 185 180 187 227 263
64 66 74 76 66 52 66 89 100 95 50 47 62 70 62 43 68 101 136 100 110 104 153 119 129 137 156 152 120 78 95 87 213 170 255 134 92 88 135 182 236 236 291 275
59 69 75 73 73 63 73 74 63 78 59 40 56 76 56 51 43 31 45 120 142 154 155 160 176 180 122 182 154 188 215 240 236 214 145 92 95 171 219 237 306 308 293 284
81 82 81 76 76 75 71 63 43 50 89 75 51 50 60 99 94 54 52 74 137 179 197 214 208 249 211 224 234 259 221 178 199 201 73 122 173 194 185 145 166 200 247 270
74 87 82 85 73 61 74 69 55 52 64 71 50 47 44 75 103 66 75 108 127 201 193 205 203 210 150 196 252 261 156 109 89 103 78 92 98 174 164 156 226 255 235 276
66 75 70 78 62 80 114 116 72 65 88 81 36 41 61 68 56 74 124 145 170 189 213 226 206 199 194 237 189 169 38 25 55 52 69 141 140 221 253 203 274 300 321 306
48 59 63 65 69 65 89 92 115 83 94 88 71 47 52 49 58 129 150 147 134 165 203 238 222 262 294 259 260 61 -2 58 85 88 173 269 296 281 285 315 293 287 248 230
70 76 70 74 87 94 71 67 84 99 125 118 92 82 27 52 103 139 121 142 117 192 239 223 188 252 326 190 110 59 60 102 110 242 276 230 177 181 209 252 204 177 155 151
85 107 99 100 97 86 60 79 115 143 159 177 131 136 165 123 106 129 124 134 135 174 155 140 225 314 200 104 79 24 18 87 131 193 188 174 198 191 172 145 122 137 136 103
134 135 131 97 79 80 106 114 134 140 152 111 102 116 177 126 141 161 152 174 157 159 177 215 276 292 100 50 53 74 76 90 113 133 170 192 196 207 187 145 127 136 122 104
113 115 119 116 116 117 123 114 109 69 86 68 66 83 112 145 163 177 156 182 168 211 247 270 292 186 208 178 140 122 131 126 175 153 186 213 211 175 158 157 141 121 108 109
173 157 133 114 141 200 104 68 121 122 69 76 88 150 120 155 164 193 168 168 249 301 309 358 284 234 154 136 136 130 108 109 144 140 164 174 188 179 169 165 147 128 118 119
212 221 236 189 265 202 162 156 154 102 83 60 59 116 136 161 182 220 223 229 263 336 369 298 185 162 159 151 133 119 56 91 99 113 154 167 161 154 148 139 133 127 120 118
203 194 241 243 226 202 155 137 99 98 71 89 107 139 139 182 200 199 262 286 325 287 193 181 130 148 166 166 140 76 74 110 101 128 142 148 153 152 144 141 134 128 120 113
233 242 371 210 174 102 128 101 79 94 107 131 117 105 112 148 220 297 329 439 351 278 216 130 129 149 163 158 98 72 129 111 114 127 146 166 176 171 159 160 139 123 120 122
233 284 221 203 195 144 109 92 126 148 161 115 106 107 101 241 249 389 403 415 269 240 152 114 156 179 173 121 119 139 116 101 119 155 192 203 215 209 186 156 141 145 120 125

GFSNW_con_3kmhel_006.txt.gz
Helicity
18 13 31 65 106 160 49 52 5 127 141 112 91 155 24 28 30 49 70 136 77 7 37 92 89 98 71 68 98 70 80 80 70 59 45 50 64 43 35 69 73 78 114 53
18 21 25 62 98 60 102 51 65 110 57 46 60 51 81 2 26 51 43 46 48 50 43 44 53 56 85 137 111 80 97 89 83 78 63 59 54 38 62 69 59 97 112 58
4 21 7 49 88 117 90 96 39 104 226 227 98 60 16 -15 68 53 82 76 45 59 51 31 20 51 86 107 63 75 90 110 145 156 99 108 76 58 71 81 82 127 132 88
-16 21 8 47 83 131 101 109 37 76 74 155 89 24 3 2 46 96 121 106 123 76 38 61 73 46 55 69 65 72 88 87 97 102 77 63 45 28 46 95 121 176 123 110
-31 12 22 40 79 132 81 123 93 97 92 117 95 46 75 46 61 99 105 73 108 79 96 82 56 60 84 64 69 61 79 49 54 29 25 49 47 37 67 85 72 115 82 6
5 12 26 38 65 77 77 116 144 102 92 64 87 83 65 56 63 67 81 107 47 68 101 122 131 124 98 69 62 44 50 70 67 33 106 78 10 26 68 65 55 108 110 86
13 31 30 49 57 81 70 92 133 147 65 60 56 44 57 51 57 24 55 110 75 56 84 80 50 56 69 75 68 86 80 88 85 53 68 65 16 11 59 62 73 100 92 84
20 36 46 50 73 82 59 78 105 140 77 57 62 55 51 52 48 63 66 71 74 83 66 62 56 59 53 61 89 75 58 87 69 53 57 50 17 6 83 92 95 90 143 53
21 48 52 61 63 87 69 67 86 91 98 93 113 59 56 51 58 57 54 61 58 63 61 43 31 26 44 27 31 51 48 29 60 115 76 19 27 129 193 142 81 143 188 192
32 40 60 64 61 75 89 71 92 81 78 75 113 114 108 116 104 80 75 65 63 73 65 58 48 49 72 47 40 49 69 56 82 64 95 36 8 124 120 117 121 169 168 175
37 43 51 68 60 50 85 74 94 99 90 56 71 107 102 105 115 83 82 94 81 89 59 60 46 35 60 58 65 59 63 53 98 85 99 -18 94 143 142 117 129 135 122 142
48 46 51 55 70 54 74 63 76 94 100 89 93 92 91 133 137 118 122 109 95 98 83 65 52 67 72 76 71 69 42 82 85 131 99 122 121 93 105 139 171 178 253 237
60 58 63 67 62 66 89 78 68 83 89 83 87 88 78 73 104 157 175 165 193 153 162 130 133 81 90 86 68 46 56 36 103 118 180 150 123 62 95 124 192 238 254 277
62 61 72 77 84 79 93 81 70 105 88 107 138 80 125 121 124 102 147 155 183 174 160 143 109 88 89 85 84 69 106 73 156 138 46 65 120 203 169 87 88 117 141 199
85 84 84 91 100 101 79 74 52 72 99 81 68 130 119 156 152 108 120 135 158 146 135 138 120 162 126 107 129 137 206 122 128 122 81 102 115 132 163 170 142 115 160 230
79 80 84 85 83 93 111 100 78 57 54 78 69 59 45 102 111 119 127 151 191 173 137 120 116 150 116 109 123 180 63 86 81 99 107 116 117 139 166 161 180 216 262 294
74 72 82 84 91 120 144 127 89 85 90 96 79 67 78 104 122 137 157 176 161 170 163 139 146 145 140 181 183 228 113 84 77 88 122 111 182 197 215 222 278 300 304 328
59 68 78 110 115 106 129 146 125 65 101 109 128 111 84 51 71 96 102 127 138 155 160 148 173 171 178 164 156 105 88 89 97 137 149 156 202 236 223 211 205 227 235 204
79 86 85 121 132 123 104 81 98 106 111 136 122 133 110 69 114 111 127 126 132 167 177 192 177 241 224 106 104 101 92 122 134 148 160 190 205 216 214 229 203 140 95 84
93 108 134 125 108 90 80 99 124 130 132 127 104 101 109 86 89 124 118 136 143 123 119 148 172 218 127 79 103 106 121 141 116 136 141 157 190 190 170 95 88 83 132 140
154 162 155 106 90 100 120 140 163 149 139 90 103 139 164 161 147 140 123 59 50 10 15 77 83 93 16 50 48 137 105 93 84 87 109 123 136 142 166 150 158 167 154 133
138 112 127 122 113 127 141 148 170 139 118 107 95 125 153 138 122 147 133 164 135 141 193 154 157 51 33 86 120 130 121 124 137 170 173 203 179 175 178 179 167 144 125 120
169 162 154 152 146 214 237 232 222 175 113 111 119 156 148 136 143 212 207 210 214 227 211 196 133 77 82 107 102 108 102 121 174 161 149 145 150 154 166 168 147 144 134 113
196 192 306 252 219 183 193 190 139 114 137 101 114 154 165 135 229 233 204 220 239 300 300 163 177 58 121 121 97 88 78 109 119 98 117 139 152 151 142 147 153 150 129 123
184 210 288 251 253 199 78 89 133 103 24 45 71 120 113 155 171 164 221 230 296 236 102 76 91 77 111 78 63 44 72 114 109 111 124 121 121 133 149 164 164 162 143 122
207 213 286 209 223 194 165 150 153 95 93 144 159 167 151 140 178 243 245 360 272 190 160 99 87 82 69 32 24 30 106 136 124 138 147 133 154 163 174 205 193 155 131 128
178 155 202 243 190 160 158 139 121 64 130 173 149 129 91 215 214 301 259 233 244 177 138 117 88 80 69 56 78 112 147 138 145 159 163 181 200 238 249 199 173 166 144 141

GFSNW_con_3kmhel_009.txt.gz
Helicity
-10 6 4 34 91 163 2 -29 -33 -9 61 20 55 76 12 78 108 167 132 103 114 186 194 169 84 86 89 94 79 74 91 66 122 63 61 47 37 11 33 58 72 70 57 64
6 4 11 31 78 86 49 22 4 65 -3 21 114 70 60 67 80 93 53 61 21 166 161 96 94 101 111 102 75 64 85 87 129 118 58 53 32 49 63 80 73 72 76 46
23 2 26 37 67 99 55 17 -9 72 147 65 15 79 42 50 106 125 112 82 41 64 99 94 88 118 99 123 74 86 94 84 66 63 49 59 61 54 70 91 83 85 99 102
14 4 44 47 75 101 65 53 17 10 88 146 95 51 42 42 70 103 119 102 70 62 27 99 86 115 142 152 127 107 112 90 80 74 68 70 58 48 64 83 122 125 123 80
-44 40 43 59 89 104 69 71 37 48 86 102 81 95 86 51 68 74 98 91 116 116 71 46 39 60 101 93 118 108 128 80 80 73 66 50 30 14 29 48 64 97 80 -12
-14 44 39 62 90 61 80 96 97 52 74 66 40 51 37 39 28 78 111 87 99 131 147 167 131 99 100 91 77 88 91 75 67 55 97 44 12 20 63 77 86 79 84 112
30 21 55 64 78 73 69 129 121 92 88 63 41 48 49 50 42 35 86 101 57 67 98 90 99 117 115 110 125 85 57 67 65 48 68 41 41 60 42 62 41 59 83 49
39 31 64 64 92 96 66 95 103 130 109 75 94 80 53 63 89 90 74 103 79 86 91 70 48 59 47 65 94 102 91 80 63 71 64 -2 39 79 76 76 56 45 49 64
37 51 64 74 86 115 75 89 93 101 109 109 99 103 78 66 62 71 63 84 92 86 83 56 24 8 23 30 48 76 66 79 79 74 55 33 28 43 28 24 46 141 187 139
40 48 75 87 86 94 92 94 101 90 125 135 133 107 86 91 104 84 70 70 81 84 63 63 55 44 45 46 45 55 88 82 68 81 69 34 41 16 48 104 112 156 100 78
39 46 58 83 88 101 95 81 117 79 95 114 106 126 113 127 108 88 66 102 64 75 83 72 53 64 57 79 59 41 67 82 63 91 78 38 93 159 113 119 122 138 165 163
46 48 54 62 78 79 104 97 106 100 95 87 89 89 108 112 93 101 124 93 96 78 96 103 100 77 89 77 72 86 75 85 75 75 56 98 190 98 84 105 113 119 135 149
52 47 56 68 70 57 98 103 102 101 110 118 115 114 115 83 109 110 103 125 125 147 133 122 117 96 90 82 59 84 54 23 81 97 83 88 96 52 1 -22 -20 -2 44 76
38 38 52 73 83 61 91 96 87 117 122 124 122 107 130 86 111 125 176 151 196 171 177 151 121 110 73 49 46 75 64 87 106 49 17 28 70 86 65 42 31 66 118 105
47 38 47 60 84 77 110 109 90 120 122 100 133 143 141 139 133 148 161 189 170 173 166 138 118 112 96 54 78 104 155 132 146 81 106 116 51 90 111 130 118 82 96 90
52 47 49 55 71 92 119 102 101 94 112 137 156 89 90 136 159 145 153 171 175 151 123 104 102 133 120 59 74 51 52 86 100 112 112 83 87 153 125 127 113 122 151 160
44 57 60 65 77 105 115 86 76 99 105 118 112 120 119 121 119 142 168 183 149 120 105 88 111 115 95 76 100 129 64 110 67 83 106 126 122 97 114 143 144 140 139 135
40 66 89 111 122 108 127 130 91 54 131 143 116 123 120 104 146 160 134 138 123 105 112 110 121 133 117 72 72 69 93 89 119 146 151 132 138 138 145 150 152 154 152 145
39 81 113 134 133 136 101 84 85 82 118 135 136 137 134 110 146 114 129 131 157 134 133 150 129 134 83 18 65 72 90 100 136 158 135 132 129 105 113 119 120 136 131 141
105 155 168 138 137 81 95 105 125 143 149 137 113 117 152 105 126 147 138 147 166 150 149 147 200 101 14 27 89 92 99 130 155 154 109 92 73 52 71 104 120 130 115 116
219 245 199 120 92 130 135 138 146 136 147 109 109 141 172 153 161 159 142 136 131 131 149 157 122 26 27 83 85 106 93 86 74 78 71 65 63 62 65 73 82 93 92 99
229 153 157 157 150 142 158 159 167 139 128 128 120 156 202 195 203 216 158 168 180 173 158 150 35 -11 19 58 73 73 89 88 76 64 64 68 52 57 71 78 75 99 108 120
247 247 217 163 154 207 206 202 204 208 131 104 132 183 158 155 177 203 174 167 146 174 133 96 -16 60 31 36 45 69 82 65 60 72 85 97 118 130 128 136 143 143 140 132
332 317 291 257 234 206 190 161 134 139 153 138 182 235 229 195 240 223 257 220 207 189 134 17 89 86 40 29 29 71 90 63 54 61 82 106 134 140 160 152 150 150 135 128
326 323 280 254 244 168 121 166 170 157 147 196 224 220 184 241 228 222 244 196 192 130 36 68 51 53 22 13 10 33 69 56 36 80 87 106 129 140 144 148 155 150 148 142
251 319 326 237 254 281 168 131 167 137 116 171 222 261 243 200 190 219 192 250 165 108 53 9 24 9 4 0 28 51 60 59 68 89 107 135 144 150 146 156 155 157 172 163
196 289 226 182 162 179 177 226 195 132 176 230 206 177 132 167 162 217 182 167 115 80 48 53 45 26 2 54 96 110 126 118 96 126 141 158 157 165 181 172 175 184 186 184

GFSNW_con_3kmhel_012.txt.gz
Helicity
8 27 -7 33 50 94 16 -29 -42 49 61 20 38 7 115 48 41 109 175 190 234 184 226 199 150 246 278 198 106 101 143 93 186 119 93 71 58 55 88 79 61 61 34 33
19 31 17 27 48 48 44 -0 -58 12 10 16 52 20 44 137 197 195 102 206 202 296 267 265 287 209 180 145 139 106 106 112 205 126 87 82 46 66 77 86 64 33 43 39
17 39 33 14 48 62 51 3 -36 -9 25 74 48 28 50 73 103 212 164 170 100 145 262 252 195 110 132 107 94 85 91 99 83 66 41 69 67 82 101 90 67 59 71 67
29 48 36 21 45 79 49 25 -20 -1 32 65 44 25 49 78 100 76 82 150 96 66 101 139 72 91 107 95 121 93 65 63 65 85 60 68 45 80 89 103 107 74 52 44
30 55 47 30 54 60 69 24 5 22 45 71 71 56 30 17 50 58 77 55 107 79 47 71 73 89 120 105 118 92 99 56 76 82 82 64 55 56 54 53 68 46 53 -1
38 64 58 36 57 48 68 59 26 15 59 43 48 48 26 -9 28 74 86 60 135 111 120 187 171 110 118 107 108 111 97 85 91 55 84 59 28 18 64 82 103 82 16 48
36 63 66 44 47 50 43 89 58 50 41 28 34 28 46 35 42 57 95 89 76 61 133 132 111 123 111 146 150 96 70 85 80 26 63 38 53 72 58 73 122 105 105 100
35 53 78 54 59 71 55 109 74 54 78 62 82 61 73 73 101 120 79 80 99 85 110 112 84 91 71 93 112 132 111 98 79 48 60 59 63 100 102 96 142 136 139 140
34 50 71 69 76 81 55 81 84 73 71 82 86 88 57 81 84 100 91 114 97 86 87 80 24 4 35 34 59 134 148 133 88 82 56 41 73 113 94 90 103 148 113 97
37 48 72 88 86 91 65 83 111 102 97 117 110 88 45 66 78 73 75 73 83 95 78 62 33 37 57 32 33 56 112 121 82 77 51 68 56 67 41 95 89 125 101 71
38 44 61 94 99 106 84 79 118 92 127 153 133 118 102 106 97 85 71 109 89 87 92 80 56 69 61 81 69 65 87 109 87 113 85 58 88 93 101 107 109 83 66 56
40 43 53 72 96 104 122 87 99 120 104 102 124 138 136 142 127 117 132 100 98 82 121 100 95 92 87 86 79 90 95 88 76 73 68 83 143 100 92 84 68 41 34 10
58 47 58 59 68 92 101 90 111 105 106 126 124 164 161 136 143 117 127 104 90 118 107 107 115 108 92 92 79 108 88 59 90 100 96 129 88 80 55 4 -24 -55 -37 34
56 51 49 66 68 64 101 116 149 139 117 113 124 142 144 145 121 123 104 72 105 114 149 153 130 104 73 79 94 96 58 77 75 55 60 84 95 79 -8 -5 41 69 96 93
47 52 52 68 85 85 104 112 137 137 131 79 134 154 167 168 129 112 107 116 154 185 183 166 131 107 80 66 64 61 99 90 92 49 64 103 96 96 94 113 113 73 90 130
65 63 66 72 92 100 108 88 89 101 108 144 133 120 182 217 180 180 181 182 201 170 145 168 132 104 91 94 72 62 53 75 82 81 94 70 89 109 99 105 126 146 165 151
80 77 82 87 104 117 123 75 61 104 113 142 136 107 150 157 174 208 216 224 210 185 183 176 138 127 90 40 111 77 72 66 84 124 132 159 126 144 172 175 156 138 125 109
85 99 101 112 124 94 113 108 103 97 130 133 111 131 137 176 206 212 189 164 163 176 150 142 117 87 70 71 90 84 111 122 132 163 194 171 174 192 177 124 83 72 77 95
112 126 122 140 121 105 103 98 105 92 140 136 117 117 114 120 190 211 200 185 201 152 150 110 96 93 78 94 93 84 119 140 129 167 166 180 153 111 78 64 67 99 122 137
136 184 184 121 125 95 98 120 103 121 133 141 117 132 152 129 183 195 185 169 187 162 145 128 112 66 75 60 61 93 106 104 195 209 174 152 109 83 69 60 59 71 96 117
229 229 207 135 130 163 156 119 132 140 142 109 127 154 170 144 182 202 170 177 173 187 154 177 147 123 107 150 161 120 127 140 95 101 108 83 82 69 54 56 73 88 105 112
275 198 226 222 203 170 141 148 180 144 105 111 127 214 234 200 180 193 158 174 154 157 139 200 168 119 109 121 133 127 103 86 77 78 80 77 67 58 73 84 92 96 104 119
369 348 333 262 223 201 194 219 264 239 141 115 152 211 214 216 233 227 177 173 195 146 192 192 123 136 205 202 175 133 83 90 90 76 84 76 79 90 105 98 108 124 122 121
306 268 293 230 196 180 270 223 212 172 164 173 196 248 210 212 226 170 192 193 175 161 137 77 127 207 180 76 52 61 67 50 53 50 62 75 93 104 109 110 134 146 130 129
272 217 201 204 269 268 208 251 267 243 182 256 273 244 197 237 215 208 235 197 167 98 56 57 99 74 45 23 41 47 58 85 85 92 110 113 129 149 141 146 147 140 158 160
257 248 232 247 268 315 274 234 257 239 279 325 317 308 271 250 199 187 197 195 99 44 64 81 63 48 19 14 21 41 74 94 97 119 131 129 145 147 153 163 150 154 162 165
228 261 269 225 234 218 235 230 215 208 313 416 383 356 280 206 195 212 136 99 70 29 20 45 -0 10 27 25 56 75 89 107 122 149 137 136 144 178 200 179 182 169 173 184

GFSNW_con_3kmhel_015.txt.gz
Helicity
-25 28 13 28 24 53 42 20 -31 24 28 3 22 16 15 30 14 26 58 -16 120 87 -38 18 196 261 273 247 169 251 247 151 171 216 204 159 162 122 150 132 105 94 52 29
-32 24 21 26 25 31 21 18 -16 19 -5 -3 44 -6 5 -5 35 44 36 86 136 130 191 122 171 278 232 196 206 203 164 123 165 183 195 186 136 123 118 126 97 25 37 36
-32 15 35 20 25 20 19 22 -14 -4 -2 8 21 -20 20 80 98 83 141 154 198 215 163 158 165 214 245 183 157 95 96 114 86 141 98 126 116 94 105 112 59 47 64 63
-28 16 42 20 32 31 23 14 -3 -1 10 5 3 8 2 75 51 138 218 161 174 147 150 196 240 224 244 246 167 121 79 80 98 161 100 116 84 129 142 135 139 111 47 77
-6 14 38 26 41 26 34 8 8 16 20 40 15 26 9 24 28 31 65 37 159 148 186 261 222 169 183 138 108 96 108 81 93 119 129 85 73 77 106 130 104 90 84 68
7 10 29 39 46 33 31 21 18 21 42 17 6 13 -24 3 20 18 60 -0 50 78 116 186 88 65 122 95 96 112 98 78 93 74 91 89 65 49 84 103 99 90 82 81
17 5 34 42 49 38 28 19 25 19 23 17 6 24 56 55 28 37 56 100 73 75 83 166 218 209 165 180 222 154 91 107 102 50 94 61 62 104 93 127 183 197 214 209
21 11 33 43 52 42 38 44 39 14 16 24 55 73 77 59 100 117 87 72 110 97 132 138 113 120 126 128 158 154 137 116 109 79 96 79 76 80 126 122 197 230 191 147
32 22 32 47 55 61 53 62 54 29 16 41 52 63 57 75 80 87 80 136 144 102 107 81 25 5 26 41 66 116 114 109 83 51 48 23 46 180 204 141 124 173 167 150
42 36 35 53 59 78 57 82 82 39 26 68 79 65 51 53 69 68 82 93 90 90 78 73 50 37 72 24 34 74 149 143 104 113 72 78 75 114 149 116 71 130 100 62
46 48 42 60 66 79 75 80 108 79 41 93 101 84 68 77 68 57 57 89 85 95 83 62 42 30 59 72 56 51 74 99 84 124 89 43 102 143 112 88 98 94 64 30
46 49 44 61 84 81 94 93 99 114 97 81 117 110 116 109 95 78 116 74 97 77 109 88 82 64 81 85 55 98 84 98 95 89 89 79 97 76 82 71 63 45 41 14
46 51 45 51 75 89 97 114 116 106 103 142 132 159 162 134 155 120 121 121 94 123 116 110 101 100 87 92 86 107 102 110 116 117 91 91 97 119 85 62 37 11 9 31
53 50 50 53 62 85 100 106 129 121 97 87 107 132 148 164 148 152 125 100 129 116 152 150 118 109 81 87 98 107 109 119 113 119 121 131 112 89 63 21 28 49 85 95
55 51 52 60 64 81 101 122 152 158 137 77 86 126 169 179 138 150 153 139 145 167 171 159 130 89 89 84 96 94 118 113 132 74 68 102 76 62 49 54 56 77 89 133
51 59 69 71 67 77 81 96 135 180 165 124 86 120 168 193 178 221 228 198 201 193 163 141 130 135 136 99 40 50 72 81 64 73 87 97 102 126 118 130 146 162 174 151
71 76 83 97 103 122 112 72 73 173 138 145 108 94 132 157 168 187 204 203 183 171 175 190 181 173 168 107 102 47 49 64 69 79 89 105 96 123 166 177 178 164 139 127
103 103 114 119 126 90 136 129 98 138 134 153 105 111 121 207 200 198 188 196 216 205 183 217 198 175 129 50 38 78 115 123 122 96 140 141 157 162 161 156 143 131 99 109
125 118 112 162 136 128 105 99 101 118 136 109 116 110 92 137 201 240 239 237 219 182 171 153 136 152 120 79 79 65 72 102 95 148 161 191 193 169 152 141 126 94 86 89
153 215 230 170 163 107 119 147 131 158 159 145 117 138 121 115 171 211 221 206 210 206 184 136 103 89 66 49 67 91 70 88 129 126 165 188 178 129 110 89 89 78 63 79
309 259 225 156 182 153 165 123 125 117 120 104 144 176 173 163 180 205 198 177 178 180 150 159 129 77 74 106 101 95 98 127 128 187 192 141 113 91 78 72 60 66 69 93
302 222 246 247 230 229 128 111 149 112 90 87 146 211 228 204 205 194 161 183 163 152 123 165 139 104 104 147 169 189 206 204 181 155 104 69 62 66 85 96 104 110 126 136
385 361 326 244 216 191 169 224 233 177 129 126 192 298 232 221 233 206 160 172 184 136 171 159 131 137 175 148 149 207 183 167 139 71 51 56 61 83 104 105 127 141 147 150
338 369 393 280 195 153 242 202 170 178 169 199 293 334 243 243 247 152 163 179 163 178 193 155 161 166 174 200 200 171 121 70 62 66 70 61 75 84 101 115 137 151 148 158
266 298 330 289 280 277 207 219 256 266 209 292 334 341 194 254 203 177 182 157 153 126 138 146 160 208 215 207 171 121 94 72 90 117 114 100 87 103 105 124 145 153 164 179
205 243 269 233 252 261 232 210 241 261 259 306 316 283 251 225 195 172 164 190 155 170 146 104 134 203 196 144 79 51 87 100 100 103 112 119 123 132 142 156 159 166 189 192
220 209 208 179 166 166 183 194 228 211 248 373 343 324 274 201 224 247 209 295 249 151 101 128 132 150 116 90 78 79 93 90 95 120 130 144 163 181 199 175 172 207 213 212

GFSNW_con_3kmhel_018.txt.gz
Helicity
-2 -5 30 25 26 26 61 45 56 31 80 22 89 57 14 16 -8 -20 -26 -33 90 83 74 114 185 43 55 77 79 122 186 139 222 161 236 149 148 149 174 155 144 140 72 36
0 -3 16 29 22 43 48 49 57 40 41 22 29 19 24 -24 -25 -13 -2 39 83 102 92 148 39 13 62 94 106 209 201 185 203 186 182 246 210 216 222 189 151 94 83 67
11 1 8 31 18 41 51 57 32 47 52 -6 9 -11 41 33 -15 17 24 11 43 145 126 138 101 91 140 145 127 126 190 164 134 165 147 224 184 193 209 210 145 113 96 70
13 3 15 24 22 26 48 48 20 16 7 2 -10 8 -16 50 5 29 90 89 80 86 120 110 99 156 271 199 146 215 166 109 115 122 74 165 183 212 209 181 170 117 52 71
16 6 20 13 26 52 37 38 28 15 12 2 8 -4 -24 -3 84 73 22 9 152 117 109 69 85 173 208 178 149 117 137 121 135 122 138 116 116 126 154 196 204 172 135 101
16 9 17 7 28 48 34 40 40 17 15 1 5 -10 3 11 37 112 126 85 130 179 146 143 176 153 228 143 119 93 89 125 126 93 93 103 104 66 122 156 186 173 164 118
23 10 14 12 27 34 34 27 37 29 36 -4 -6 24 79 14 75 44 66 137 123 116 86 280 247 202 161 220 184 127 64 106 111 60 106 99 57 92 103 185 163 134 154 173
24 13 17 19 29 30 41 36 39 29 28 25 16 47 63 76 80 154 126 18 16 14 198 265 308 283 143 148 192 185 127 133 109 86 85 78 71 75 104 150 148 210 264 280
24 20 20 26 32 38 51 44 48 51 16 43 38 43 36 29 71 59 62 102 69 89 136 25 50 109 140 109 134 156 151 136 110 88 90 43 54 124 135 153 119 168 196 194
31 23 24 29 31 42 54 50 57 66 29 53 65 56 32 21 44 60 82 92 78 114 54 50 61 55 71 54 59 84 128 175 113 154 78 70 97 138 152 158 93 209 191 162
36 30 28 34 35 51 62 58 67 73 49 61 70 69 56 58 43 39 54 89 53 38 35 29 29 26 41 55 51 48 94 107 99 157 114 54 163 192 136 113 142 130 123 90
45 32 31 39 43 61 68 75 77 97 88 55 102 90 84 78 52 36 124 41 68 34 57 51 54 31 52 54 31 95 68 91 82 95 98 130 101 127 158 113 98 83 74 55
51 30 27 34 47 72 89 92 80 100 99 122 103 135 142 121 119 76 68 64 55 76 83 61 65 60 80 53 56 91 90 107 115 113 115 159 162 159 123 102 93 71 68 40
44 29 30 38 45 73 91 114 122 117 88 87 96 127 135 162 150 128 102 73 99 94 117 115 103 94 81 86 87 107 101 115 123 151 147 154 118 125 95 97 92 80 87 90
48 42 39 39 45 70 102 130 148 137 119 83 105 114 137 158 142 160 154 145 152 148 149 152 133 131 121 122 124 98 89 108 145 94 84 127 88 106 123 105 77 72 81 100
72 66 49 48 58 88 112 119 125 176 169 108 77 120 174 166 163 195 206 189 177 170 165 161 168 141 127 101 54 56 54 74 140 168 148 146 122 128 103 91 101 123 130 119
94 79 75 69 88 107 116 78 98 201 192 136 98 55 116 152 180 181 201 199 175 160 152 166 162 151 146 143 82 79 35 41 83 126 152 152 86 76 106 121 133 147 149 137
97 107 111 126 117 102 118 114 117 168 131 128 107 96 113 184 168 189 220 185 174 185 159 156 158 165 201 93 109 111 157 197 182 146 114 95 110 127 138 138 128 121 110 104
128 118 105 185 170 163 111 87 126 147 124 102 91 82 72 136 199 207 220 210 176 178 174 184 169 226 159 121 99 65 48 83 92 151 130 120 118 96 100 102 100 101 83 66
141 221 255 195 182 134 118 152 144 165 149 121 91 124 109 105 167 199 206 224 200 156 169 178 176 152 193 187 133 74 57 77 102 114 78 78 83 85 101 88 81 69 70 77
309 249 216 171 206 175 173 154 152 133 125 83 130 167 162 146 135 172 175 161 199 156 156 162 141 127 137 202 186 139 121 104 95 63 102 139 150 135 106 65 42 67 84 93
279 212 273 255 206 174 180 175 185 130 112 101 138 213 210 194 186 181 195 202 171 147 128 163 134 92 89 92 109 149 159 159 116 129 147 147 134 84 51 70 83 86 99 112
397 407 322 246 216 205 187 187 211 188 152 121 169 227 198 182 195 179 161 140 149 155 167 147 93 94 107 111 148 187 164 124 123 138 132 99 55 45 64 66 75 95 105 118
316 350 373 245 200 207 200 154 124 158 165 182 246 281 191 209 218 145 127 150 149 152 154 103 81 70 129 143 133 123 97 117 132 111 103 93 69 56 60 74 93 106 110 132
281 291 310 261 270 234 227 217 215 220 174 250 323 295 195 248 200 152 155 137 141 110 117 114 97 131 142 139 123 133 140 125 113 94 84 78 96 103 97 85 91 109 144 170
232 241 285 257 274 267 240 197 196 208 208 322 342 257 221 213 170 146 148 166 123 115 98 131 183 209 175 130 126 129 111 85 62 56 87 104 108 107 108 111 105 127 156 168
184 211 196 188 185 196 187 170 180 178 217 373 320 249 203 175 173 177 159 155 149 136 154 137 114 105 107 106 79 58 40 52 82 101 104 105 107 113 120 103 144 164 185 205

GFSNW_con_3kmhel_021.txt.gz
Helicity
27 23 19 38 42 66 63 62 78 68 146 108 222 232 208 106 124 173 136 -9 60 54 81 97 71 66 186 42 107 166 218 145 195 185 124 108 130 114 158 156 136 126 81 68
23 23 15 35 42 61 61 70 91 62 67 98 189 153 131 3 58 5 -34 6 10 69 120 76 88 97 25 47 18 118 238 236 247 189 187 144 104 121 161 120 121 101 102 71
21 21 24 36 45 65 65 72 81 84 85 89 12 55 90 20 -24 -33 -14 -5 69 146 45 32 60 105 84 22 22 97 139 128 99 155 131 177 205 174 162 155 146 132 142 86
18 18 29 33 50 60 66 53 50 48 43 50 107 -13 24 50 5 -1 1 18 6 130 72 159 157 137 136 102 53 95 148 138 108 107 80 127 191 185 204 214 182 152 114 134
17 24 25 31 51 78 69 40 65 47 22 13 11 2 15 -14 9 -3 33 24 24 70 60 157 81 179 149 122 88 30 102 49 94 89 109 105 137 154 187 216 241 183 158 114
16 24 24 31 59 81 58 36 41 31 15 -1 -2 -4 11 12 0 31 110 12 98 59 71 111 119 154 159 96 96 97 47 61 80 92 86 83 99 69 140 170 182 124 183 95
27 24 24 26 51 67 60 27 50 48 28 -4 11 22 29 12 23 66 120 143 142 134 199 236 193 200 138 125 177 137 113 104 112 87 116 58 42 79 90 168 127 181 171 143
36 28 26 21 41 55 65 36 43 47 38 26 31 33 100 93 88 62 99 144 166 183 245 265 208 192 131 164 168 64 37 34 85 95 116 55 49 43 85 142 101 124 162 215
40 33 27 19 35 55 71 40 47 46 48 26 65 55 87 102 99 116 139 153 163 163 208 178 171 101 100 96 97 91 94 106 87 83 77 80 40 72 86 95 84 124 199 243
40 38 25 28 29 52 69 47 46 52 49 41 47 41 70 41 51 50 34 10 54 110 89 159 177 155 105 133 107 122 106 119 130 128 95 44 58 66 91 124 32 203 209 199
37 42 26 26 25 47 75 54 39 57 52 78 59 53 41 59 44 38 45 92 53 52 36 43 50 39 60 83 83 70 119 119 96 142 133 24 136 126 103 85 174 178 187 164
42 39 29 25 25 44 65 63 51 63 80 76 87 70 73 71 68 37 116 33 72 32 43 41 41 41 54 39 20 81 73 93 91 113 94 93 153 167 158 131 163 144 135 102
55 41 31 30 33 43 55 60 74 94 100 119 125 118 100 93 105 83 55 61 35 51 58 37 42 32 59 32 43 86 88 103 112 122 122 133 153 213 182 160 127 107 106 99
57 37 32 36 41 49 66 65 82 96 95 103 129 124 115 135 121 92 78 52 78 73 66 52 28 23 27 36 48 73 80 110 112 131 137 173 161 173 168 188 174 161 137 100
56 48 44 46 43 63 103 86 79 93 107 70 122 120 138 145 114 115 110 116 112 91 93 84 70 72 67 76 101 85 72 76 87 55 51 130 91 166 166 168 119 85 89 86
69 61 52 52 65 77 126 86 101 121 149 98 75 118 158 169 160 177 167 149 147 137 117 104 105 116 107 86 80 103 96 79 91 76 158 206 255 247 184 149 108 90 85 77
81 67 58 73 95 120 138 109 87 168 150 118 94 73 112 150 183 172 189 177 166 155 144 151 134 152 171 138 120 83 91 105 107 109 187 242 187 150 143 127 112 120 119 118
86 84 93 114 115 108 128 98 111 145 160 161 96 94 103 157 148 158 204 169 179 192 159 156 151 161 178 135 135 185 180 191 196 156 190 152 170 158 134 113 99 89 93 103
129 126 120 185 162 148 114 77 116 126 129 114 100 84 67 127 170 181 196 187 189 180 184 170 148 186 151 121 142 154 183 176 174 238 254 199 154 111 89 81 74 75 85 89
145 236 269 212 192 149 125 161 145 148 129 95 96 119 119 111 146 153 152 150 156 128 143 149 167 170 210 202 160 159 115 124 181 217 146 120 112 66 57 48 61 86 93 85
329 301 243 244 236 194 161 152 157 134 137 103 119 132 155 142 141 159 145 125 142 107 119 155 121 123 176 253 287 261 159 94 105 108 65 49 66 60 70 69 67 61 56 69
315 260 274 281 231 163 168 185 194 146 142 110 168 210 187 183 181 161 156 150 132 97 110 119 94 89 135 173 227 264 205 171 157 90 78 104 106 79 75 70 56 35 52 75
437 376 306 236 218 205 172 199 253 210 116 142 198 248 222 198 187 179 140 120 112 142 115 97 65 55 54 78 133 209 186 159 140 122 148 120 104 85 72 57 41 60 78 92
356 379 343 225 209 249 219 207 202 205 143 159 223 254 169 147 172 116 133 140 122 127 111 79 73 33 54 73 83 141 131 104 120 126 126 112 100 76 57 57 57 79 89 96
299 295 317 281 255 226 290 262 218 224 147 165 258 268 155 182 145 123 114 99 113 80 66 71 83 96 101 104 106 101 98 94 99 91 78 57 53 59 75 79 96 110 116 112
242 228 223 248 270 253 191 193 243 229 147 227 277 193 145 145 138 133 129 149 121 93 39 45 117 142 129 119 104 82 71 71 69 55 53 67 81 98 110 139 131 110 105 113
221 227 229 156 225 224 202 173 180 184 192 296 238 171 125 123 117 135 123 124 92 69 59 69 107 126 125 102 81 64 51 43 45 54 71 102 125 133 130 125 115 118 129 152

GFSNW_con_3kmhel_024.txt.gz
Helicity
15 4 19 35 43 88 93 65 96 95 212 232 257 317 360 240 138 215 154 157 70 13 1 25 46 39 74 -24 56 138 157 135 187 207 161 113 72 71 75 127 85 126 169 94
21 14 19 37 59 89 95 70 112 93 187 127 210 261 226 163 102 138 157 100 20 4 21 24 50 68 91 12 30 187 188 193 147 137 108 147 112 124 55 91 97 37 72 55
25 9 15 38 41 48 93 86 105 157 139 94 152 203 194 205 58 56 55 0 0 -5 27 27 12 87 87 52 11 83 175 155 95 58 104 82 101 73 87 53 77 69 61 64
27 11 11 40 51 56 97 89 75 112 77 49 68 114 24 156 22 8 45 -2 12 -23 12 17 11 49 97 36 17 39 179 166 102 98 79 17 49 89 61 68 27 68 27 37
35 11 17 40 52 72 103 81 74 79 45 -21 33 76 80 34 34 -4 5 -15 -13 19 5 -9 -29 15 59 3 -4 -34 100 132 159 107 93 41 69 67 78 90 54 47 42 42
22 18 18 43 55 129 67 71 56 63 27 3 19 9 13 0 -9 -5 7 22 18 6 21 46 29 47 37 26 78 3 43 121 143 114 100 84 59 52 60 50 68 73 64 24
107 25 7 38 51 97 72 55 72 50 22 14 8 10 22 -39 14 -1 100 15 29 5 28 17 99 116 92 12 159 106 16 52 106 105 86 52 61 96 20 31 64 77 66 90
204 21 4 36 29 54 77 57 64 50 26 29 30 17 66 28 49 85 94 112 110 115 124 124 143 161 149 139 164 155 74 83 54 73 30 64 46 39 75 109 40 55 26 105
130 26 5 30 16 22 99 59 79 59 41 39 49 42 48 119 97 77 154 195 239 186 169 155 101 121 80 72 136 81 149 127 107 107 73 47 42 50 48 50 31 43 129 173
4 24 3 28 17 21 87 52 73 62 42 39 53 74 79 65 100 82 149 126 164 263 210 169 102 87 108 75 89 47 56 69 29 24 39 37 36 30 38 65 38 73 119 175
65 14 2 25 22 8 89 57 49 63 44 44 101 62 57 36 46 94 133 142 150 132 168 135 111 70 92 70 83 94 109 90 57 36 48 21 62 98 66 80 93 105 148 190
212 30 7 20 25 10 63 59 66 57 51 63 24 30 62 57 47 36 23 40 94 74 141 130 148 114 126 49 71 115 98 84 74 67 61 97 92 111 136 80 146 131 161 154
204 30 9 22 25 11 44 64 87 85 65 62 61 58 66 90 60 58 60 42 44 39 72 71 95 71 89 57 49 83 85 124 96 106 90 89 78 111 137 129 143 138 140 129
173 44 25 32 27 13 77 72 59 85 83 83 78 77 71 115 105 58 54 40 56 67 67 46 38 41 46 51 53 76 98 104 96 111 95 106 95 131 154 177 173 173 154 124
106 51 41 36 27 13 99 68 71 90 101 77 92 112 108 105 105 95 65 74 89 74 59 42 29 38 28 57 63 48 70 89 97 62 61 93 78 145 174 208 176 145 139 118
39 65 56 48 33 42 88 91 74 113 99 104 90 124 124 137 125 133 133 116 109 110 84 72 64 59 67 25 40 58 76 82 103 98 98 139 189 230 208 227 176 142 119 108
97 78 71 66 38 133 149 124 79 100 114 158 106 79 129 154 158 164 166 161 140 119 106 108 77 82 101 90 78 65 94 110 112 118 191 174 167 191 213 210 181 151 149 116
96 103 96 106 102 87 110 127 123 123 133 140 78 88 103 140 173 185 205 176 170 175 143 120 109 105 119 87 102 149 159 168 146 176 147 127 215 272 243 188 138 123 101 99
137 136 167 183 142 139 117 66 104 151 124 132 105 64 63 122 158 160 154 180 169 161 143 140 123 153 129 103 106 122 181 176 188 255 243 263 287 238 169 128 99 88 71 67
166 244 285 221 169 144 128 142 132 137 142 143 96 123 111 124 155 185 175 174 154 137 146 142 142 139 129 154 121 114 141 166 237 301 249 244 212 132 89 67 63 62 65 80
333 355 329 236 240 201 187 156 162 157 146 96 79 117 130 141 140 149 142 110 130 126 128 142 118 92 89 176 227 212 211 158 147 118 125 106 100 77 66 65 69 70 78 73
284 316 313 300 219 160 165 168 157 135 139 100 142 201 159 166 167 152 153 144 108 97 105 100 83 57 84 117 204 234 211 196 140 119 109 95 72 76 82 80 70 67 69 79
401 436 348 340 311 254 190 226 280 232 110 140 147 264 226 215 192 169 118 110 126 122 102 88 71 71 72 107 175 221 235 221 200 190 154 125 126 106 93 95 88 81 79 76
429 427 387 266 202 256 210 225 210 196 152 147 252 321 226 206 202 136 133 152 133 122 109 83 80 76 89 106 136 181 208 192 170 143 125 110 100 99 102 95 87 85 70 74
362 354 353 260 215 216 252 194 195 234 181 213 284 257 165 199 147 141 147 126 117 82 72 64 69 76 86 96 122 155 174 134 104 94 87 79 82 83 92 97 97 103 110 96
228 252 219 235 243 212 188 238 213 179 148 224 254 219 185 184 179 172 160 154 105 82 52 60 85 107 117 115 105 107 93 70 67 62 66 76 86 91 106 119 117 111 99 101
200 224 218 217 305 227 190 171 202 229 209 299 254 224 180 118 127 136 134 131 122 101 86 86 72 97 113 114 110 94 82 80 77 72 75 82 95 114 121 120 126 128 137 148

GFSNW_con_3kmhel_027.txt.gz
Helicity
315 68 21 4 20 59 179 119 86 135 239 220 284 277 307 340 268 149 113 131 170 192 27 6 11 54 70 -23 18 79 68 39 134 178 291 190 115 87 104 115 96 222 250 115
282 82 42 5 44 159 166 114 105 123 160 220 245 214 218 345 224 192 133 125 128 5 20 14 19 45 45 29 20 71 45 127 105 154 178 216 125 80 50 108 136 95 123 79
318 251 52 12 63 95 144 108 72 143 191 171 117 110 143 283 256 173 96 128 37 4 3 22 34 71 13 7 24 73 162 227 140 160 53 86 83 83 81 55 76 67 50 86
375 284 44 22 50 84 120 127 79 115 92 96 48 77 148 165 108 91 110 43 14 53 8 31 30 64 41 29 37 28 139 103 115 206 151 35 28 34 68 68 12 59 50 26
421 477 43 8 38 96 128 99 116 97 98 59 7 43 74 183 165 22 83 4 15 -2 23 13 30 50 47 54 52 37 98 149 73 77 102 74 15 -1 9 10 28 17 41 59
501 368 30 -12 48 159 117 142 103 101 46 -3 -4 25 71 21 41 32 60 35 -11 69 58 23 37 13 79 -2 -11 -18 9 123 120 65 41 64 46 37 32 23 -16 12 33 3
321 489 171 24 51 96 112 94 66 75 38 4 12 20 13 11 -33 4 17 25 51 36 37 78 16 34 90 94 6 33 101 32 108 150 60 20 69 101 -9 37 14 27 20 21
196 432 300 35 40 51 94 80 77 67 26 13 14 14 -14 27 47 -10 53 107 152 44 3 68 134 93 94 120 146 26 49 50 85 104 60 114 72 37 68 75 36 29 41 40
96 335 280 42 41 49 106 56 100 86 47 26 42 20 -4 37 31 91 54 148 157 108 45 179 118 78 63 68 100 180 96 65 31 56 72 55 61 29 49 46 51 21 32 69
235 472 58 42 33 28 90 34 108 90 46 15 19 23 50 54 53 70 63 142 155 146 107 59 119 95 100 41 67 123 187 107 3 37 47 36 2 4 38 67 62 31 53 102
259 339 284 49 15 31 86 49 69 114 46 19 33 57 70 47 76 75 78 160 142 156 104 93 86 53 58 51 71 111 151 188 153 105 52 17 37 57 45 48 39 16 52 94
267 248 284 46 14 30 67 55 75 57 52 51 34 58 36 30 59 92 160 155 170 167 150 145 148 68 96 62 61 134 76 105 105 79 54 55 33 88 87 56 54 56 95 154
251 249 215 44 18 33 53 71 106 99 40 17 37 40 23 33 15 6 120 138 62 118 182 169 148 105 105 100 64 92 98 131 100 91 44 41 48 93 79 80 91 105 135 143
176 208 191 50 28 37 58 81 71 109 57 57 38 45 47 61 40 2 18 15 8 63 94 118 160 232 110 98 84 60 90 65 71 91 55 62 50 66 90 134 149 191 174 147
193 188 151 42 41 55 48 88 53 81 98 54 40 61 69 69 36 26 8 12 41 56 36 18 50 50 55 82 85 31 65 60 92 40 71 79 54 105 126 161 188 186 192 194
136 129 73 61 59 64 87 37 49 69 101 49 77 91 96 96 67 64 77 89 79 72 56 42 37 42 51 23 33 40 36 64 134 87 92 128 120 151 167 230 229 201 177 154
160 119 71 71 66 109 108 84 55 110 138 109 81 86 132 133 122 117 117 104 95 89 69 54 49 53 65 53 51 20 31 72 110 129 170 157 123 189 227 249 243 221 187 153
87 62 95 105 115 85 106 89 74 156 169 153 94 102 118 170 146 118 136 128 127 141 98 82 91 88 82 46 49 98 98 134 145 139 150 97 188 237 264 236 215 200 165 145
84 126 146 175 133 129 100 53 66 116 119 86 126 131 91 112 159 186 163 161 124 115 102 125 123 106 69 41 58 106 141 136 181 221 210 201 263 277 266 226 184 167 139 114
173 264 276 210 165 76 22 94 77 99 103 79 60 115 131 115 151 168 155 155 123 73 89 122 65 91 108 124 114 74 101 158 184 268 228 218 224 197 197 174 138 117 102 97
310 444 457 267 206 215 177 149 146 136 131 59 102 92 115 131 115 131 168 132 132 103 93 109 64 41 76 167 199 195 168 138 127 174 204 151 168 182 173 141 122 112 96 91
328 383 326 400 262 191 189 179 182 147 134 102 146 214 155 126 153 117 139 137 103 97 107 104 93 65 84 81 119 187 209 194 228 192 186 154 170 149 141 127 110 98 102 102
357 444 332 301 286 236 212 255 260 213 96 131 139 230 220 162 138 151 124 103 102 100 80 77 57 68 61 75 125 219 252 248 267 261 210 204 190 150 125 111 92 93 96 91
452 460 398 254 226 196 183 186 175 179 156 121 228 300 221 232 210 132 126 133 108 90 70 56 70 62 83 108 139 204 252 270 277 250 232 205 180 148 123 105 89 87 91 91
382 380 353 257 219 240 254 180 166 211 139 166 221 230 182 240 185 149 140 110 100 76 81 82 75 94 103 124 151 205 252 264 266 243 198 166 127 108 106 101 102 109 117 123
320 297 267 283 287 228 200 226 236 215 172 241 254 180 164 185 156 139 133 141 94 85 70 61 61 77 97 122 160 195 221 219 203 173 133 113 83 84 96 106 115 135 138 139
189 265 248 245 288 223 205 219 214 130 160 300 275 223 199 173 166 152 129 126 133 107 77 100 121 118 116 151 207 213 190 148 119 107 81 86 85 86 94 121 135 157 165 168

GFSNW_con_3kmhel_030.txt.gz
Helicity
76 88 325 149 18 80 144 138 135 72 272 241 277 285 276 131 191 217 179 165 131 173 175 79 -14 27 6 -64 70 45 3 9 -57 56 123 63 77 79 258 301 203 223 173 141
58 90 307 196 29 121 173 116 143 85 148 168 215 255 160 155 223 296 273 208 138 146 101 5 12 53 27 -39 76 -27 16 46 75 91 213 173 117 167 154 209 173 206 260 124
138 94 123 171 70 102 168 131 137 130 153 166 121 162 70 107 232 233 231 215 129 57 27 -37 32 62 1 13 28 -13 -11 -14 121 178 122 277 148 31 13 120 108 180 179 115
77 172 134 261 27 106 169 153 126 117 90 114 101 105 57 115 175 169 148 92 48 50 5 12 56 40 41 33 15 46 -5 28 40 97 64 78 96 79 78 46 39 66 124 77
23 234 359 405 38 112 143 121 152 103 58 30 101 20 43 97 161 272 156 102 61 -25 12 14 37 46 17 21 27 -23 58 60 102 39 51 80 27 35 64 39 36 36 73 81
-70 294 357 460 89 121 123 203 134 99 67 24 73 28 87 115 140 138 80 75 5 -12 11 28 34 18 23 10 27 41 52 95 106 78 36 54 73 33 33 30 16 40 36 -11
-81 181 281 371 60 81 119 150 112 55 30 37 3 -14 -2 83 67 41 74 41 25 -12 78 46 38 78 60 64 -1 37 40 37 136 100 71 16 45 68 49 40 52 22 20 37
-62 -45 271 282 257 25 122 103 89 57 -4 10 6 3 4 0 14 10 -13 21 -68 61 93 100 90 127 131 42 87 49 53 60 76 77 77 114 50 45 45 64 64 40 54 53
17 -17 190 341 95 1 129 106 136 55 20 -23 34 -6 -25 51 12 9 62 50 73 85 -1 26 33 86 101 62 94 120 103 56 81 144 90 53 67 71 55 79 60 103 41 124
25 -25 257 319 236 13 96 52 119 21 25 -6 9 -1 -19 1 20 48 99 134 125 155 51 109 103 91 117 14 46 94 116 119 27 39 98 91 49 24 39 68 41 63 109 186
74 -16 205 334 283 30 77 58 70 63 21 32 20 3 -9 38 38 55 63 117 92 92 67 106 77 20 25 40 52 111 140 115 98 86 14 19 48 41 37 23 43 45 104 210
95 52 241 274 260 45 80 65 56 109 76 40 37 27 42 73 29 67 83 72 107 96 101 73 98 85 71 51 30 60 83 110 96 102 37 21 53 55 54 35 28 68 129 170
145 94 290 256 220 37 71 86 62 113 57 13 12 10 35 22 23 41 85 110 152 135 179 118 93 66 101 90 55 99 71 58 85 83 49 52 57 59 56 72 98 139 144 166
157 118 200 182 184 31 86 71 52 85 36 43 47 44 28 28 20 52 49 87 150 155 153 145 145 122 120 113 88 94 109 123 71 91 77 72 53 58 119 216 207 191 167 153
185 142 193 156 158 28 83 79 54 84 88 53 38 46 38 23 14 8 9 21 48 92 142 142 119 126 142 135 101 59 63 58 112 84 60 60 49 94 184 202 199 186 205 210
188 169 190 116 124 49 116 52 34 54 70 75 60 64 57 58 27 26 46 35 14 9 81 33 28 44 64 89 87 62 82 110 103 63 124 108 150 197 176 213 200 206 232 202
178 176 152 154 60 121 118 90 72 83 105 82 44 55 88 109 95 86 59 43 25 24 10 15 13 28 33 8 34 10 70 95 115 161 214 187 152 135 187 223 242 249 255 235
246 167 112 72 119 100 56 80 48 128 151 125 53 50 83 141 107 97 94 70 57 67 40 32 48 45 39 2 17 64 112 116 131 151 122 119 221 295 285 282 279 298 265 226
185 109 117 182 132 137 77 47 90 140 113 103 101 83 45 110 143 139 117 119 92 81 67 71 79 69 39 21 33 88 138 128 178 237 275 254 278 255 243 255 258 266 206 179
140 165 216 213 159 90 81 140 112 130 132 78 58 158 149 114 110 128 139 137 102 54 76 99 71 74 93 90 81 63 149 193 235 277 234 239 200 221 240 245 236 213 172 144
296 213 295 221 196 223 131 135 142 150 123 67 98 82 112 95 96 97 111 93 123 79 55 59 6 -24 6 126 201 218 241 171 148 149 195 208 238 252 286 277 234 182 140 111
198 181 256 330 226 192 153 117 135 116 92 105 139 212 201 128 99 104 110 98 92 74 87 72 31 39 77 101 119 221 226 208 182 181 200 195 209 220 241 236 206 157 127 103
312 379 395 368 274 212 161 182 227 187 80 99 153 180 203 218 140 108 107 92 80 96 57 34 13 32 44 62 110 178 242 265 300 311 285 280 277 249 212 189 141 124 107 79
368 370 389 231 178 212 201 193 158 201 153 98 196 262 169 198 211 106 114 125 108 86 62 31 48 48 70 67 112 177 233 274 292 282 267 286 249 241 183 140 101 92 99 89
300 382 380 287 256 255 294 241 207 246 157 195 228 211 144 231 171 138 120 97 81 47 39 57 53 79 92 100 128 174 214 244 261 236 250 220 223 206 184 132 107 103 96 103
238 282 259 297 274 229 220 248 228 177 166 255 217 181 157 183 166 141 109 124 78 53 54 49 79 71 81 119 153 199 235 237 234 208 217 188 161 139 127 135 129 115 111 120
247 228 221 244 254 189 146 149 162 75 112 238 218 206 176 144 153 164 130 109 99 72 74 85 63 67 119 174 221 246 246 228 211 208 201 150 129 93 109 135 116 135 141 151

GFSNW_con_3kmhel_033.txt.gz
Helicity
56 27 111 267 363 107 155 155 148 166 281 289 270 222 210 141 154 177 163 121 132 145 136 99 121 82 17 -26 33 10 30 29 88 109 -18 20 17 4 136 214 270 233 226 236
58 -8 63 116 343 334 222 149 213 126 189 174 187 201 128 154 147 148 113 188 220 164 82 86 75 24 11 16 95 11 28 43 109 32 -1 15 68 151 218 330 282 363 215 201
68 -11 34 93 242 368 140 179 182 153 124 158 117 163 100 139 132 116 292 230 182 125 58 49 -11 4 17 22 94 11 -25 20 40 30 17 0 59 52 138 258 228 236 129 154
51 0 57 132 234 202 147 213 114 193 125 84 106 94 66 52 15 108 186 223 200 107 57 21 -21 3 60 39 58 129 -9 -2 86 201 135 105 -45 10 102 111 134 156 129 89
38 37 95 153 347 147 139 150 153 140 58 42 56 67 80 8 29 143 245 307 173 81 32 7 -2 57 24 77 62 75 -24 69 118 125 112 97 58 -34 44 49 114 88 107 165
30 66 99 203 382 262 122 172 202 87 60 59 51 58 47 15 20 121 216 95 44 62 2 -7 101 -1 14 20 36 100 -4 23 43 124 68 89 79 10 -14 25 34 20 46 120
29 68 79 189 354 244 138 179 141 85 50 57 30 20 -28 -5 121 104 16 98 35 57 13 27 104 37 49 47 63 88 19 -7 23 62 76 69 53 28 66 27 43 26 55 77
55 54 27 65 378 297 79 117 103 55 18 -4 -29 3 22 -38 15 91 37 27 -7 82 101 65 77 110 64 62 55 42 11 -17 43 39 42 64 60 50 41 69 63 37 49 55
67 63 48 125 364 372 115 125 97 67 63 -8 4 18 -5 -27 44 40 6 63 108 110 78 85 74 102 81 64 45 38 -4 24 16 33 24 19 44 49 38 63 66 89 80 126
80 99 4 151 370 346 183 77 117 66 41 13 -10 -1 -3 -32 -26 17 -14 88 43 35 36 64 73 103 94 101 64 79 79 87 33 12 55 59 21 60 55 55 42 48 36 72
99 105 -2 211 318 328 124 84 86 42 21 2 -11 -13 -35 -4 26 39 82 75 82 22 4 5 22 36 80 72 62 62 88 101 76 46 48 18 21 16 43 21 31 42 61 152
123 119 26 233 382 327 80 77 86 75 43 23 6 -7 3 -9 -3 64 65 138 115 58 47 61 90 47 82 59 14 64 42 128 116 90 13 5 20 56 39 20 20 13 54 132
149 104 69 192 318 265 75 84 87 69 18 -5 -1 -22 -13 45 51 27 69 57 84 53 45 72 63 43 51 47 33 68 54 85 77 89 29 17 47 55 60 48 38 73 102 125
137 120 91 170 301 283 108 82 64 75 17 12 1 35 3 10 30 15 22 74 102 86 100 72 61 61 74 63 45 49 56 89 71 67 51 72 53 44 71 128 135 158 133 109
121 161 140 181 239 226 104 79 54 66 35 17 22 30 17 4 8 29 30 -1 121 174 160 107 57 60 72 86 78 69 76 73 120 107 44 37 26 55 134 164 142 127 155 146
135 158 183 204 191 214 123 93 74 52 45 48 20 48 45 33 6 10 37 -12 50 134 112 86 80 93 59 14 38 9 31 66 82 75 58 76 98 215 188 186 160 153 168 137
148 150 196 163 147 143 134 89 52 56 84 52 44 21 70 72 54 38 31 36 0 54 131 115 83 59 50 92 78 80 49 69 109 107 170 148 142 104 174 227 229 259 256 203
162 203 189 147 177 98 96 103 32 108 92 75 39 36 52 94 63 59 50 22 27 34 22 1 7 -2 8 107 10 9 48 121 145 113 62 103 176 231 243 249 270 288 242 211
198 263 161 137 133 133 95 -6 73 118 103 72 81 49 29 68 105 83 76 70 40 56 37 57 40 37 1 -17 13 37 61 59 95 171 179 188 222 210 219 242 237 250 197 195
162 213 193 223 216 99 87 92 49 99 90 72 62 99 71 67 100 124 100 90 71 49 56 67 47 41 48 40 37 26 88 120 157 221 181 213 202 192 187 167 176 188 172 178
254 202 233 213 104 182 146 102 90 71 131 95 78 79 103 80 72 81 79 73 87 50 53 82 51 32 56 110 120 118 165 145 186 154 204 201 218 215 219 234 222 217 190 157
153 183 229 302 200 169 166 119 142 103 93 96 114 140 92 69 69 66 63 64 70 43 59 63 21 29 85 103 109 148 188 175 168 157 190 183 232 223 226 230 221 206 180 151
235 304 267 272 211 162 124 145 192 179 43 94 126 186 192 183 174 127 81 58 48 77 40 35 23 25 28 38 64 122 140 166 188 201 203 229 246 227 212 232 220 206 176 120
222 249 305 246 210 142 130 150 153 159 112 90 181 260 181 168 147 104 104 91 90 64 39 14 16 22 40 60 73 142 165 190 224 244 248 249 257 258 257 231 175 151 125 83
171 216 279 253 214 203 206 169 136 207 183 182 187 181 122 177 142 116 122 101 64 27 19 25 16 34 55 66 86 133 166 214 256 236 239 255 229 254 232 177 138 117 100 97
93 187 218 192 225 193 145 153 175 137 161 238 267 203 159 159 147 159 132 140 71 38 26 33 56 53 56 61 84 124 171 209 226 218 230 228 218 186 181 158 124 107 100 107
163 196 194 185 215 119 125 140 122 96 214 268 237 206 172 143 167 182 137 93 59 45 50 53 53 51 62 103 162 186 215 235 235 213 198 195 149 142 147 158 123 143 141 145

GFSNW_con_3kmhel_036.txt.gz
Helicity
61 48 42 -14 95 333 119 66 163 207 359 285 226 218 133 82 101 122 143 120 100 97 101 153 125 85 73 67 100 41 127 23 34 193 223 159 33 -15 -36 -69 25 204 128 40
53 35 22 38 63 312 122 158 201 161 309 267 237 136 108 78 93 120 94 54 58 57 128 93 79 95 31 11 21 -10 27 31 63 44 -11 2 -17 -3 23 -75 -43 61 24 97
44 16 15 37 105 147 203 216 253 264 211 217 227 138 74 67 40 83 119 109 80 117 144 83 51 23 48 1 32 21 30 6 88 119 36 42 -0 117 102 103 123 66 93 177
55 13 12 53 115 281 287 149 210 214 153 184 127 77 25 23 66 61 76 78 162 233 116 63 -4 -48 50 73 39 53 51 30 44 97 209 167 121 169 223 254 249 128 186 174
47 23 12 97 157 313 160 143 157 190 122 70 90 22 9 24 -4 65 109 121 199 183 92 48 6 34 23 13 9 38 61 114 66 369 166 67 70 147 125 404 242 257 179 176
44 29 8 86 113 363 142 152 178 156 90 82 72 49 66 11 1 -32 50 161 72 31 63 42 69 96 51 27 90 114 26 34 118 198 193 95 59 81 56 9 4 86 119 119
51 48 28 66 102 298 207 222 209 117 75 71 26 -24 -30 17 -9 28 24 103 157 10 112 156 23 93 98 49 128 110 49 62 30 93 211 91 92 59 45 47 41 46 67 68
29 75 66 124 128 307 209 181 170 86 34 34 18 5 -9 -16 -17 18 50 42 -0 71 127 80 70 48 26 38 10 19 30 -2 20 72 183 121 41 29 55 21 35 25 37 69
27 76 98 146 90 336 140 158 179 87 53 -1 10 27 -37 -23 -18 9 36 24 70 91 113 90 31 37 47 43 48 30 27 -6 -5 26 16 31 27 64 59 48 50 53 34 21
36 88 101 195 126 316 248 79 82 75 52 36 20 -17 -34 -11 -24 55 95 100 89 78 86 46 21 74 67 51 4 21 29 7 9 4 6 40 51 67 33 58 56 66 45 33
50 99 165 199 133 234 255 164 84 70 34 25 -33 -24 -19 -30 -5 54 81 162 99 67 50 3 29 38 50 50 51 48 54 49 33 38 37 25 42 44 46 34 44 52 40 61
66 98 176 175 184 215 341 76 79 87 26 18 -14 5 3 -8 -12 -2 75 48 96 42 16 16 26 30 46 82 81 84 32 38 44 25 2 3 44 59 31 13 29 26 23 62
78 131 146 152 203 323 296 62 105 74 28 -0 -4 9 7 15 11 -13 81 95 100 63 56 19 40 54 62 69 72 61 51 48 77 79 33 22 29 58 66 44 47 25 38 72
85 122 115 173 213 311 240 54 82 56 21 12 -4 14 10 -9 14 28 31 85 69 45 52 37 47 44 38 44 38 52 47 92 64 59 -26 27 32 37 65 74 82 104 93 83
118 101 134 179 258 279 205 72 45 46 38 28 6 16 5 -2 32 26 10 47 74 79 65 66 38 45 36 41 58 38 60 48 85 53 86 54 84 84 98 89 66 78 122 104
88 122 133 185 244 266 204 64 46 32 48 20 23 1 17 14 9 12 9 49 51 150 69 61 64 65 37 14 22 16 17 43 53 87 70 96 39 128 96 76 81 87 104 73
117 130 150 206 267 154 183 98 65 68 87 28 23 4 33 42 17 10 41 3 77 135 146 93 74 58 74 36 10 30 47 43 63 83 91 95 85 54 110 164 160 178 176 148
139 143 188 191 197 145 154 151 55 125 96 57 18 16 25 58 30 28 28 67 69 121 141 145 144 107 101 75 39 27 77 67 112 104 60 52 140 180 178 180 190 205 170 158
171 201 195 191 151 138 100 80 69 131 96 20 25 21 29 71 56 41 41 29 30 37 135 110 58 92 48 67 5 -7 -6 -2 45 100 108 120 172 167 164 195 190 212 167 163
115 126 239 200 153 48 57 71 43 81 110 81 32 60 24 36 76 87 69 66 40 25 17 31 41 31 11 19 28 14 35 51 86 141 107 134 154 154 147 142 147 163 156 174
170 250 231 164 67 138 111 81 61 94 80 80 72 58 69 64 59 57 80 56 60 30 31 52 27 3 61 69 67 76 74 92 94 98 151 136 191 186 193 200 206 222 206 185
207 192 251 208 221 173 120 106 110 79 85 64 92 97 62 74 87 47 42 30 36 20 44 48 33 55 70 90 113 142 145 163 153 131 185 197 222 214 217 209 213 210 197 186
150 224 236 226 191 130 127 144 183 144 46 65 103 133 115 85 75 63 50 47 30 45 29 23 33 25 34 62 109 141 181 200 202 216 235 256 255 229 220 242 213 204 208 171
182 179 241 197 146 115 101 84 129 133 101 125 156 209 157 165 142 79 67 63 65 47 35 16 15 18 33 43 57 91 116 135 173 205 233 262 261 267 245 201 184 206 178 135
79 187 206 178 162 151 164 117 107 202 141 152 179 186 128 158 133 105 103 84 49 14 9 16 17 39 54 66 91 125 143 164 205 222 267 279 288 290 271 231 205 183 150 129
58 92 186 144 183 157 121 99 113 115 165 254 266 155 129 124 101 122 98 112 38 26 25 28 50 52 60 68 83 120 155 187 229 255 238 259 268 235 239 220 199 151 115 113
67 43 50 83 136 169 113 85 99 122 168 212 169 160 137 137 144 141 102 77 55 53 45 46 59 58 47 54 88 122 168 211 230 243 270 273 257 242 218 220 161 162 160 161

GFSNW_con_3kmhel_039.txt.gz
Helicity
28 52 49 24 -12 133 245 21 37 39 465 407 349 197 237 163 133 120 94 95 123 103 74 83 90 116 96 83 171 131 121 -5 -72 31 65 71 19 -19 7 78 56 124 318 432
42 56 52 -3 -20 82 239 48 57 169 639 584 323 207 220 170 169 94 65 63 66 45 76 74 62 87 36 43 153 90 90 -23 -44 -31 -44 65 86 123 86 48 19 -27 -34 176
26 59 49 22 32 51 165 66 128 392 230 169 205 238 165 157 72 63 68 54 84 70 79 104 92 87 77 83 77 37 -29 -21 21 91 -9 1 -1 -28 102 138 105 216 415 362
19 63 48 18 3 52 81 21 134 218 135 111 134 179 94 74 60 45 -3 37 50 83 82 100 113 32 37 73 28 -7 -3 3 10 51 136 225 289 219 120 151 232 122 115 143
-12 72 55 22 -33 101 85 49 90 208 152 84 69 65 72 24 11 30 30 26 71 82 131 158 22 55 26 37 25 34 58 27 -45 260 347 283 188 166 220 268 265 145 183 51
-1 55 58 37 -32 62 71 186 134 160 58 166 117 65 64 28 29 25 8 11 37 130 130 99 5 61 61 52 32 35 5 9 30 358 303 142 43 198 108 54 125 133 95 169
7 49 68 62 27 76 109 244 235 134 89 53 69 53 33 38 2 7 5 -24 39 21 35 69 89 11 -0 22 39 10 8 49 33 363 228 128 44 76 58 44 429 179 270 169
14 47 69 97 100 109 109 221 175 167 77 49 25 -1 11 -17 -14 2 36 79 -0 96 78 97 100 53 37 14 5 -17 69 11 36 136 149 116 61 94 38 32 53 73 32 6
13 51 92 111 150 138 89 161 161 157 73 41 70 22 -1 -10 -25 -23 21 32 27 16 101 123 53 35 25 33 -5 27 19 -10 19 45 50 45 33 45 48 23 19 70 36 35
17 62 114 146 187 129 95 122 156 113 56 54 59 21 12 1 -21 -11 19 108 76 122 176 97 37 13 23 3 -2 -7 13 16 83 38 40 48 42 57 44 42 45 57 45 15
17 58 107 177 165 124 113 102 169 134 47 21 28 30 -8 16 -29 -3 58 87 94 102 88 38 45 12 3 4 18 13 57 45 33 48 43 30 33 54 54 38 35 59 62 55
17 61 104 168 143 139 156 117 60 61 47 22 32 17 11 -23 -3 6 45 126 118 44 43 35 -4 37 30 25 28 41 36 17 14 19 19 11 25 49 39 29 35 27 27 40
20 56 118 131 158 112 136 155 94 82 29 15 5 -20 -9 42 -3 20 35 66 139 49 58 38 8 8 16 54 64 56 34 26 34 33 30 27 29 52 77 71 46 32 23 43
25 81 110 105 144 159 158 130 75 60 23 22 -12 -3 -9 26 57 -8 6 101 130 104 57 23 -30 1 19 24 41 62 28 61 54 41 44 49 79 17 58 69 39 64 67 64
62 82 104 135 146 179 144 96 44 52 50 16 11 -14 17 8 -4 6 56 68 87 44 40 39 21 25 30 31 49 27 53 39 57 7 -0 35 57 38 43 59 55 51 70 95
79 96 123 143 135 188 138 77 42 34 13 23 33 -1 12 8 -3 52 39 41 64 88 79 28 49 47 37 19 21 43 46 69 68 45 37 108 80 122 83 94 74 70 92 92
72 126 153 152 163 170 147 117 67 51 55 33 21 13 12 6 -1 15 22 39 64 69 106 77 84 78 72 36 29 31 17 23 59 78 89 100 46 92 91 136 121 149 156 135
161 184 165 167 209 183 143 108 27 81 67 39 6 9 14 26 19 24 30 15 40 59 98 98 61 60 56 28 -14 23 16 61 98 114 100 73 116 159 149 128 159 178 157 144
158 158 149 157 156 148 118 75 89 71 67 13 21 -4 23 25 34 21 33 46 27 48 76 93 80 62 5 18 39 41 14 55 65 120 90 88 112 126 134 146 146 181 147 138
100 79 179 170 153 48 47 114 72 92 80 79 35 31 29 8 52 34 25 31 23 34 27 54 43 21 25 38 21 29 16 28 40 67 56 80 119 118 106 90 118 142 137 141
111 146 200 168 137 102 110 90 85 61 76 45 44 62 61 39 37 53 62 36 35 29 24 40 29 15 19 41 35 26 15 38 48 52 98 110 137 130 157 170 189 197 181 174
161 159 157 188 172 105 124 82 93 95 77 45 69 88 75 56 71 47 51 38 37 19 26 35 31 34 56 85 93 81 72 92 88 93 149 168 196 184 206 204 216 219 210 199
74 180 231 168 119 93 96 86 116 111 25 37 77 122 103 61 77 71 54 43 16 23 17 28 40 37 59 98 107 102 150 151 156 187 207 224 253 222 236 249 231 234 249 199
80 184 161 138 119 101 98 63 69 106 72 85 149 179 127 98 80 58 68 39 34 33 28 15 12 14 35 46 58 99 164 203 216 237 256 282 283 280 264 259 231 233 229 197
61 141 149 161 149 133 102 47 12 51 138 171 180 168 102 131 134 98 63 52 40 11 12 8 10 27 45 48 58 79 107 136 172 201 248 281 290 317 335 292 250 234 216 198
38 65 108 108 149 127 74 53 68 71 89 134 187 175 137 127 94 105 78 90 36 24 17 21 34 41 52 69 87 102 127 161 194 214 238 260 272 275 276 275 263 226 190 173
71 -48 -7 43 78 61 74 49 63 107 119 200 174 132 91 121 137 156 83 56 41 43 52 57 43 43 63 83 101 118 139 174 231 277 265 268 309 260 274 293 223 214 186 173

GFSNW_con_3kmhel_042.txt.gz
Helicity
10 16 46 35 28 -43 49 17 23 55 159 250 294 221 288 281 211 204 179 158 130 98 83 47 36 54 71 102 150 165 124 128 158 91 107 140 172 194 190 247 198 213 208 461
8 14 37 37 42 -13 85 85 10 33 129 289 257 260 317 294 243 177 148 110 84 94 98 70 33 52 50 125 165 141 142 150 42 10 45 74 45 84 187 252 250 153 153 454
-1 7 36 46 55 1 37 102 102 231 104 99 149 174 241 236 197 139 97 67 82 79 62 50 63 56 63 100 103 105 90 98 -0 28 -43 -9 -8 48 105 120 81 136 593 700
-6 5 43 45 69 8 64 68 42 73 256 136 146 205 161 200 141 127 94 30 54 70 54 45 63 71 99 99 45 113 153 29 16 43 67 13 50 179 244 259 277 211 250 355
-2 1 51 56 64 12 51 61 37 91 55 121 247 246 55 62 138 66 57 54 28 8 40 64 21 36 117 87 93 113 45 35 -10 86 95 225 397 355 246 179 213 219 315 424
3 2 47 71 80 5 70 108 97 126 49 140 111 90 56 54 82 42 43 4 9 -8 44 36 30 119 99 104 122 6 33 34 -6 197 227 253 149 92 92 94 97 135 213 313
1 6 43 69 109 63 5 206 220 152 68 93 58 20 61 38 47 47 34 -0 6 48 104 53 72 75 31 11 11 29 25 12 -6 123 233 92 180 110 81 108 155 298 244 100
2 9 45 88 120 100 5 149 138 119 71 47 75 61 32 32 16 19 31 21 75 124 60 73 58 76 60 5 -6 20 58 37 -3 53 149 82 50 81 98 149 110 166 145 94
-3 10 44 90 126 96 3 134 167 143 63 29 36 35 -10 26 8 1 29 106 118 66 59 86 85 85 59 23 4 33 4 -0 23 48 78 40 24 41 13 12 32 68 99 81
7 16 37 81 131 99 54 77 176 118 98 60 68 62 50 24 18 12 37 9 55 59 125 136 102 43 29 15 -12 5 20 6 81 61 44 82 55 75 55 -0 3 42 18 7
21 19 43 80 134 109 61 133 169 126 52 42 27 41 35 29 29 11 18 32 46 46 77 69 33 22 29 25 8 2 51 52 54 42 32 44 22 54 31 34 68 68 39 27
20 26 51 83 119 119 100 77 90 110 75 32 28 40 51 -13 46 19 60 44 113 39 87 53 27 28 27 10 20 37 22 20 10 10 7 8 13 22 44 42 64 52 40 38
16 39 70 103 93 133 99 94 90 62 54 21 21 10 18 66 59 78 -8 45 84 44 65 33 18 -0 14 21 32 23 25 2 8 14 10 -5 1 24 48 56 49 47 17 36
34 70 88 101 95 88 96 77 79 88 46 25 15 7 10 29 48 46 -2 -2 67 55 45 36 25 -5 -25 30 29 18 7 3 -1 1 11 8 27 39 67 76 42 43 38 35
49 83 103 105 129 84 59 55 48 46 65 37 17 -11 -22 -33 -2 -28 -2 38 75 53 34 34 21 -10 -10 -4 11 24 51 5 37 11 6 17 37 41 67 60 26 20 48 79
26 68 111 128 135 100 66 95 41 13 34 26 34 -5 -37 -7 -16 13 41 52 85 43 30 20 26 22 25 9 33 32 32 52 51 34 47 38 52 75 90 71 33 19 46 57
92 118 139 143 108 66 101 89 73 110 29 28 20 16 -4 -26 -14 18 43 22 46 68 71 49 54 35 54 -12 -14 8 18 18 36 85 104 52 66 77 111 112 96 118 121 108
142 221 187 127 83 79 94 70 51 46 52 35 17 14 -3 -32 -4 13 8 10 26 56 71 65 88 63 69 3 27 43 67 75 108 107 91 84 95 116 144 107 139 192 132 113
189 158 94 77 102 115 75 52 47 68 46 28 30 7 2 -10 11 12 27 18 2 27 29 52 48 47 37 11 19 29 46 49 70 80 66 75 103 123 128 135 134 173 134 137
59 65 135 120 87 70 55 81 52 73 60 58 18 14 2 -5 15 28 31 36 14 15 18 31 29 49 -0 16 17 28 12 20 45 127 84 65 89 82 86 70 102 118 117 129
163 157 158 113 113 77 133 83 63 45 33 9 31 55 29 33 31 37 33 22 18 12 10 18 25 45 8 34 37 21 4 18 6 11 17 55 100 106 120 132 159 178 172 173
169 145 221 117 88 68 80 83 76 23 32 29 53 52 60 35 47 28 28 41 31 21 18 18 28 40 33 41 57 75 49 32 32 34 51 107 151 145 168 178 200 208 209 208
74 86 149 113 115 74 38 23 71 56 -7 28 68 73 66 54 44 46 29 27 23 13 24 28 12 31 68 81 73 97 104 90 91 111 138 180 217 188 207 250 233 228 250 218
81 134 119 104 104 84 62 41 46 54 46 29 78 97 63 56 63 27 43 41 31 24 24 4 -2 6 29 53 105 128 143 152 138 165 206 264 294 301 292 283 225 253 265 221
97 140 105 109 117 93 70 11 5 8 48 56 62 77 63 74 82 70 45 67 45 13 13 1 -9 17 23 34 47 64 98 146 186 210 254 273 277 301 319 277 269 268 227 207
65 73 118 93 119 101 54 56 64 31 27 44 90 75 65 77 76 93 61 67 38 26 9 8 12 17 24 34 50 70 98 132 165 193 233 264 277 295 311 291 314 263 196 208
98 67 62 65 110 102 136 77 66 95 119 158 134 101 103 130 112 120 81 62 40 26 38 33 30 29 35 59 78 89 107 140 175 220 249 278 284 262 300 314 252 258 230 205

GFSNW_con_3kmhel_045.txt.gz
Helicity
19 -2 -18 31 41 51 35 6 17 17 88 101 161 133 186 264 215 190 155 153 156 124 122 104 65 61 53 44 104 93 112 122 115 122 121 134 156 129 170 270 272 320 270 434
1 -12 -11 33 40 72 -20 -3 40 67 108 134 114 84 171 239 234 174 143 110 120 106 100 81 54 47 43 80 96 91 128 117 114 57 79 90 50 119 140 192 182 326 417 464
-7 -7 -12 41 44 51 -10 9 58 172 131 181 163 84 157 209 207 157 173 123 106 108 108 83 53 52 43 38 68 90 138 170 148 121 38 5 37 115 151 214 277 361 742 730
-10 -1 -9 46 54 53 115 84 97 91 107 71 129 152 100 199 180 180 142 100 54 51 46 51 43 46 75 57 37 106 199 112 80 85 59 -1 60 95 187 287 413 313 374 221
-10 -11 -7 37 49 105 69 67 76 28 45 52 72 102 138 161 122 85 83 53 19 32 25 45 10 36 43 40 103 144 151 45 51 27 24 82 223 296 199 177 223 289 356 363
0 -1 -5 38 62 87 156 153 75 38 -16 108 87 60 37 44 65 46 37 46 43 12 10 32 35 43 70 66 72 122 106 44 3 24 63 170 91 43 76 61 103 76 132 174
-14 -7 9 47 89 101 54 71 92 67 34 97 128 131 116 40 38 52 49 56 34 36 88 92 39 6 -2 -5 0 73 43 34 3 42 107 150 88 98 81 80 108 223 252 277
-18 -10 13 37 69 103 5 63 115 47 43 32 33 63 45 39 19 21 39 29 38 67 86 22 22 24 24 25 -5 -26 8 18 10 54 111 125 87 127 95 48 51 115 189 213
-21 1 12 36 61 84 -6 134 142 85 43 56 62 59 30 33 16 18 32 36 71 168 107 35 28 26 24 43 31 -12 8 25 13 23 55 50 41 24 51 22 75 74 117 129
-15 21 33 41 61 87 21 141 136 94 51 36 33 35 38 25 22 22 24 58 32 158 126 118 96 71 50 40 27 42 41 6 55 79 57 74 52 14 0 18 -8 31 12 44
5 26 50 45 79 92 28 167 137 105 50 50 43 39 52 44 32 -4 42 31 52 98 95 141 127 55 49 28 40 34 69 45 74 65 55 58 12 17 0 -7 3 13 9 -16
12 25 65 79 93 116 82 73 125 140 45 35 18 12 40 29 -14 62 64 47 53 55 45 71 63 45 41 41 73 61 22 29 25 34 32 43 26 37 35 23 45 31 18 2
9 36 84 114 109 109 95 55 112 106 52 33 24 19 26 59 47 92 100 49 60 48 74 68 23 13 24 40 33 13 26 15 12 13 19 27 11 22 28 44 41 26 11 33
1 34 76 91 114 124 104 50 84 59 57 34 24 15 2 22 51 69 51 25 54 58 17 31 10 10 -7 23 39 17 8 -5 1 12 10 -4 9 16 20 44 40 38 31 27
13 29 62 96 117 125 111 117 69 64 58 25 15 -7 -4 -3 39 -7 -9 -41 47 20 22 14 37 15 -28 -22 -12 21 11 13 8 -20 19 27 8 18 36 47 36 40 40 67
24 51 80 112 139 125 121 110 40 -27 23 24 15 8 -15 -22 -19 -31 -3 21 42 37 26 23 6 -2 -5 -15 16 43 31 26 15 -4 19 43 38 32 41 58 61 50 78 42
60 96 98 142 172 50 110 118 77 135 51 31 7 18 0 -30 -20 -10 32 20 42 38 16 13 11 14 -9 -6 11 33 13 2 -9 33 67 66 57 31 63 77 118 93 100 83
110 141 162 184 114 51 39 66 68 43 48 29 6 9 -1 -25 -9 2 13 22 28 27 44 22 15 20 42 13 65 28 6 32 21 42 90 91 131 144 143 98 142 116 150 103
95 70 64 85 86 61 77 37 18 25 39 28 6 -1 -3 -17 -27 -8 8 9 4 18 24 30 41 77 7 12 31 23 23 30 45 97 91 116 112 110 105 113 88 182 147 91
49 66 134 108 72 72 -7 53 48 39 49 27 11 5 11 -17 -22 1 11 18 3 11 19 28 42 105 94 28 12 28 29 31 71 100 89 59 69 81 75 62 82 100 124 129
137 173 122 111 64 84 81 71 57 34 4 -2 28 34 17 8 0 2 13 8 6 1 4 10 36 65 36 31 19 33 24 10 2 26 9 -1 55 99 116 150 152 155 138 144
146 141 142 130 61 84 69 55 52 14 -13 -10 10 28 40 28 13 13 14 20 23 -1 5 5 11 11 4 32 26 50 12 24 11 10 12 53 117 134 143 155 175 177 189 191
84 118 123 113 74 76 61 42 30 14 10 12 36 36 38 42 32 22 21 25 20 14 16 10 -7 7 24 27 29 61 75 56 48 48 63 128 170 157 183 227 210 207 224 180
96 124 128 115 88 84 62 39 46 55 25 2 2 38 34 40 43 33 15 30 21 22 23 -6 -7 -7 15 28 65 63 90 91 97 122 148 193 220 234 222 223 192 234 230 202
99 86 136 101 104 69 80 18 -8 9 19 24 38 50 33 48 54 51 45 46 41 23 18 4 -10 -1 5 12 21 43 93 134 153 159 186 227 262 286 298 242 219 243 241 255
94 94 100 68 83 111 82 56 83 31 41 49 68 56 44 44 57 67 44 52 38 33 28 29 12 0 9 12 25 39 58 85 124 164 213 264 287 308 331 326 309 269 235 216
-63 76 93 75 64 99 71 105 87 93 103 119 119 75 46 104 90 88 66 53 30 1 -6 3 8 14 22 30 45 55 75 105 132 169 198 246 269 291 316 352 277 264 238 254

GFSNW_con_3kmhel_048.txt.gz
Helicity
20 5 -0 -4 12 28 -19 28 12 11 48 93 136 95 39 150 110 141 99 70 69 15 23 76 58 48 78 24 50 30 27 47 44 38 52 63 77 94 86 172 68 111 191 259
15 14 -3 -9 40 18 -6 108 90 50 66 90 109 31 72 167 74 115 114 87 83 86 52 74 50 36 43 32 27 27 68 37 34 38 91 58 50 22 32 43 24 260 206 334
28 11 -3 10 48 23 64 68 93 121 52 103 90 61 73 123 146 117 97 103 78 95 67 109 44 66 68 31 38 71 50 93 81 57 125 130 101 54 68 109 234 187 485 547
21 -4 3 40 59 62 69 92 144 82 26 67 39 70 42 109 123 141 116 92 41 58 64 54 47 32 61 37 40 50 77 63 83 57 28 14 37 52 78 188 342 247 434 102
20 -6 12 59 70 76 85 167 88 101 61 22 39 93 45 51 92 86 59 48 25 48 29 23 2 2 20 34 44 64 84 68 39 58 62 19 60 89 115 137 185 240 326 262
18 -13 12 65 58 33 143 148 109 90 86 46 58 24 41 63 104 97 97 40 20 -19 16 13 43 68 70 57 26 29 74 61 31 57 5 10 42 38 40 26 83 116 79 142
14 -19 13 59 61 32 83 66 71 51 70 34 21 41 49 38 32 46 50 28 32 39 46 79 58 37 1 17 36 40 41 40 24 45 30 4 7 72 82 49 68 107 147 149
6 -13 14 56 75 50 6 54 67 66 60 29 27 61 35 10 37 37 41 42 36 28 63 40 26 16 25 20 4 -1 17 56 61 19 51 132 46 63 77 30 17 41 106 113
-20 -1 31 53 62 56 -2 100 92 66 70 42 47 56 48 39 12 5 30 68 44 72 35 34 29 18 -7 3 4 -33 1 40 40 33 63 46 38 23 35 51 55 32 94 111
-15 5 39 70 62 54 19 117 137 63 117 63 34 24 15 24 25 39 43 45 32 37 81 67 67 48 13 5 18 66 47 34 17 33 54 72 41 1 32 22 21 21 61 75
-20 15 54 84 91 86 41 149 126 108 73 50 46 37 27 33 13 14 27 23 29 70 41 20 73 35 23 27 17 30 62 29 25 35 58 65 11 1 -0 1 -8 12 29 26
-14 -1 64 83 102 83 47 49 119 136 51 36 30 27 28 39 29 26 45 31 51 62 36 33 69 47 43 30 34 45 30 32 31 28 40 16 5 27 43 22 37 13 -18 -21
-0 3 29 68 80 100 76 72 101 72 55 36 25 28 24 30 54 71 74 63 71 41 49 59 71 52 28 34 44 40 38 12 28 14 25 60 31 2 7 23 13 29 16 8
8 18 27 74 110 125 121 68 72 60 49 34 26 12 15 27 42 74 122 107 75 51 38 60 60 59 42 54 33 43 33 11 34 35 48 36 19 7 14 40 35 37 35 32
21 27 54 90 120 145 140 108 67 44 32 28 20 13 16 13 27 58 89 34 31 71 48 39 34 13 -1 -16 -6 8 41 38 18 2 35 27 24 31 21 20 28 48 41 65
29 47 89 130 145 165 136 94 44 35 38 28 7 4 4 20 30 -18 -23 -25 35 48 21 10 -11 1 5 5 -8 40 -1 25 30 -31 18 16 25 32 23 35 43 48 36 63
76 88 108 128 134 122 121 118 64 82 61 26 19 17 -12 -16 -3 10 5 7 46 44 12 -0 22 14 12 -3 39 20 23 48 37 48 -16 -49 22 36 59 85 76 100 58 79
133 137 137 147 129 100 138 128 90 15 22 14 8 -2 -25 -22 20 15 11 15 18 11 10 -0 -6 3 9 34 83 45 2 -6 7 -3 -2 36 75 115 123 107 111 121 66 85
67 40 68 108 87 108 83 46 30 15 33 1 3 -2 -5 -14 -14 -0 10 15 15 22 8 7 1 9 13 41 38 45 23 18 24 56 69 89 83 122 109 95 83 121 71 118
118 103 199 186 57 26 43 33 35 27 8 12 8 14 -7 -19 -2 -1 8 6 2 17 25 19 27 84 108 32 51 50 64 36 57 74 64 70 83 68 54 53 58 95 78 83
125 182 188 162 82 66 88 68 45 24 -0 -9 8 6 7 -2 -0 6 3 5 2 2 8 20 59 63 45 38 8 18 36 9 10 15 31 23 26 75 64 56 72 64 82 118
120 144 152 136 96 84 75 59 44 22 3 -13 8 23 24 23 10 2 1 5 -1 -8 -7 -5 8 4 10 23 37 44 48 7 6 -5 1 4 31 58 97 117 140 129 141 147
79 100 124 115 89 62 53 38 36 31 4 8 14 12 22 36 31 15 7 -2 2 4 9 6 2 21 20 24 32 28 52 37 25 4 31 53 107 112 140 158 134 157 180 151
110 121 93 92 77 68 51 49 51 35 24 15 1 6 10 39 51 28 15 11 9 27 30 13 6 -1 9 19 36 29 52 46 32 26 45 84 130 133 112 146 168 195 209 172
112 115 94 79 82 63 39 14 26 15 15 29 23 33 27 35 41 44 35 23 26 37 29 35 28 20 11 12 15 35 61 79 90 91 111 146 172 198 218 198 210 232 283 291
9 104 108 84 85 85 52 55 69 32 37 43 48 33 34 30 44 30 12 29 31 51 25 26 30 6 3 8 9 16 32 62 100 128 146 169 193 233 274 285 277 265 250 242
62 19 124 88 91 91 75 103 70 61 83 94 90 49 43 60 30 24 35 58 92 60 32 13 7 3 15 16 16 24 36 57 77 105 134 172 206 247 303 337 296 310 282 308

GFSNW_con_3kmhel_051.txt.gz
Helicity
18 23 10 1 38 35 74 84 28 -13 22 38 106 92 -57 46 46 173 63 37 50 29 22 55 68 59 127 15 21 37 49 66 56 30 53 17 75 56 86 172 104 173 122 89
18 19 1 28 56 43 76 70 35 46 29 69 217 145 58 97 66 133 132 67 49 -36 16 88 106 90 47 22 6 27 45 45 58 41 49 51 59 72 81 64 41 83 83 201
13 25 -3 46 59 68 22 8 17 58 -68 183 83 91 69 66 124 141 75 48 16 15 35 77 60 77 55 25 23 114 19 46 36 61 100 89 116 51 35 98 186 109 376 382
16 20 4 45 56 86 63 66 40 78 75 116 47 79 94 51 70 100 82 39 46 23 70 72 50 44 57 37 60 51 36 31 9 4 -8 13 29 24 35 97 226 206 391 133
31 8 5 48 56 91 45 102 65 47 69 56 52 35 22 64 83 76 92 53 43 53 43 80 31 12 18 38 40 28 53 27 28 9 18 0 14 5 49 96 133 147 226 232
52 2 3 46 62 67 77 79 107 91 106 78 27 47 54 71 35 52 85 74 60 52 67 60 71 60 39 38 22 29 44 37 13 -5 66 22 -2 9 -1 60 99 84 85 108
53 5 22 44 60 65 67 39 55 95 87 54 59 43 38 31 44 51 44 35 58 64 61 63 54 51 48 43 47 33 32 -15 24 13 50 -31 20 27 13 -11 27 38 88 106
52 15 35 59 62 68 48 43 45 56 51 25 38 38 40 30 38 45 45 51 76 43 69 38 24 21 29 17 29 25 9 45 26 11 25 33 29 20 28 9 -8 10 18 22
29 10 45 76 74 72 57 33 35 38 47 35 38 53 55 32 32 29 42 48 32 56 56 36 25 40 19 16 5 -3 29 11 38 63 37 4 3 43 76 46 23 66 51 64
23 0 34 81 98 90 70 39 51 49 62 65 61 68 48 30 21 32 49 48 37 43 58 32 16 12 10 -2 -8 23 66 44 -6 42 36 39 16 30 41 -2 13 1 11 75
18 10 19 79 91 100 57 70 46 52 92 106 67 57 44 35 9 25 42 46 41 54 46 40 24 -5 -10 15 5 35 45 47 68 33 32 38 30 20 8 10 -7 6 45 57
14 -1 27 68 72 85 76 74 91 91 56 68 40 41 50 52 59 6 24 43 46 28 30 30 45 20 21 11 44 33 19 30 39 2 33 26 3 23 23 18 26 16 -5 8
10 1 20 81 82 108 87 67 78 64 51 46 36 38 19 23 46 64 43 38 44 42 57 34 32 27 22 38 22 10 31 16 23 26 31 46 32 18 9 -13 9 31 17 15
6 12 32 89 106 115 99 62 60 53 64 56 24 20 20 37 44 61 74 87 115 84 70 61 31 33 37 33 56 48 51 15 25 55 71 60 13 23 3 44 34 31 24 28
-10 23 38 95 120 134 122 106 58 56 45 33 31 17 26 29 44 30 70 111 80 71 69 46 39 37 17 19 30 21 25 29 40 35 40 39 32 26 27 38 47 44 36 40
-8 40 85 136 142 151 163 81 32 24 18 29 9 11 12 16 30 77 65 57 70 69 34 74 27 40 36 15 -8 33 20 9 38 12 3 18 36 30 27 44 50 45 44 51
43 81 121 144 131 105 111 87 55 24 40 11 1 1 -14 -1 15 41 24 32 28 56 15 -6 34 27 22 25 30 35 15 18 36 13 24 -14 16 40 48 76 92 90 93 72
104 112 126 100 82 106 100 82 -1 -2 27 5 11 6 -24 -30 7 5 -1 0 19 15 27 -4 -1 -19 -7 31 39 26 21 3 21 23 35 68 61 65 84 105 115 94 104 71
98 24 30 75 89 117 119 71 32 24 10 -2 -11 3 -7 -35 6 3 8 8 8 39 -11 -15 -17 -17 11 35 22 23 37 20 29 38 46 42 41 68 93 112 120 95 74 60
108 126 169 143 71 76 51 46 31 45 54 10 -3 19 -13 -19 -7 15 4 0 9 11 3 7 -4 27 50 -12 -14 29 47 65 49 45 41 49 67 79 105 89 80 53 89 95
123 167 173 108 87 90 93 59 45 35 12 -3 8 9 12 8 4 9 -6 9 5 5 9 22 35 44 29 38 36 10 -1 41 54 46 51 52 70 58 73 61 66 74 64 81
100 165 180 112 76 95 69 51 52 27 25 15 -5 8 15 14 18 -4 -6 -2 -1 19 -3 24 34 32 28 30 48 59 78 62 34 24 28 26 3 32 93 54 49 58 79 105
74 146 182 148 81 61 58 38 45 42 43 25 17 5 1 12 24 5 -2 -4 -1 1 -1 0 -5 17 12 17 26 66 74 36 15 -3 -14 8 30 59 105 124 141 141 149 137
116 151 136 102 62 56 52 71 70 57 50 37 13 -7 8 12 40 31 10 6 9 28 30 18 39 36 27 34 39 10 20 30 40 28 22 33 60 65 75 88 109 155 179 183
11 130 126 75 85 67 50 55 43 37 35 43 33 19 19 24 24 29 31 19 16 42 52 50 48 44 34 38 39 47 40 44 39 36 35 54 88 104 115 112 135 190 246 272
-22 11 105 92 99 74 58 52 36 31 50 47 47 35 21 29 50 32 22 41 49 49 55 23 20 19 13 27 27 23 35 59 66 76 89 110 135 152 187 203 197 209 252 265
5 15 96 106 105 107 100 102 90 68 72 78 84 47 37 24 22 25 26 48 73 79 60 52 37 26 23 22 18 15 15 21 38 62 95 135 170 182 228 263 243 274 308 327

GFSNW_con_3kmhel_054.txt.gz
Helicity
27 10 17 -19 -13 23 54 68 38 -15 -38 16 54 69 29 -84 166 112 110 33 61 68 69 58 87 52 86 32 55 89 96 78 71 57 19 12 72 70 83 130 69 147 171 174
29 18 10 -26 -20 9 48 13 14 22 63 65 102 79 -3 -42 72 110 79 52 54 19 53 99 73 79 78 17 31 64 64 61 79 72 37 57 41 64 64 73 105 137 187 127
30 29 -1 -31 -24 12 -16 6 -1 -1 -74 72 101 55 29 67 109 121 98 41 -29 25 67 39 52 81 76 57 75 105 36 50 38 65 96 79 94 48 84 130 166 150 284 170
33 33 -11 -42 39 55 11 16 1 11 84 106 123 32 24 68 114 110 116 73 0 12 85 46 74 59 63 68 67 87 69 55 42 26 14 31 58 101 104 133 143 192 108 99
37 33 -17 -50 65 95 39 14 27 18 97 107 72 5 2 54 70 143 74 36 20 62 68 72 43 12 23 34 44 52 70 43 50 37 28 -24 -7 13 53 75 116 120 92 179
19 27 -14 -36 70 45 33 26 50 78 128 57 -2 74 69 101 35 122 138 66 74 119 122 117 138 64 26 45 47 66 49 31 20 13 55 28 17 48 39 67 81 105 95 143
6 13 -29 22 57 67 67 6 59 82 46 42 51 65 64 61 54 26 61 92 53 39 61 66 100 123 128 70 27 28 31 31 30 10 14 16 29 32 -10 12 15 49 63 63
4 2 -30 66 60 73 46 24 48 70 54 63 40 53 47 68 42 55 50 64 42 67 68 49 41 45 44 33 37 61 55 43 30 2 23 15 0 18 15 2 15 51 39 43
5 4 -8 66 70 73 57 10 17 53 47 40 95 49 33 57 38 52 45 59 78 56 39 46 39 46 27 29 12 -24 19 47 44 57 42 21 8 -18 61 79 -6 17 34 34
0 -4 -6 49 86 70 72 25 5 27 19 46 81 43 54 34 38 33 52 41 40 53 44 39 39 43 27 21 16 14 18 44 23 30 28 35 1 56 66 10 -5 57 -4 37
7 -11 -8 39 70 65 50 73 7 19 31 82 68 59 70 42 39 27 39 35 38 50 47 37 25 23 12 19 42 39 33 12 67 33 26 20 20 49 16 7 -10 49 60 69
9 -7 -3 36 71 58 73 64 23 27 31 60 77 57 55 46 48 19 10 34 29 54 30 31 35 24 18 -23 13 92 26 54 62 35 45 13 17 13 15 9 8 18 71 77
5 -13 20 39 78 62 57 62 87 53 51 74 54 24 24 17 47 63 29 43 58 50 52 36 22 8 17 -3 -1 54 24 34 41 50 55 69 75 32 26 38 57 56 40 51
4 -21 39 53 82 80 67 64 48 66 56 72 57 19 27 44 51 71 83 80 97 90 76 59 64 32 38 18 18 34 57 61 54 60 51 93 36 25 10 25 44 43 37 22
-11 -34 61 61 89 87 74 72 51 55 58 41 23 31 43 38 45 50 71 79 113 116 95 65 75 42 25 14 28 29 41 62 93 53 40 30 16 23 22 53 42 38 34 48
-32 30 95 79 103 95 101 88 49 46 33 18 28 17 22 30 45 51 77 109 113 113 91 63 33 24 31 20 8 5 17 53 20 6 -36 -17 -1 24 37 44 52 67 58 56
0 81 118 103 94 80 96 85 62 41 18 20 20 -3 8 13 16 31 53 60 83 85 70 38 38 57 47 19 46 48 27 27 46 18 0 -9 12 36 67 79 95 109 111 95
95 125 71 65 48 85 88 62 42 21 31 10 -9 1 -23 28 4 12 15 22 19 21 45 40 34 29 36 23 26 32 20 2 -21 2 20 46 84 101 86 81 90 118 121 112
100 5 24 63 80 92 89 52 33 34 43 9 -13 -17 -7 17 -44 1 19 -2 -5 -29 -43 13 40 17 28 16 22 20 35 28 30 22 48 39 60 72 70 92 114 138 76 82
73 116 147 121 65 73 57 42 46 41 13 54 15 -6 -13 -20 -21 16 30 -10 -18 -19 -32 -17 -9 17 19 -39 -58 -26 9 19 6 11 23 34 76 69 78 86 109 115 50 96
95 123 113 96 64 53 67 68 45 45 18 8 -4 -10 2 15 -1 34 -7 0 -8 -1 3 14 56 55 29 27 15 8 20 10 15 46 69 45 49 79 78 90 112 76 77 118
78 69 85 59 56 78 72 69 68 47 28 40 7 -7 -2 2 13 0 -6 -4 -6 24 12 31 43 42 8 2 13 29 47 73 68 66 49 36 61 77 86 98 83 87 93 94
71 80 120 95 78 73 61 36 63 53 38 32 17 -10 -7 -6 12 6 -9 -2 -6 2 1 3 4 -11 -21 18 13 48 70 94 72 56 45 57 49 65 92 70 68 94 115 103
90 115 139 114 96 85 72 66 62 50 36 29 13 -7 -7 -5 19 27 6 -6 1 19 25 16 29 31 53 59 52 24 78 128 67 27 8 35 67 81 128 132 129 143 157 171
-9 119 132 93 91 83 61 53 61 62 46 38 24 14 22 13 15 18 25 16 7 15 42 35 23 30 35 40 53 52 48 41 49 45 30 37 69 98 105 104 142 176 205 213
-18 -7 98 78 100 96 73 54 50 46 41 46 40 20 22 13 34 31 27 34 33 29 52 33 33 31 15 19 22 17 19 62 68 58 54 54 71 100 136 176 174 189 221 229
77 -51 98 93 74 88 98 94 91 63 54 48 63 38 21 36 22 18 28 41 48 57 58 51 60 57 45 24 21 13 14 14 28 49 85 103 128 174 195 202 212 240 256 267

GFSNW_con_3kmhel_057.txt.gz
Helicity
60 44 8 -32 -41 -19 48 40 28 53 48 53 58 40 -27 -6 118 136 152 185 91 161 153 80 90 53 103 77 70 88 112 65 63 74 59 43 97 61 76 72 62 76 78 68
74 43 -2 -45 -49 -33 10 0 43 0 51 129 125 48 -2 53 137 204 79 111 97 97 134 79 95 83 110 -17 127 108 95 78 84 82 63 28 30 38 41 58 65 68 127 24
76 46 -7 -52 -55 -45 -3 14 18 -4 39 68 176 66 48 128 124 128 138 75 47 138 139 109 105 127 156 108 95 81 98 57 50 52 51 51 50 76 55 112 146 170 213 168
73 44 -7 -57 -65 -32 -5 20 -21 31 141 174 120 52 65 83 79 124 139 18 -13 45 117 59 100 91 116 104 93 74 67 56 34 -6 -2 8 36 78 113 205 196 178 208 95
65 52 7 -64 -49 -20 23 25 28 67 156 121 55 107 85 113 123 153 89 13 53 100 71 52 40 25 68 64 68 86 76 46 45 1 -3 -4 3 27 132 136 163 224 170 188
47 32 7 -58 -3 4 30 40 76 115 125 67 36 39 103 34 115 87 158 49 100 101 118 114 56 21 9 24 78 93 79 48 31 19 47 21 3 45 90 92 132 147 142 207
40 41 23 -47 59 77 41 47 82 78 55 52 54 64 63 46 129 125 108 63 45 43 37 86 126 168 164 54 39 94 60 44 38 22 25 -18 16 50 36 25 -25 51 74 64
29 37 35 -23 72 86 31 55 58 58 48 46 69 61 59 46 76 80 53 54 14 21 51 50 62 78 75 65 49 61 37 32 24 -2 -10 7 15 24 17 -5 -4 6 43 7
37 30 27 -3 71 82 35 37 36 48 40 32 49 50 66 51 36 38 34 72 73 37 30 48 40 38 35 30 23 27 45 57 31 45 11 -2 39 13 51 66 -15 -11 26 11
41 36 15 2 58 61 33 29 -2 36 37 18 61 52 46 44 43 29 26 40 39 34 25 43 38 44 36 32 14 13 25 13 12 22 35 34 24 25 16 16 -8 -23 90 20
45 41 25 5 48 69 42 68 14 38 30 36 24 47 34 51 28 32 23 41 33 47 32 32 29 19 29 25 33 20 30 10 26 33 47 29 10 39 30 8 1 3 122 121
53 47 24 -2 46 76 54 47 12 17 15 47 38 76 81 46 20 24 25 17 11 19 30 34 47 33 34 15 24 65 25 44 10 36 23 41 25 41 25 37 37 28 73 100
55 60 28 0 51 94 63 63 43 46 43 60 50 43 33 23 30 36 24 23 25 13 39 39 33 26 29 15 0 50 36 66 43 47 44 82 62 30 -4 12 18 26 42 48
64 67 35 -9 59 101 72 49 61 55 48 58 63 42 28 27 48 58 63 63 103 103 84 56 47 53 37 15 16 3 32 63 48 102 89 51 9 23 -1 -12 -4 19 26 31
43 33 8 41 89 97 79 56 31 63 58 61 51 50 34 35 40 45 63 89 109 93 71 77 59 69 40 29 22 1 35 47 108 113 20 25 17 7 -3 -6 2 14 27 36
19 -9 -54 71 101 84 90 84 33 30 61 20 45 23 15 29 26 36 56 67 97 119 131 93 65 53 45 43 16 15 19 18 16 38 17 -23 -26 0 -5 8 30 28 48 40
-9 -16 71 96 102 83 95 96 71 32 68 22 31 31 26 22 13 6 49 64 85 88 87 74 62 42 47 28 33 34 22 29 39 47 7 -9 3 -19 28 43 64 72 84 91
-52 116 55 47 59 85 87 69 52 49 21 25 16 5 18 -2 -9 -15 30 23 41 52 77 62 44 49 33 16 4 25 31 23 40 13 11 10 48 72 74 64 73 98 109 141
45 59 14 73 103 89 76 31 19 46 25 20 7 -18 -1 6 -13 17 18 11 16 13 27 40 56 53 27 35 28 34 22 26 26 19 3 -5 10 31 72 80 67 101 110 122
35 101 163 154 74 30 18 45 33 6 -15 -9 15 10 -5 -30 -29 8 15 21 -9 -23 -1 48 -2 10 51 28 -21 -47 -23 -14 9 2 12 -3 3 43 76 73 79 92 105 95
76 133 128 55 63 94 57 52 36 23 -1 -26 -2 -16 -7 10 -3 23 1 -2 -11 -8 14 22 9 75 67 30 -2 -3 7 8 12 -4 6 29 6 40 69 67 74 95 101 82
48 96 87 96 64 65 56 67 48 10 14 25 -1 -20 -16 -1 12 -6 4 3 -4 12 6 28 7 29 48 31 50 53 46 53 71 65 41 24 18 56 68 106 100 89 92 86
35 57 50 73 68 47 47 40 45 32 15 2 14 -13 -30 -17 9 3 -7 -9 -5 7 24 19 15 11 17 39 56 67 65 78 106 81 62 27 47 31 64 66 62 68 57 42
59 111 118 103 65 58 53 53 69 63 51 33 21 -1 -10 -17 1 22 6 -2 2 9 -5 -7 -7 23 45 52 49 37 74 121 111 90 54 91 54 47 80 91 66 72 73 72
72 112 126 79 67 61 51 34 38 57 60 51 35 18 10 10 7 13 24 26 24 24 35 30 27 42 42 42 40 35 48 57 57 44 37 30 48 54 74 76 102 111 138 151
71 97 83 81 89 81 48 36 34 38 41 49 46 31 20 14 8 13 18 32 31 24 28 39 45 33 30 29 29 22 24 34 59 23 22 26 29 39 66 92 102 114 150 153
74 58 82 96 78 74 91 85 89 68 45 42 46 32 25 41 25 10 38 33 44 38 51 66 48 50 48 48 32 25 23 20 24 34 62 70 89 118 139 145 142 174 184 204

GFSNW_con_3kmhel_060.txt.gz
Helicity
59 53 44 -48 -43 -59 39 65 28 46 64 69 65 50 8 66 200 281 193 182 129 137 126 122 122 44 97 46 75 82 102 51 71 63 52 49 99 61 55 56 52 79 56 28
30 33 34 -53 -41 -64 33 55 -8 73 76 92 74 48 64 177 303 147 158 120 102 132 106 77 68 48 77 52 64 55 81 51 84 54 37 38 22 29 55 57 41 31 80 13
55 13 24 -58 -43 -61 27 21 26 123 109 100 60 96 190 191 149 179 159 94 93 153 121 83 81 105 92 74 91 63 72 42 29 18 36 41 33 37 41 99 69 110 147 123
42 1 1 -60 -47 -57 22 -6 85 103 117 66 128 176 177 138 126 130 129 126 131 100 84 80 91 111 140 156 118 138 70 28 46 16 24 25 18 18 28 111 143 118 163 110
32 16 1 -50 -42 -24 32 23 99 130 141 100 166 188 154 185 163 92 54 43 53 69 65 59 65 90 107 67 106 83 74 60 44 31 28 19 19 44 62 102 118 155 203 271
23 16 5 -34 -41 -12 24 57 98 111 129 104 118 130 104 127 140 125 35 7 62 108 113 52 59 62 45 29 85 87 59 34 27 36 57 36 41 42 89 106 92 134 153 283
23 6 13 -16 -42 20 26 65 73 67 109 73 99 120 76 109 126 115 83 72 61 64 80 77 102 113 69 47 67 66 61 43 29 21 28 18 14 34 30 66 22 76 76 132
24 11 5 -0 33 30 6 30 60 43 82 71 115 101 77 142 85 78 72 84 68 47 48 76 73 94 75 71 53 56 44 51 31 9 10 4 -0 19 20 26 1 -38 -3 53
33 19 9 -1 -2 44 13 15 24 57 45 54 27 72 63 61 54 61 33 56 60 31 30 48 52 49 48 46 47 38 48 48 37 11 8 2 24 77 43 29 2 -38 -21 10
32 29 20 10 1 45 6 35 15 51 32 18 35 40 56 46 34 24 38 50 53 46 29 34 35 43 25 39 28 21 33 38 28 21 31 44 17 28 19 25 4 -8 25 99
29 34 30 18 4 37 15 46 33 54 31 32 18 49 56 55 44 28 31 36 34 37 24 28 32 28 24 30 20 10 14 17 15 37 38 36 14 33 25 15 13 68 71 86
34 38 46 22 -3 35 20 42 30 34 34 34 31 60 69 53 42 36 28 18 19 15 28 28 35 33 38 27 27 59 9 21 9 24 3 15 47 30 43 48 83 53 42 22
37 39 58 27 2 27 40 42 19 20 47 51 39 40 39 29 13 30 16 25 16 12 4 19 36 31 36 30 22 45 22 73 39 48 25 90 85 61 36 63 16 7 15 25
17 23 22 17 -0 19 53 45 44 34 36 66 78 44 40 37 40 33 40 40 74 65 62 44 41 38 37 37 34 26 8 69 38 59 88 101 42 10 14 5 -4 7 13 23
-4 8 17 9 -12 37 63 64 68 51 46 71 81 72 34 37 33 38 57 69 86 84 91 75 65 39 40 46 59 8 56 46 69 64 46 28 31 8 7 -9 -15 4 10 24
-17 5 -11 -3 -20 48 79 95 42 59 53 52 74 43 27 37 44 41 43 63 93 119 81 113 75 80 62 33 36 45 58 37 18 17 7 11 16 -6 -9 -4 -5 11 16 32
-20 -27 -27 -20 19 81 86 116 99 15 73 37 54 49 42 38 35 27 17 42 65 100 112 119 95 60 72 44 32 40 22 -4 9 24 38 30 8 -5 -19 5 38 50 56 65
-40 -51 -18 5 8 51 68 51 126 55 50 47 37 26 43 31 20 6 25 15 58 61 88 84 77 63 48 42 42 55 53 72 34 34 2 -9 -11 18 32 33 57 57 67 82
-28 -21 28 58 93 68 84 56 22 52 52 48 24 16 8 24 11 4 4 7 -4 33 23 27 32 57 81 98 92 57 38 27 30 43 33 5 1 -14 -0 32 62 45 54 101
57 73 150 157 92 37 39 55 51 39 6 2 29 21 11 7 -16 -26 -4 33 29 19 29 27 4 56 83 57 55 -5 3 1 -6 -16 -6 12 15 -0 1 11 51 51 72 100
50 105 132 89 54 64 71 53 41 27 24 2 -0 -3 3 4 -6 6 -8 -2 23 15 34 39 46 66 113 108 61 15 15 13 6 -22 -13 8 13 6 6 47 57 70 88 93
40 54 65 72 57 71 62 55 49 29 19 3 10 -1 -10 -0 15 2 5 9 11 5 11 1 40 50 95 71 53 56 51 63 62 42 49 53 26 9 36 61 65 92 102 117
30 90 99 95 67 60 39 41 41 34 15 11 25 8 -8 -16 -6 9 6 -4 4 14 -10 -21 35 74 80 80 75 55 55 91 118 119 93 75 37 55 40 70 82 109 93 78
46 94 119 105 75 60 44 38 46 37 42 41 29 22 11 -3 -10 4 8 7 8 23 15 -19 5 5 13 49 70 63 58 111 154 133 102 74 43 50 37 44 39 46 35 36
39 86 126 96 68 55 38 24 44 60 61 52 37 27 19 12 1 9 20 21 20 18 17 7 -1 10 9 9 10 9 25 65 122 106 82 66 66 27 44 36 35 35 47 56
79 72 107 86 88 62 52 48 31 31 42 39 53 46 31 13 16 8 6 30 21 24 39 26 27 29 24 27 27 23 26 19 27 48 41 31 32 20 19 40 40 49 64 81
58 62 61 66 68 73 65 52 43 42 39 43 40 31 38 41 29 16 8 20 42 44 56 61 49 37 33 27 16 21 21 26 29 27 28 42 63 76 79 66 62 84 95 120

GFSNW_con_3kmhel_063.txt.gz
Helicity
37 33 20 -37 -37 -49 24 47 6 87 76 76 45 100 143 227 312 175 216 183 155 127 167 115 128 123 81 109 75 94 65 49 96 66 62 54 73 52 63 47 45 71 39 54
27 26 10 -45 -39 -50 65 38 64 92 43 69 93 93 190 208 241 159 164 116 78 129 119 75 83 117 55 74 70 52 43 54 73 59 44 50 34 38 64 54 49 27 51 33
22 24 18 -41 -44 -53 -15 2 -22 41 25 79 139 213 210 182 147 180 159 106 88 92 95 98 101 85 68 46 46 52 48 36 33 26 34 29 41 48 67 88 56 78 100 82
26 17 24 -26 -54 -12 -16 11 -24 19 61 134 173 146 148 131 84 95 120 79 85 74 56 73 87 96 81 75 84 91 42 30 36 32 25 26 25 24 12 52 75 51 79 62
25 15 27 -14 -53 13 -5 -57 -17 64 86 167 156 134 146 119 53 75 126 70 74 47 49 46 75 88 92 69 79 102 92 22 15 33 40 14 14 10 -1 13 20 77 123 143
20 18 24 2 -50 -19 -18 52 67 70 116 117 80 131 106 102 72 94 78 117 99 130 100 77 89 93 58 48 89 99 54 13 29 36 45 28 33 30 28 81 108 83 64 179
16 25 21 9 -36 -37 10 -23 62 65 70 85 98 122 110 165 115 58 78 102 75 81 91 87 104 80 35 66 82 62 54 38 25 25 39 22 23 22 21 19 19 88 52 117
2 30 33 11 -18 -43 5 30 38 56 65 95 121 132 95 138 88 64 56 88 77 77 51 69 63 67 51 72 83 70 52 47 33 17 19 15 13 20 19 15 22 -9 1 15
21 32 32 25 -8 22 7 22 10 25 60 61 90 68 98 85 54 55 50 57 60 30 31 36 34 35 41 35 46 63 71 67 43 17 17 21 32 61 38 14 30 -4 -22 41
13 17 28 24 -2 19 9 36 16 35 43 30 55 65 64 54 36 31 40 40 42 24 26 35 30 37 29 37 39 39 34 27 38 39 38 47 11 -1 16 38 32 28 28 55
18 15 19 26 -20 -1 16 42 25 43 45 45 27 50 71 69 40 26 24 34 45 36 25 19 31 34 32 36 21 10 0 22 20 34 47 47 12 37 27 16 53 62 35 24
15 14 12 10 22 25 25 57 45 5 35 42 31 60 91 54 55 55 54 35 26 12 22 19 28 32 37 21 26 43 12 17 4 7 -4 2 23 20 23 15 76 77 37 20
18 21 23 14 19 24 8 78 44 35 43 52 19 30 16 43 43 16 40 31 19 17 8 4 10 21 30 26 22 35 20 56 25 27 16 54 80 72 66 11 97 33 9 29
16 18 32 22 23 14 -24 70 52 39 79 61 78 67 61 27 21 15 19 24 43 38 39 32 15 12 27 25 37 22 21 61 15 38 50 85 81 37 35 19 14 -5 14 15
23 37 20 22 18 2 -1 78 65 37 58 89 98 115 38 38 36 34 38 46 59 63 64 62 46 42 44 42 44 45 106 52 57 26 54 26 30 22 1 -9 7 0 14 15
23 -1 -8 -18 -27 10 37 6 72 63 43 46 81 82 50 43 40 38 38 49 65 87 85 89 83 99 69 28 22 33 67 61 15 24 35 0 22 23 21 1 -3 0 0 4
-25 -36 -42 -103 -67 45 2 94 91 24 85 37 71 65 40 37 43 41 34 42 47 76 108 120 120 90 89 63 67 44 43 35 28 48 28 19 28 31 28 13 7 11 47 51
-27 -33 32 -5 17 40 69 -4 93 45 68 50 65 55 47 44 48 39 42 33 38 75 75 83 95 97 101 62 71 65 29 61 17 50 56 -15 -15 1 7 7 6 24 48 57
-64 -59 7 22 51 67 32 23 44 62 70 64 25 32 39 31 43 38 27 37 18 54 57 62 64 89 69 87 81 85 57 29 36 6 12 24 20 23 5 -11 -19 -24 18 55
44 45 82 115 24 -23 62 61 51 43 26 28 29 30 20 38 36 9 26 34 20 27 43 54 46 40 111 85 68 52 30 7 -6 -13 -47 11 22 25 10 7 -6 3 52 63
26 55 70 6 27 77 58 55 55 45 43 18 4 15 23 14 14 21 16 8 13 11 45 55 50 72 91 73 48 36 23 13 5 -7 -3 8 16 22 22 7 -6 40 74 69
26 52 49 32 52 57 63 56 55 43 38 15 18 23 7 10 20 12 12 9 24 9 38 34 81 89 88 94 92 68 38 28 30 31 34 42 35 25 11 -5 30 67 73 92
30 57 77 62 55 63 61 57 45 36 26 24 55 38 17 -4 -5 4 11 14 8 29 40 49 44 63 95 85 66 64 36 27 43 86 111 121 101 69 36 42 52 88 94 72
58 94 88 93 50 59 45 45 44 35 29 33 33 28 22 19 -4 -11 16 15 15 20 11 40 12 -11 57 83 79 107 104 70 80 116 145 124 100 57 47 47 47 58 59 62
67 105 106 68 61 36 36 35 38 52 48 45 48 51 38 25 10 9 5 12 21 5 14 34 2 -22 -36 -23 -15 -3 34 82 76 95 92 81 68 55 46 60 45 38 43 35
61 96 108 70 57 45 44 39 29 58 58 54 59 47 43 26 15 15 -5 2 -3 12 35 29 26 22 -2 -5 0 2 0 -14 -6 31 44 62 44 49 30 26 31 17 38 40
48 58 67 80 74 61 38 53 52 45 52 51 43 33 32 44 30 21 15 8 20 32 54 63 57 57 45 30 14 16 21 22 24 24 17 9 12 17 20 13 12 17 16 36

GFSNW_con_3kmhel_066.txt.gz
Helicity
31 25 19 8 -21 -47 32 5 7 93 -21 24 58 106 214 180 166 182 194 172 152 92 127 206 109 118 62 85 71 84 69 49 85 82 60 48 71 54 71 65 57 70 32 63
34 23 13 11 -25 -45 41 -9 34 90 71 32 138 119 149 121 126 102 92 61 57 120 135 84 91 95 78 74 89 59 52 64 77 71 43 56 40 56 72 55 58 35 47 52
36 23 1 10 -12 -31 26 -24 -20 34 62 133 121 97 100 109 115 137 119 69 81 95 87 64 75 84 71 107 96 84 58 64 42 44 30 27 39 62 72 69 40 48 49 48
30 19 -8 11 59 54 2 -41 -6 24 91 135 174 117 105 67 59 100 98 70 74 48 47 62 80 89 80 115 88 74 44 37 41 24 22 34 26 26 46 57 92 36 50 50
19 14 -3 6 47 21 -31 -54 -24 21 114 156 141 111 150 98 96 79 116 71 56 36 42 61 65 69 73 45 93 73 61 31 14 28 39 24 37 16 11 14 39 86 77 121
22 11 1 3 24 11 -25 -13 10 60 102 104 83 111 97 81 81 123 92 81 60 109 86 53 77 80 58 22 56 128 75 3 -0 19 30 32 42 18 27 57 58 59 75 106
11 -3 -6 14 2 17 -3 -17 46 47 63 76 116 153 147 87 61 45 88 73 59 50 67 103 95 92 68 101 110 56 41 24 28 19 37 25 15 8 21 5 18 39 31 45
3 1 -5 10 -1 5 -36 6 29 51 39 74 107 148 114 83 57 55 68 74 44 25 22 43 50 61 49 68 86 87 45 40 36 22 24 31 31 26 25 28 52 7 -22 -7
17 9 17 6 8 -14 -31 -11 5 28 47 38 79 105 82 81 62 44 43 42 42 5 18 32 46 52 39 33 38 73 77 64 32 23 23 20 27 51 51 31 46 29 22 30
24 6 9 19 13 -1 2 -4 12 25 37 42 74 62 69 60 39 29 38 47 44 25 17 23 28 37 18 30 20 31 42 38 29 28 28 34 8 4 22 50 41 46 53 45
-3 6 19 27 23 12 24 -12 16 42 32 34 41 50 64 78 52 44 39 29 33 25 24 15 21 25 25 35 20 15 17 36 31 24 41 57 13 25 31 9 22 47 89 39
12 19 17 19 15 24 49 48 27 40 15 39 39 65 79 60 50 50 39 31 24 11 23 20 22 32 36 24 31 29 19 8 4 1 -1 -2 14 46 37 26 19 62 74 41
15 20 16 26 35 28 37 66 31 39 44 69 29 47 69 23 39 25 48 43 31 21 16 6 8 20 24 21 20 20 21 34 32 24 40 25 42 69 73 29 13 61 31 44
8 14 17 26 31 26 62 91 65 38 91 120 89 75 90 33 32 26 13 33 30 28 25 22 14 8 7 16 28 20 11 38 26 13 36 77 89 80 49 45 40 17 14 25
6 21 17 8 20 25 42 74 61 47 67 123 120 117 87 53 33 27 30 31 31 38 37 38 18 39 30 38 36 36 55 48 50 -38 35 23 -5 -7 15 26 27 1 4 19
17 32 25 6 -4 9 77 42 44 38 56 112 129 124 99 64 47 43 42 38 48 61 48 48 62 82 73 33 32 24 34 58 39 22 37 21 35 26 22 18 16 9 9 9
19 26 11 1 -26 -2 84 54 35 19 98 80 110 79 81 63 55 50 63 59 46 44 61 84 133 100 103 85 79 81 66 67 32 54 57 40 54 32 40 29 25 22 22 20
5 10 -16 35 81 85 20 -3 18 48 58 66 114 89 79 52 56 51 52 53 48 42 66 98 88 88 100 68 113 107 59 49 14 33 12 3 23 12 1 6 14 16 23 24
-45 -39 -17 32 20 -29 -46 -36 7 56 69 93 65 78 68 41 52 67 54 47 34 60 72 89 72 91 86 98 77 72 55 48 44 28 3 9 8 21 31 28 26 16 11 11
38 58 47 -44 53 -15 26 25 56 55 48 44 28 39 42 25 43 51 46 49 42 43 48 69 78 97 133 121 78 46 39 32 15 -11 -61 -45 -6 21 28 37 25 17 3 2
6 7 23 43 44 49 54 58 57 39 40 19 23 25 26 26 39 45 37 43 42 17 37 63 62 45 84 88 65 39 30 36 31 14 2 5 1 24 47 49 14 11 -1 26
-10 5 15 24 45 29 47 33 44 37 42 33 34 30 34 34 41 29 33 32 33 -1 43 27 56 100 82 68 57 53 49 48 34 24 21 25 32 36 34 34 17 14 16 74
3 9 38 51 37 51 67 63 45 39 54 38 48 45 46 24 16 26 21 23 11 31 16 25 78 82 79 98 111 84 73 55 43 39 39 59 84 93 92 62 46 43 48 89
23 56 81 75 41 40 45 33 38 40 38 39 42 56 33 23 8 2 12 23 22 21 20 12 47 15 -3 5 21 60 71 81 58 45 55 87 109 108 84 67 54 34 30 64
34 68 88 68 50 37 32 30 39 55 46 39 49 54 47 37 21 14 11 16 25 6 10 25 20 7 -2 -19 -32 -21 31 88 109 87 66 92 103 81 60 54 59 40 46 46
48 64 85 78 72 48 36 28 29 54 64 62 52 53 54 41 35 13 1 6 1 8 17 34 42 39 26 1 -23 -32 -22 -17 -5 20 51 60 60 44 34 26 37 56 36 29
78 35 41 40 60 65 55 39 35 49 55 48 49 35 37 53 37 32 26 17 12 14 41 58 71 65 51 24 -0 -7 -10 -16 -18 -12 -4 -5 -6 -0 45 56 31 21 7 44

GFSNW_con_3kmhel_069.txt.gz
Helicity
42 31 11 -27 -7 -44 63 15 37 97 53 15 67 69 34 105 114 120 129 120 124 91 93 90 87 102 69 98 99 85 59 60 107 73 59 51 61 52 64 74 63 65 80 93
32 27 11 -18 48 -1 59 3 33 87 92 19 69 83 66 99 60 67 50 26 62 95 94 49 87 75 72 88 65 24 22 55 89 86 57 78 53 55 60 53 48 42 57 72
25 28 12 -12 53 37 43 -1 0 39 43 42 78 96 88 110 104 105 77 57 53 66 85 71 57 79 65 104 69 71 49 58 56 47 44 42 46 58 64 57 33 36 44 87
15 28 8 -3 44 51 23 -16 -2 57 85 88 159 68 76 83 56 82 51 45 69 31 21 49 64 57 66 77 89 66 48 51 47 42 33 41 33 30 46 66 77 45 60 40
20 19 10 1 23 32 -17 -23 -5 33 100 122 61 71 79 70 63 48 91 49 50 42 39 55 49 47 38 40 80 61 69 25 32 33 42 35 50 31 31 44 40 54 52 110
17 18 10 2 0 23 -1 -19 2 28 60 67 41 55 128 57 69 76 73 51 21 71 63 49 57 55 44 23 43 73 46 24 22 20 36 39 49 34 52 41 37 43 65 81
18 23 10 3 2 17 32 1 -17 24 40 44 102 126 78 75 72 54 77 74 49 19 73 72 67 104 86 100 100 49 42 35 22 22 41 33 25 22 18 32 39 37 40 49
13 19 23 12 9 20 4 -8 -6 -17 33 50 91 137 91 43 45 45 62 68 26 11 6 43 66 66 48 76 91 96 43 34 38 32 34 39 21 8 8 6 55 0 -23 0
18 23 22 12 8 11 11 -5 1 22 23 19 65 103 128 55 51 30 23 28 6 -6 21 40 74 56 47 40 46 60 64 50 28 33 29 22 19 34 56 39 42 42 7 4
17 10 15 11 4 21 34 -5 -13 25 -36 19 30 50 61 62 30 13 24 43 40 13 18 21 39 42 20 31 25 29 43 36 31 31 30 37 9 24 24 37 34 44 16 46
17 11 21 22 2 -8 51 -6 -4 20 43 21 29 36 46 68 45 34 34 26 24 20 19 17 20 26 26 34 20 16 21 29 27 25 32 52 18 40 33 31 17 23 45 56
23 14 10 19 4 -10 64 12 6 -9 30 55 37 44 50 51 67 53 40 23 17 4 21 16 13 24 30 27 40 31 28 12 17 12 11 1 17 48 46 25 39 19 44 50
28 9 10 31 26 12 16 22 31 30 10 65 24 41 52 23 33 23 27 35 42 23 26 10 12 17 19 17 18 17 13 24 27 34 24 22 32 47 52 27 42 40 50 47
35 12 15 45 40 21 20 33 49 54 23 81 116 120 80 85 60 35 29 45 41 44 32 21 11 11 9 9 17 16 13 41 23 22 6 39 60 46 52 58 27 27 3 21
35 9 33 40 37 32 53 48 64 81 83 94 165 140 54 47 41 34 15 22 44 43 30 25 14 35 25 39 35 14 50 38 53 35 45 25 -6 -5 1 23 26 19 24 16
20 14 35 35 37 39 46 12 42 83 87 126 139 133 81 75 50 39 43 41 38 46 44 32 43 66 58 26 26 29 36 50 32 34 39 41 27 20 33 34 36 31 21 19
10 20 13 23 6 52 144 40 20 18 100 79 140 121 99 70 91 70 74 57 54 60 60 52 79 63 83 87 83 70 97 76 54 48 67 60 73 52 62 26 25 25 19 18
8 12 -14 -19 5 86 89 75 9 16 39 15 134 96 103 85 106 92 45 76 64 55 63 77 59 62 87 60 91 105 100 82 52 63 41 21 30 30 15 7 17 23 29 27
5 -10 30 71 48 22 51 24 22 49 33 65 91 113 92 74 85 86 76 66 47 64 81 84 61 76 71 100 85 66 68 64 58 42 22 34 45 41 34 33 32 41 40 27
-1 46 74 21 -5 61 29 -15 6 34 24 43 68 51 61 35 71 70 47 49 60 45 32 52 55 87 127 130 116 89 58 43 48 36 10 -3 -13 -27 -3 12 33 30 38 31
25 -7 7 16 30 12 19 40 58 31 36 22 39 40 44 30 44 63 42 51 45 12 20 5 18 45 84 93 74 61 40 27 27 25 28 5 -5 -18 -8 38 38 33 28 28
45 -3 -12 -4 -8 5 28 27 32 19 26 9 31 32 33 36 42 43 54 19 26 -6 39 15 24 64 87 71 55 48 34 32 40 32 40 43 45 38 30 39 45 36 28 28
24 -16 22 12 1 24 39 42 22 23 29 40 52 47 44 38 36 52 29 4 3 48 17 6 11 82 84 75 64 54 51 49 33 39 49 49 45 55 69 72 70 52 44 39
0 11 50 29 3 6 18 17 24 16 32 43 51 52 43 46 21 7 6 21 31 14 10 7 24 24 9 -19 -26 4 40 59 57 58 59 55 61 78 86 89 82 71 59 33
14 15 27 38 38 2 4 2 12 22 36 27 32 39 45 38 28 11 6 7 19 6 11 12 13 5 6 -2 -5 -19 -20 3 46 82 98 70 51 47 58 77 79 74 66 26
41 42 22 34 37 33 10 16 35 54 40 29 38 44 48 42 43 21 -1 7 15 9 8 31 35 21 18 8 2 -9 -18 -17 -16 -9 1 44 93 88 86 58 45 63 53 34
28 19 27 13 3 24 36 39 32 31 28 44 47 39 33 61 42 36 28 18 9 3 15 51 60 56 50 41 22 0 -7 -16 -31 -35 -30 -23 -20 -17 25 73 64 47 31 36

GFSNW_con_3kmhel_072.txt.gz
Helicity
50 21 5 6 30 65 18 7 20 57 60 -2 18 40 91 112 91 83 66 100 58 66 36 77 84 75 99 135 122 90 74 69 99 62 66 53 50 58 78 100 103 119 117 95
37 17 5 4 19 30 33 5 19 37 57 2 52 77 86 149 77 51 38 56 41 53 41 40 55 36 72 107 70 63 41 69 80 60 47 36 33 28 43 51 70 57 111 105
34 5 -1 6 19 41 32 5 4 9 15 16 34 52 77 70 83 88 76 65 83 62 52 56 37 21 45 62 51 58 44 64 79 66 56 44 46 27 29 51 63 67 86 68
34 5 0 10 16 48 26 1 -1 25 12 28 101 48 76 50 54 53 43 34 45 40 40 55 50 38 45 66 88 58 56 65 68 76 68 69 50 31 23 61 58 93 88 82
28 19 4 7 22 12 1 0 -6 2 35 46 73 80 59 74 35 47 46 32 52 38 26 40 31 29 41 36 34 37 50 31 17 24 30 27 38 33 22 21 29 29 69 98
29 16 16 7 15 -13 -4 -3 21 7 1 22 26 71 94 74 60 38 48 35 11 46 52 55 69 48 35 25 38 43 42 16 33 42 48 44 39 42 34 43 56 49 52 68
39 11 19 15 14 2 -4 -2 1 -10 -8 28 26 58 81 113 73 41 49 44 28 22 72 59 42 56 51 62 69 52 26 36 44 31 39 46 46 47 34 29 37 23 42 58
44 25 14 4 4 17 -9 1 8 16 -30 46 30 66 35 36 38 45 65 74 45 41 26 39 36 35 30 55 79 72 44 30 33 39 38 50 35 30 34 39 65 26 -3 28
50 32 3 10 1 13 8 -4 -17 26 44 17 49 70 90 28 48 31 34 33 17 1 28 52 63 47 36 34 35 46 44 45 53 52 49 39 38 45 47 42 45 43 10 30
53 37 18 15 11 7 14 -4 6 9 45 30 33 37 55 87 42 33 36 43 25 9 25 44 73 55 35 35 40 42 52 48 40 39 43 35 16 39 49 43 38 40 6 35
44 29 25 19 12 17 10 1 7 -1 54 103 45 28 37 44 39 27 38 30 6 12 13 18 24 28 28 30 32 32 30 37 40 37 35 35 25 44 33 58 43 42 14 27
43 31 20 28 41 28 44 -7 17 19 31 110 76 69 17 28 46 33 51 43 30 27 19 14 13 25 29 38 47 24 34 29 42 15 39 34 26 59 46 34 48 38 29 31
28 31 20 17 49 39 53 18 11 2 15 96 25 54 83 26 14 9 26 29 42 30 30 17 22 21 22 34 31 26 13 16 30 37 26 22 19 52 46 40 35 37 36 45
24 32 32 28 30 37 46 52 35 11 -7 36 85 99 101 62 36 42 29 56 54 41 25 21 20 17 5 15 26 17 37 23 24 24 13 18 42 84 78 49 51 44 38 20
21 26 19 12 27 29 60 76 81 49 34 48 124 144 101 45 50 37 29 -2 27 33 28 20 23 29 10 24 25 10 50 27 34 34 57 74 68 49 17 13 39 45 33 26
8 10 14 8 3 21 30 52 36 34 75 66 99 78 113 82 71 38 19 27 23 45 43 38 36 48 22 11 24 35 37 47 48 52 53 50 49 21 65 42 43 47 40 28
11 1 5 10 17 34 86 55 72 7 59 63 128 142 88 69 75 47 39 37 45 47 63 52 50 38 65 66 58 57 59 79 81 67 59 49 90 102 94 60 43 36 32 28
3 -6 16 12 48 67 57 71 33 32 58 38 142 128 94 107 76 90 85 58 73 60 62 66 55 51 45 36 50 82 89 87 72 70 78 67 43 38 51 59 39 29 33 41
13 -9 37 100 72 25 4 30 58 24 27 85 114 148 97 101 87 129 100 79 24 74 55 76 73 79 80 78 50 47 74 67 75 72 56 51 46 53 58 51 44 29 30 51
15 33 33 29 54 32 49 7 -4 29 14 7 84 54 74 56 76 106 86 67 68 51 50 66 72 86 136 123 125 112 79 68 54 40 55 50 44 32 26 22 13 13 33 37
47 54 24 3 -8 34 23 1 15 14 33 12 50 48 64 37 76 78 76 73 51 30 35 31 15 26 82 66 67 72 58 54 33 24 21 23 23 26 18 24 5 -4 14 28
32 59 -7 -30 -11 -3 17 24 12 5 24 9 54 41 36 59 43 51 65 33 40 0 43 8 -3 36 58 53 56 52 45 39 38 30 29 29 36 41 38 27 31 41 39 25
25 64 -42 -24 -20 5 22 19 2 11 7 15 26 43 44 40 41 53 52 28 6 42 12 0 24 49 39 43 41 42 50 46 49 47 47 53 60 58 62 60 70 76 69 50
-39 -38 -34 -14 -14 -16 -1 -13 -11 12 1 42 49 37 48 43 39 38 11 32 27 8 7 12 23 5 9 -17 -24 -22 -13 4 21 39 55 70 73 67 66 71 74 80 66 58
-29 -15 -38 -24 13 -19 -18 -15 -9 -8 25 35 39 52 55 55 46 34 18 -3 0 2 14 11 23 11 5 -4 -16 -21 -24 -28 -16 4 34 72 77 66 59 52 56 60 59 60
-5 6 -1 -13 -17 -8 -15 -29 3 10 69 13 -1 33 36 36 49 30 9 8 14 21 1 20 41 27 15 11 7 3 -6 -15 -15 -6 -2 4 17 43 72 89 102 88 65 63
-5 -10 -17 -16 -10 -36 -41 9 22 29 20 18 23 29 51 53 40 31 22 16 7 -3 -4 43 36 29 36 39 30 13 8 8 -3 -13 -13 -20 -17 -1 23 56 73 53 86 59

GFSNW_con_3kmhel_075.txt.gz
Helicity
34 31 14 3 1 73 17 27 4 16 21 8 -2 38 46 79 108 60 88 92 57 8 63 93 86 80 79 100 102 54 39 34 78 71 76 92 122 45 99 180 184 183 182 109
38 25 16 9 2 34 37 4 19 9 21 7 12 29 44 45 48 27 27 6 41 27 39 68 46 53 65 58 58 45 43 26 66 63 40 35 54 35 57 59 75 104 143 102
30 23 13 21 14 29 7 4 2 11 10 5 7 55 59 60 11 32 57 65 64 34 19 37 13 20 44 54 40 67 51 66 76 56 63 36 28 1 20 50 82 84 125 70
27 26 14 16 45 21 -14 21 14 19 15 10 60 41 60 85 28 49 43 20 42 47 41 38 42 27 8 23 43 33 54 65 64 64 54 56 46 35 15 46 69 144 88 71
24 29 26 7 36 22 9 13 10 8 30 35 34 62 40 85 72 42 31 47 55 46 23 50 35 24 44 42 34 43 55 48 46 53 53 58 62 56 30 16 39 89 121 102
32 26 31 10 17 7 -4 6 12 8 -0 -5 19 32 63 49 125 17 32 39 34 32 59 56 68 46 35 38 44 29 41 23 29 43 29 29 33 17 17 30 48 43 62 78
46 30 27 6 10 8 -19 -6 6 14 3 -16 15 32 55 91 89 56 37 42 24 19 44 51 18 30 33 40 40 46 28 31 44 46 47 64 44 37 31 41 41 33 77 80
36 37 23 5 -2 21 -10 -23 -22 22 40 29 34 48 24 48 71 53 49 53 46 31 30 19 25 19 10 23 53 50 50 34 28 34 18 28 26 30 36 37 52 26 42 59
55 39 33 6 7 11 -1 -2 -24 -11 47 25 37 46 51 8 35 36 34 27 30 20 31 36 45 47 42 24 20 28 32 40 41 44 44 35 45 43 42 47 50 54 49 52
65 51 32 11 -3 12 14 12 -5 -21 19 29 38 17 30 57 38 31 24 49 29 12 28 38 56 51 33 30 38 31 28 31 39 43 59 34 35 40 58 49 51 46 38 32
66 60 38 20 -2 11 27 16 31 -13 -6 101 11 27 27 46 46 36 45 41 9 13 18 23 39 44 29 24 31 34 38 42 46 48 36 30 28 36 66 67 45 39 37 15
49 34 40 31 10 15 37 23 65 41 13 87 90 101 42 19 14 42 33 34 37 34 20 13 17 22 21 39 33 19 36 46 56 39 49 37 48 72 56 52 41 41 44 27
76 57 49 34 37 32 33 28 40 33 -11 50 16 47 67 33 -4 1 37 28 49 38 41 23 22 24 31 39 35 39 18 22 35 46 25 29 26 38 56 57 53 39 39 42
71 68 38 33 29 27 30 42 39 55 7 -11 37 36 111 106 75 31 26 33 59 51 22 14 14 21 16 29 34 28 46 20 25 22 19 23 15 66 89 59 46 53 44 40
42 28 46 36 25 29 35 24 32 42 54 26 40 121 115 61 26 40 29 26 16 11 27 26 18 22 2 4 3 -2 29 12 20 54 93 77 76 84 73 56 49 46 59 46
41 19 27 16 31 43 65 40 33 4 39 22 32 66 109 76 69 41 35 44 51 60 40 23 35 38 28 10 11 16 29 19 41 60 70 73 72 50 54 55 43 37 40 41
38 27 28 22 38 81 130 98 73 59 63 10 56 86 80 79 93 90 69 47 35 37 38 35 35 25 42 41 44 17 25 51 90 99 86 48 83 81 96 93 73 58 42 30
24 8 17 21 36 71 72 55 78 36 39 26 83 132 107 59 98 87 62 45 47 16 65 55 47 52 48 6 28 31 92 89 76 84 106 106 94 65 55 66 68 59 45 33
10 -41 4 69 69 56 48 39 17 44 26 41 68 120 117 78 97 98 95 80 88 80 59 43 30 47 52 51 21 26 53 81 101 82 78 84 64 59 60 47 42 43 35 37
-13 39 101 100 47 11 58 74 10 -4 12 9 30 44 46 84 76 80 110 102 86 49 44 68 48 87 95 138 139 136 98 92 87 70 52 62 60 63 62 48 39 31 29 26
31 -9 79 82 46 28 55 25 -7 -8 13 34 45 87 42 59 30 90 119 96 76 65 54 78 65 50 81 76 82 88 81 66 61 60 45 31 30 43 44 43 27 18 11 -6
29 -28 37 -12 -36 -36 24 32 16 -6 10 4 35 25 4 50 67 92 82 90 77 44 70 60 38 60 52 43 57 63 63 57 55 54 58 49 42 34 43 48 45 36 22 15
35 -38 -64 -53 -51 -25 -20 -12 -13 -11 -20 -5 9 29 20 26 50 67 57 45 19 79 55 46 51 60 34 35 42 49 58 64 60 56 53 55 56 55 49 50 53 49 57 72
-13 -35 -22 -30 -47 -18 -5 -56 -42 -34 -14 -5 2 16 35 58 64 55 39 58 71 26 7 2 39 34 16 4 -15 -21 -13 -1 13 25 31 46 55 56 57 59 61 67 66 71
-17 -27 -19 -23 -13 -29 -72 -98 -75 -47 -6 36 28 25 33 49 49 55 46 24 -1 -7 19 18 44 30 12 2 -9 -23 -34 -38 -36 -25 -12 -4 9 23 31 46 54 58 64 65
-6 -6 2 -23 -28 -38 -68 -82 -68 -45 11 54 11 27 51 53 69 48 42 30 2 9 1 9 55 33 18 14 1 -6 -9 -14 -16 -13 -18 -6 13 29 34 29 34 51 50 58
-8 -18 -27 -22 -10 -22 -26 -29 -35 -16 5 50 27 14 42 42 46 51 47 40 24 -0 -0 38 48 39 38 32 23 17 12 11 14 13 10 -9 -24 -33 -19 26 23 34 35 35

GFSNW_con_3kmhel_078.txt.gz
Helicity
29 17 16 11 1 -10 27 34 -3 36 85 12 -39 -14 27 22 70 108 94 90 33 67 84 66 33 2 28 58 79 13 32 175 191 127 92 95 136 144 205 104 69 120 91 98
26 22 20 15 10 4 48 31 10 15 -1 10 12 19 15 14 28 68 45 26 40 81 62 40 20 13 38 37 12 17 25 67 120 105 143 205 156 128 96 130 132 101 170 92
20 22 16 16 31 8 31 33 11 21 1 9 19 28 50 59 -6 18 54 55 31 47 9 24 15 25 25 45 46 86 73 32 38 58 56 78 118 59 89 104 105 98 105 95
29 28 21 15 35 -0 -13 20 26 20 7 15 63 44 44 63 56 53 34 18 40 56 40 23 10 -0 -13 -0 34 35 38 35 46 64 65 63 78 44 40 65 86 101 69 46
35 38 30 21 22 5 19 5 17 22 18 22 12 57 43 43 50 35 37 63 42 32 21 57 44 40 42 20 44 35 68 29 21 48 48 52 65 69 51 56 76 128 190 145
28 33 39 34 22 -0 4 32 -4 1 -0 20 6 13 63 45 109 29 14 31 31 35 35 59 67 25 16 21 49 34 62 32 54 48 43 42 52 28 46 69 82 69 84 75
50 55 44 44 37 25 16 12 -11 -13 17 24 11 10 44 58 80 49 44 46 25 13 44 44 14 19 15 31 31 50 40 41 58 46 49 72 36 54 60 55 57 59 145 137
69 59 54 52 45 36 -2 19 -7 -15 21 42 34 25 30 50 51 56 25 39 35 33 42 37 47 30 22 15 47 67 77 41 41 52 41 29 24 26 36 49 32 19 62 74
98 70 54 56 46 38 3 37 16 -17 -14 15 35 39 19 18 22 42 28 13 32 21 15 25 30 42 43 38 31 29 41 62 47 46 50 28 37 32 43 37 54 57 67 91
98 77 57 48 46 28 6 12 55 -2 -15 -10 35 25 17 18 35 17 26 51 35 11 28 26 36 41 24 35 37 43 40 54 52 39 57 29 24 37 47 50 52 69 69 45
109 77 48 40 54 35 44 18 56 33 7 83 2 -0 27 36 26 36 57 45 29 29 26 25 28 45 34 24 27 37 34 38 43 52 35 28 21 46 53 59 72 46 39 27
114 76 47 40 43 51 36 34 56 77 76 63 36 69 45 24 -3 24 36 42 32 38 28 28 16 28 19 35 28 18 32 26 33 24 26 20 63 68 63 54 41 44 45 48
113 78 61 66 39 28 41 38 43 60 38 5 9 35 24 -21 4 -43 41 33 58 51 39 13 10 18 25 48 38 42 17 22 25 37 12 15 17 57 63 64 52 43 45 46
80 64 51 54 45 34 32 60 66 73 29 -4 50 57 50 44 58 46 -35 19 40 31 39 13 9 13 14 31 20 18 22 21 25 21 20 55 57 86 89 65 65 63 59 47
62 47 48 46 35 37 62 90 117 102 88 35 10 82 80 71 25 44 40 7 -2 29 31 20 17 19 22 6 6 21 26 14 21 36 86 87 123 66 80 76 63 61 61 64
46 43 55 58 27 33 89 62 102 63 57 -11 45 67 128 95 56 54 45 56 63 54 33 23 16 23 27 10 3 3 28 44 31 64 71 90 94 73 84 62 57 50 51 53
39 33 40 59 33 81 140 121 159 53 83 36 39 105 111 81 70 80 83 77 58 49 48 31 31 21 25 40 57 73 46 41 99 100 100 80 110 78 83 69 72 80 57 38
35 38 26 51 65 64 82 88 50 92 76 40 43 109 107 22 75 86 79 69 56 41 40 40 32 45 53 20 29 45 74 140 120 108 132 115 86 79 87 78 61 75 77 63
28 28 43 97 118 89 79 58 70 51 43 15 36 114 147 71 19 65 69 80 62 57 58 50 31 57 58 43 43 35 78 82 79 99 85 82 84 102 94 73 61 49 54 56
36 85 52 35 106 80 66 131 81 89 -0 43 105 111 118 66 44 61 97 69 65 48 50 74 65 80 105 170 163 166 168 126 96 92 90 95 80 85 77 73 70 44 25 23
63 101 88 104 96 80 50 69 59 -3 1 -6 38 51 58 49 70 86 53 71 89 57 44 66 48 44 78 86 106 113 116 104 96 92 68 53 55 59 63 62 61 48 29 12
97 97 110 24 -51 -64 1 21 9 -16 -20 -26 -9 6 16 37 30 71 101 84 76 46 77 66 46 45 62 74 78 100 109 105 93 77 66 67 61 61 52 47 47 46 24 9
76 72 43 35 -13 7 11 23 9 -34 -42 -48 -68 -32 3 2 63 35 44 38 55 92 57 47 48 69 76 70 63 65 63 67 67 68 66 62 58 57 56 50 48 47 44 44
97 85 24 19 22 -4 -3 -57 -91 -82 -54 -0 21 15 7 13 42 35 79 85 67 31 10 -2 61 49 71 49 10 -1 -4 -2 6 24 33 42 48 47 41 44 44 46 49 59
102 75 31 24 11 -37 -55 -82 -85 -91 -50 -39 49 25 9 20 45 52 64 22 2 -8 9 7 32 91 59 16 -5 -15 -27 -33 -27 -22 -14 -4 2 11 11 14 21 24 36 47
85 78 76 53 3 -53 -61 -66 -45 -79 -19 -25 -2 14 21 30 52 40 50 40 17 29 6 -0 45 43 30 14 1 -1 -0 1 -6 -12 -19 -20 -18 -21 -18 2 2 5 15 31
68 54 53 51 2 -27 -48 -49 -33 -20 -37 -25 26 33 29 34 49 48 51 58 44 21 -7 21 59 48 45 35 24 21 24 24 20 6 -0 -8 -12 -11 5 1 1 9 -0 4

GFSNW_con_3kmhel_081.txt.gz
Helicity
26 25 18 16 10 -3 65 56 62 38 27 26 10 15 -8 -18 27 83 87 158 185 150 74 17 16 19 49 45 78 103 85 133 306 120 95 105 124 132 149 144 104 95 58 59
29 26 21 18 18 11 82 37 57 22 16 23 35 34 17 -6 10 34 51 52 89 157 50 15 11 7 54 46 79 123 110 150 151 82 73 122 97 127 156 170 183 92 69 34
42 34 30 34 38 3 77 46 40 25 1 12 21 57 50 74 42 30 66 19 16 59 32 12 4 -1 13 77 33 12 107 158 99 -2 -18 100 74 78 134 141 108 84 44 77
50 44 38 29 34 -2 42 35 46 47 7 20 42 20 44 46 62 42 36 21 49 25 30 15 27 42 30 45 61 49 16 49 72 128 87 85 83 125 158 175 117 84 60 98
43 46 33 21 23 -9 -4 13 35 39 29 28 14 38 57 47 41 13 49 29 70 19 13 28 27 39 28 12 61 38 40 17 24 74 70 102 99 55 55 74 108 145 122 120
38 53 46 33 30 24 21 12 29 40 11 24 20 21 30 62 60 40 68 24 23 24 28 36 65 51 13 6 12 46 43 15 40 64 39 67 87 59 56 80 54 63 97 76
56 64 60 53 38 40 28 31 37 22 25 13 24 23 21 41 89 40 64 45 14 6 41 21 3 5 17 23 66 33 40 40 49 46 55 65 48 54 45 49 65 85 122 133
73 59 66 69 52 39 62 40 51 19 20 5 17 53 23 28 10 57 20 22 30 58 31 28 33 32 40 24 33 64 60 38 39 41 52 49 40 23 38 48 34 86 114 129
109 71 67 61 52 43 70 39 45 40 16 1 2 31 36 16 17 13 40 29 53 29 20 33 32 32 34 35 32 56 70 44 36 55 42 49 28 28 46 42 34 23 87 89
109 75 60 40 45 41 70 63 61 64 35 -18 6 -15 31 25 11 32 41 62 49 22 34 39 35 41 35 52 56 47 43 50 43 50 35 38 22 27 48 41 25 69 89 67
117 91 52 32 38 42 78 79 74 76 89 24 -39 -17 3 41 33 26 43 45 22 39 43 36 28 43 34 39 37 48 41 50 42 31 37 38 16 44 35 31 69 69 55 34
110 84 50 32 34 43 75 99 81 99 113 123 8 12 8 6 88 49 32 37 42 26 36 33 21 34 40 31 39 33 42 20 22 20 23 5 24 28 36 35 55 50 45 47
97 63 54 36 43 30 76 108 88 118 104 52 41 2 15 12 12 20 51 54 65 62 48 20 14 17 20 40 31 29 32 13 28 35 21 8 30 41 47 51 49 49 52 46
98 59 45 37 44 41 47 111 118 161 168 103 88 -5 157 22 14 27 14 14 77 60 58 22 14 13 20 23 21 18 16 33 27 28 39 92 66 54 53 60 60 63 59 56
93 56 45 39 46 50 60 106 106 110 154 116 130 110 51 -24 40 51 67 7 10 18 48 32 15 10 24 23 27 38 16 3 19 25 28 34 50 53 59 65 55 56 58 59
86 61 45 46 43 52 139 130 93 125 107 95 139 77 100 77 42 53 87 70 61 50 31 24 16 11 19 22 29 16 13 27 19 21 57 80 71 75 65 55 56 52 50 45
72 44 42 40 33 109 167 165 155 127 74 130 71 94 79 82 49 74 89 81 74 52 33 14 16 20 28 22 74 52 62 79 92 66 68 88 98 75 82 75 71 63 67 81
66 41 35 32 54 89 103 109 80 130 130 97 26 85 109 38 41 52 55 80 69 47 57 48 37 40 44 28 38 34 43 96 114 112 116 111 112 101 93 87 84 86 77 81
62 39 69 139 119 113 135 65 99 81 103 35 19 109 143 -27 37 34 33 62 68 56 51 53 42 33 37 21 25 53 60 65 79 96 93 92 121 123 95 71 79 74 75 72
72 128 159 145 163 93 54 48 46 37 -10 -16 61 14 74 45 4 22 60 70 79 48 32 52 58 68 89 118 115 110 112 109 114 100 95 112 113 113 87 77 80 78 75 63
120 152 153 135 74 54 29 25 20 22 -45 -50 -30 -5 69 51 27 12 44 50 79 55 42 57 43 68 58 61 76 87 89 92 98 103 97 98 92 84 82 81 77 57 58 49
135 124 112 74 52 39 36 28 25 18 -34 -52 -39 -17 28 45 15 20 56 56 63 94 70 57 36 39 59 74 87 85 90 109 131 127 106 92 85 79 70 62 60 58 49 43
94 112 94 80 65 82 49 36 24 14 -17 -40 -40 36 23 9 12 45 19 29 69 54 32 43 42 48 63 66 69 76 70 69 71 85 87 88 80 74 65 60 58 54 50 52
172 147 138 171 133 74 50 16 -6 -46 -50 -27 -20 56 10 9 21 31 43 77 61 29 25 28 40 61 70 59 49 23 12 8 6 10 13 21 26 25 20 27 34 42 48 52
158 126 130 147 91 81 48 -11 -40 -60 -57 -35 6 15 2 20 26 47 30 41 32 20 27 20 11 66 78 60 40 8 -11 -22 -29 -22 -17 -12 -13 -10 -12 -8 -6 -1 9 24
144 107 124 100 105 68 74 -4 -54 -64 -35 -24 -66 -12 5 24 37 40 47 53 41 40 17 8 23 52 42 38 26 23 19 14 6 -3 -6 -4 2 -3 -6 7 9 12 3 9
165 88 46 76 72 68 55 11 -53 -29 -44 -34 -10 10 29 31 44 49 57 69 47 28 7 -11 15 60 50 39 25 22 23 25 26 14 1 -8 -7 11 17 27 27 29 25 19

GFSNW_con_3kmhel_084.txt.gz
Helicity
4 25 21 21 2 -5 75 44 70 39 44 26 18 14 12 -11 24 47 39 85 118 90 47 26 82 109 126 164 23 59 93 109 119 90 86 74 84 17 168 89 86 88 74 84
5 23 24 21 18 7 93 47 42 43 37 30 48 13 24 -15 19 45 22 3 33 46 1 8 19 48 51 214 41 13 2 226 295 190 113 105 78 131 131 109 135 77 69 51
-9 16 15 4 9 -5 75 60 61 45 18 12 24 45 36 52 24 15 57 12 9 23 16 15 10 47 48 31 74 67 2 171 98 100 30 134 140 122 148 130 90 90 82 76
8 22 24 5 17 -6 52 34 47 49 26 37 40 15 35 51 44 34 84 35 77 34 24 13 12 51 52 37 29 91 79 73 92 98 37 93 99 63 89 135 118 93 68 45
38 49 34 1 14 8 6 26 33 33 23 24 8 24 32 64 40 26 32 60 126 34 15 10 19 25 26 26 59 27 62 26 80 79 72 61 104 101 139 154 158 122 93 9
65 77 67 45 32 30 30 10 27 24 12 24 11 16 19 53 113 40 34 63 76 25 23 27 62 63 83 58 24 46 31 20 70 114 121 121 51 -2 33 71 97 92 46 68
82 101 86 59 55 55 53 37 44 30 7 22 27 22 40 21 78 47 74 87 17 16 51 52 2 -3 11 24 28 21 24 21 28 45 62 59 70 68 36 42 45 61 53 56
98 111 103 78 60 53 67 35 49 49 12 24 21 9 15 25 21 45 31 28 30 84 35 26 26 30 47 24 36 53 35 15 33 33 43 62 50 44 58 75 18 57 72 116
106 113 110 79 53 43 80 54 69 68 39 15 38 15 8 24 23 43 27 43 82 30 30 27 30 40 42 42 34 44 37 40 29 48 51 62 43 39 39 65 53 51 108 108
107 111 111 92 55 48 78 50 62 61 67 44 53 23 -25 -9 6 32 62 64 60 34 35 36 29 30 38 51 52 51 45 55 46 52 43 34 36 42 54 49 29 53 88 70
125 123 102 88 51 38 90 67 51 80 100 69 46 16 39 -5 18 31 26 60 16 39 42 38 28 34 37 40 44 50 51 49 48 41 48 47 21 53 32 25 50 58 76 64
127 111 97 79 67 59 106 97 60 71 161 197 157 5 26 -1 32 55 15 41 67 49 42 40 26 35 40 32 48 46 57 42 53 35 39 20 34 36 53 37 50 66 56 50
115 110 112 88 56 61 77 112 112 92 130 129 12 11 -22 -5 -3 12 41 38 47 48 66 36 25 25 20 46 35 40 39 22 41 51 41 37 49 53 59 62 55 49 60 60
116 114 114 90 66 68 84 134 122 133 128 103 73 60 79 21 51 13 56 67 31 67 113 40 29 23 16 29 32 29 21 39 35 42 48 46 42 42 39 59 68 67 64 54
125 119 114 92 72 51 83 122 78 73 86 157 167 85 34 32 2 32 84 95 8 -1 71 51 33 16 21 24 38 53 27 21 28 23 19 28 30 47 51 56 54 55 50 45
112 113 97 85 77 78 93 118 107 124 114 149 74 77 31 55 45 37 57 91 61 40 46 37 36 17 19 30 41 34 23 17 24 14 29 39 61 71 61 55 53 50 48 48
91 86 75 72 78 132 135 164 147 128 115 91 55 4 19 51 54 49 66 65 73 63 53 24 26 26 15 18 58 45 50 39 58 70 75 64 53 52 72 69 65 59 54 60
69 66 72 101 112 122 127 107 40 92 68 14 24 6 28 27 61 44 27 64 79 66 64 39 41 53 39 33 39 42 48 69 98 109 81 63 93 96 95 93 78 70 69 78
60 72 138 143 108 66 90 -0 -10 6 9 22 47 70 25 32 48 14 -1 44 75 53 59 59 45 42 22 19 17 37 50 42 33 68 87 104 105 105 97 88 87 72 76 88
92 104 125 156 97 51 6 19 11 14 23 17 31 60 87 66 56 16 17 20 67 74 48 51 40 46 60 77 89 89 90 91 73 70 79 78 81 101 87 82 78 74 68 68
59 88 119 125 40 56 44 92 42 34 10 45 50 58 72 86 49 17 31 23 56 59 49 50 40 39 44 64 66 66 77 82 100 105 108 109 102 97 90 82 80 76 74 64
64 107 135 87 100 79 114 124 76 46 31 36 45 31 18 11 12 32 4 39 37 52 70 55 38 25 39 50 72 89 93 97 111 124 121 120 109 101 87 77 74 68 59 53
66 82 118 137 108 142 219 203 132 44 15 37 59 21 13 8 10 23 11 26 27 42 52 64 32 25 49 64 71 75 70 70 68 72 73 76 82 82 81 72 65 61 60 63
77 100 138 160 158 169 200 160 72 24 24 25 13 40 4 21 25 36 33 45 48 30 34 27 33 27 58 66 51 55 35 16 5 2 11 18 19 15 12 17 15 20 37 39
92 120 131 177 156 128 109 54 55 67 27 9 13 29 -0 23 34 27 55 34 32 26 38 39 29 27 59 65 60 40 -0 -3 2 3 4 2 -4 -3 -4 4 5 13 14 15
134 141 168 160 210 161 124 72 56 45 37 -6 -25 10 -0 6 44 37 52 52 35 44 33 9 -1 12 55 68 63 52 33 24 23 24 17 10 7 6 3 14 34 38 32 41
152 141 113 129 169 129 80 60 61 32 31 -8 2 21 25 21 34 46 74 96 83 73 48 17 6 31 77 54 38 43 37 40 38 36 31 -8 -32 -20 21 40 33 31 26 25

GFSNW_con_3kmhel_087.txt.gz
Helicity
-26 -12 8 -7 -34 -20 73 98 145 54 42 47 23 13 5 19 3 6 41 57 69 68 70 99 149 218 174 39 9 -31 -81 74 153 90 85 60 125 -39 -53 126 140 65 33 70
-23 -12 -6 1 5 13 80 115 85 49 51 79 31 10 16 8 9 25 22 -7 -0 43 35 43 49 53 125 77 8 47 9 58 171 150 98 107 92 51 73 102 20 38 10 63
-2 2 5 13 15 18 84 109 180 59 45 23 19 9 1 43 41 16 24 -10 11 38 -19 -1 16 20 86 165 60 70 85 34 62 98 58 142 149 159 76 142 41 1 20 58
14 18 12 21 30 12 71 86 142 65 65 43 28 1 -12 21 47 26 42 13 62 32 13 6 -9 29 43 95 130 -16 10 98 49 84 42 109 117 48 140 114 46 -15 8 -0
20 35 28 35 31 15 46 131 120 42 35 40 24 -6 -11 -3 43 21 42 52 85 46 14 18 45 34 26 41 46 66 44 73 69 82 66 78 124 55 122 151 99 50 38 22
34 36 46 60 63 29 61 10 29 34 32 25 31 24 -4 5 48 32 -4 54 96 25 23 80 112 83 71 60 45 54 36 13 74 68 47 70 75 59 109 150 109 83 86 47
58 47 62 80 93 58 12 20 28 50 48 29 28 38 12 1 32 45 79 35 25 7 63 72 3 10 20 19 21 31 17 38 56 54 64 40 57 58 89 81 77 92 89 52
62 60 69 81 93 73 43 18 30 56 47 44 31 16 48 29 27 18 54 30 23 69 37 19 16 20 33 21 24 38 32 15 30 26 15 55 51 55 70 96 34 41 44 55
55 52 67 93 96 77 67 26 23 60 61 41 54 30 24 -15 25 29 24 43 83 16 17 21 17 23 29 37 41 34 27 26 15 27 22 44 36 50 57 70 20 44 76 81
43 39 66 105 109 86 81 49 39 61 84 53 84 36 7 -1 -10 24 39 73 56 35 40 30 27 27 19 38 38 44 47 43 26 41 36 42 28 40 52 61 39 41 56 75
31 23 63 103 123 108 86 61 76 73 76 101 89 92 52 45 18 37 44 53 33 34 42 33 24 25 23 26 23 30 44 43 45 43 49 55 26 35 39 37 40 33 62 55
18 27 67 96 124 143 87 73 91 136 122 117 138 45 57 -1 2 42 51 38 54 54 42 31 22 22 25 26 37 29 38 30 41 35 42 31 46 47 53 42 52 59 45 34
12 38 80 97 124 133 116 85 104 119 114 101 42 39 54 35 10 36 22 24 34 48 47 38 21 17 7 31 29 37 32 18 38 48 43 37 42 56 66 68 50 45 50 62
22 54 75 92 109 112 113 90 132 149 167 105 67 64 43 28 30 37 61 78 42 -3 25 38 15 12 1 9 20 21 16 34 29 36 27 28 35 38 32 45 51 59 65 54
30 56 67 88 100 107 116 106 113 115 140 145 169 33 24 24 3 35 59 72 86 60 60 36 21 13 10 7 23 42 21 21 31 35 20 34 24 39 47 53 53 52 44 41
35 54 54 79 89 118 90 117 83 64 125 63 20 54 48 58 27 16 50 66 67 68 61 47 30 9 7 15 23 24 33 31 19 28 28 37 44 57 53 50 45 46 50 51
38 29 49 74 103 98 107 137 59 37 54 23 2 14 72 70 7 19 32 49 57 74 50 34 23 24 17 13 29 40 39 41 55 69 43 47 38 37 64 57 53 52 54 57
34 20 68 114 118 98 78 39 13 35 29 11 -5 4 16 44 14 37 23 36 52 63 60 29 25 31 15 16 23 36 48 53 75 84 69 40 56 87 88 77 68 56 52 54
33 41 113 104 88 98 80 6 29 29 31 14 57 82 23 48 21 6 13 29 39 56 51 48 36 23 24 17 22 27 35 41 29 53 64 75 78 81 78 62 59 57 52 59
68 46 66 77 87 44 24 66 89 79 54 33 67 86 96 77 52 26 29 20 25 39 44 54 39 44 51 42 38 66 81 78 60 57 54 69 79 83 63 60 64 60 49 48
38 64 73 70 66 94 87 118 156 147 171 58 55 87 104 81 44 43 35 19 16 20 37 69 58 33 54 53 83 95 88 94 104 97 99 101 95 84 74 83 75 63 55 46
43 65 77 86 100 95 117 130 159 201 213 68 54 72 72 44 23 39 32 29 31 17 45 69 58 38 41 42 55 77 84 85 95 98 102 113 117 107 99 97 89 78 63 59
44 66 87 98 79 128 159 177 175 236 160 95 48 23 50 23 18 24 38 28 46 42 25 37 44 59 33 53 66 75 69 66 68 68 64 63 69 81 86 83 74 68 61 56
71 87 105 103 103 142 178 188 196 126 113 95 44 47 42 42 38 43 52 63 69 50 37 41 59 31 23 40 57 58 61 51 28 8 -2 -3 2 13 22 31 21 18 22 19
81 94 83 105 143 170 169 166 147 96 81 64 55 42 25 29 38 51 55 70 74 47 57 63 50 46 29 44 55 57 43 28 23 3 9 15 16 21 23 27 22 25 25 27
97 103 134 125 178 179 196 174 147 88 66 66 67 8 6 2 30 43 58 74 112 83 34 24 22 18 20 56 62 74 69 50 30 23 25 27 28 20 16 36 54 53 40 32
114 99 87 128 152 155 159 153 121 56 65 96 72 30 -4 2 16 44 74 111 115 142 87 48 21 19 31 78 86 68 72 69 47 34 32 38 22 12 3 -3 1 15 17 9

GFSNW_con_3kmhel_090.txt.gz
Helicity
-12 -8 -13 -22 -31 -14 76 119 159 57 60 86 32 31 8 10 14 4 -10 35 20 49 85 110 170 188 131 75 130 36 23 83 97 100 92 53 2 -29 124 177 183 195 146 148
-0 -1 -8 -9 -21 18 85 112 110 43 61 158 60 13 13 3 -5 29 13 -9 -10 2 45 30 82 60 85 87 84 49 17 60 117 115 166 163 73 46 61 151 198 156 164 138
12 5 -1 -24 -23 31 84 106 99 81 50 24 46 29 10 -2 27 22 11 -12 4 23 13 20 34 36 99 156 29 -50 -16 16 60 94 67 153 157 14 31 98 39 65 118 205
17 7 -5 -28 -18 27 72 84 66 81 125 83 50 31 5 -8 -22 22 29 9 29 22 -9 23 21 51 49 118 105 -1 -6 -75 -29 106 73 131 104 -2 -7 44 28 44 58 38
28 14 -6 -28 -12 17 81 69 97 86 73 42 38 29 12 4 12 12 30 26 63 36 -10 1 43 61 50 50 95 116 31 32 -5 127 97 109 125 59 72 33 69 94 102 71
30 19 2 -12 -12 39 62 55 42 88 72 81 77 36 29 9 -1 -18 11 37 49 19 2 83 146 94 82 61 60 62 22 47 46 84 72 69 107 104 84 111 152 33 106 55
21 10 9 11 20 48 39 49 80 100 146 120 85 46 39 47 -17 40 82 50 2 6 49 73 -5 -1 41 39 33 57 35 24 24 50 53 70 26 77 100 126 63 105 105 64
16 -5 9 25 27 55 46 35 81 114 154 110 72 46 35 17 22 14 14 2 12 57 24 16 12 7 22 8 6 17 15 17 46 37 10 26 20 32 39 112 72 66 54 60
22 -7 -2 13 20 72 74 45 25 88 198 167 94 75 37 -42 -15 -12 16 61 62 4 10 12 18 14 17 30 42 14 16 8 10 45 46 66 54 50 50 61 71 63 89 58
25 5 -17 6 16 65 99 68 37 106 180 141 130 99 58 -9 -21 -6 50 86 59 33 41 17 21 14 4 27 29 28 28 32 12 24 21 37 32 58 50 80 80 64 60 86
26 13 -19 -0 27 68 104 91 65 121 174 111 119 109 40 21 -37 -24 77 64 43 47 49 39 22 17 12 21 11 20 26 33 33 29 31 31 38 38 40 44 59 35 66 73
28 11 -10 18 33 69 102 115 84 128 158 189 137 70 35 13 25 -17 18 74 61 48 50 45 24 22 17 14 33 16 30 17 28 24 23 19 32 37 41 40 44 64 63 56
32 19 -0 24 33 67 102 103 107 124 160 110 176 119 88 56 19 29 -25 44 50 41 27 43 20 17 3 20 14 16 13 8 24 39 28 28 22 30 42 58 49 44 49 44
34 27 6 24 31 65 119 100 79 77 112 137 60 62 25 31 31 -12 -4 55 43 3 27 30 11 8 -7 -1 3 11 1 24 24 28 24 22 22 24 27 48 55 60 62 53
37 34 20 31 46 130 124 94 64 41 111 128 37 -8 55 71 12 -7 -5 2 69 58 56 36 23 5 1 1 15 20 13 14 21 21 17 22 21 31 39 47 51 58 46 45
43 30 31 33 43 135 87 101 68 37 55 103 80 21 29 78 26 3 7 20 44 66 77 56 31 18 17 8 1 -1 14 24 21 26 27 33 45 55 54 52 53 50 50 52
34 25 26 41 44 77 82 108 95 45 52 92 105 65 67 70 32 14 14 33 48 55 67 70 52 42 32 28 36 18 29 34 35 45 27 37 30 35 70 75 72 63 53 54
36 40 58 95 110 108 91 69 40 51 84 61 141 94 74 46 39 21 35 29 38 57 69 69 58 49 27 18 6 20 34 43 48 59 59 42 53 74 79 76 75 79 69 58
56 82 107 78 60 60 71 38 61 60 110 194 172 150 114 41 43 41 41 45 23 37 52 56 63 53 32 11 7 29 39 38 35 52 61 59 66 74 83 84 85 60 53 63
102 64 55 44 33 54 84 62 79 100 110 123 187 50 66 81 52 55 48 39 32 29 18 46 57 40 51 75 65 56 55 69 60 35 38 46 60 72 74 70 57 43 49 54
54 55 58 56 46 86 67 68 85 95 139 134 126 98 102 64 40 50 51 46 37 19 11 28 27 43 46 42 53 67 79 91 84 82 79 79 81 76 69 69 67 60 63 59
47 72 89 74 80 76 80 69 88 103 128 163 151 148 116 39 45 36 36 38 37 28 51 17 35 30 33 42 41 58 64 70 82 84 79 82 85 86 78 76 76 75 75 75
90 76 74 60 52 100 84 88 100 127 121 132 145 145 95 36 33 24 32 49 53 69 66 30 17 29 24 25 36 47 62 68 71 74 64 53 45 34 34 29 35 44 53 53
66 65 81 84 82 72 82 118 127 97 123 137 146 138 136 93 39 31 63 41 42 48 64 51 45 58 45 13 36 46 52 63 55 42 22 8 -1 1 6 7 4 10 21 19
66 75 79 92 85 105 124 131 143 108 120 145 150 134 112 93 43 35 33 55 78 74 85 44 34 62 48 35 56 54 64 52 46 28 22 16 21 29 30 33 38 46 46 44
84 105 127 105 124 104 112 112 116 106 119 124 118 141 122 87 44 36 29 19 128 177 117 92 59 36 37 31 35 47 70 68 59 47 35 31 29 30 32 44 36 18 10 11
95 91 116 133 131 121 118 130 116 109 131 175 176 184 123 102 82 40 15 -20 44 72 173 152 108 63 31 17 59 81 92 85 79 69 52 40 30 34 33 13 -1 -0 11 20

GFSNW_con_3kmhel_093.txt.gz
Helicity
24 12 10 11 -7 -17 95 115 96 49 62 122 59 75 16 5 3 11 8 6 -27 17 80 95 118 177 145 67 89 -23 35 93 72 81 92 94 -32 39 174 153 129 141 107 198
20 6 5 5 -9 26 90 72 86 24 56 180 139 34 21 23 4 21 12 -18 1 8 42 43 64 73 79 39 64 47 19 74 68 72 152 34 -2 64 117 151 168 159 167 123
24 12 8 -2 -12 44 96 68 55 56 88 49 98 53 50 21 2 24 1 -19 -9 -7 12 48 51 26 73 37 7 -12 11 37 47 83 49 22 89 108 111 143 136 156 206 187
28 17 1 -17 -24 57 92 46 40 65 100 101 81 44 25 27 7 8 2 10 22 6 -4 22 33 68 78 61 36 -18 31 46 51 49 101 88 21 49 91 98 69 79 136 104
33 17 -1 -17 -40 73 81 46 69 74 93 58 92 77 58 26 21 14 5 22 47 20 -16 3 65 51 59 59 105 53 8 -38 -74 83 71 81 1 43 64 48 80 77 38 87
35 11 -5 -11 -24 41 30 27 59 96 76 110 141 111 48 16 7 14 24 25 22 24 -4 52 133 100 71 52 84 73 0 -4 58 92 79 95 127 49 70 80 101 80 111 54
34 6 -5 -5 6 40 35 35 71 83 73 142 126 93 74 46 27 37 23 28 9 5 31 71 12 41 42 47 55 57 38 15 21 65 61 82 70 61 50 74 42 59 42 23
33 -4 -8 -3 7 30 34 37 63 97 120 146 126 117 82 36 0 17 13 14 5 44 33 7 -4 -5 7 7 19 39 50 25 39 50 71 84 9 25 74 52 42 82 96 65
26 0 -7 -11 0 25 36 32 60 115 167 140 138 124 81 60 45 -7 11 18 54 7 11 8 13 6 1 11 12 8 -4 10 32 37 37 51 8 44 43 11 200 63 66 60
19 3 -7 -13 4 15 33 29 66 108 83 121 153 105 99 20 13 -10 11 23 50 44 44 26 21 12 4 18 18 19 22 11 23 49 33 25 21 38 26 68 76 87 60 100
22 1 -12 -11 -3 25 30 24 43 71 21 48 71 95 103 51 -3 -22 3 -7 4 56 49 39 19 15 12 16 9 13 20 25 15 12 29 36 25 32 55 50 58 49 65 92
29 -2 -1 -8 -9 25 42 28 24 41 -15 -4 65 88 93 73 13 -24 -30 -12 -2 43 37 37 22 14 12 10 24 12 23 13 28 22 26 22 23 26 44 41 34 48 50 63
43 4 19 13 3 17 34 26 29 13 6 -10 36 61 89 72 50 31 -21 -20 17 29 21 32 17 12 9 17 10 17 4 4 19 37 30 33 29 41 51 58 45 48 55 63
46 9 32 33 16 10 43 16 20 32 45 52 17 38 58 45 51 20 11 11 38 27 22 20 9 13 -3 3 0 9 -2 13 11 19 19 18 22 33 44 48 47 42 50 45
42 23 41 39 49 50 53 33 23 40 39 82 32 28 43 59 80 39 16 25 37 43 46 28 15 11 7 11 9 -3 0 10 19 14 18 19 15 26 32 42 44 56 47 53
32 38 42 41 61 46 7 33 28 31 42 107 81 71 46 56 43 54 27 29 51 48 60 61 46 21 15 10 7 -18 -10 3 14 22 23 22 31 46 48 50 60 65 63 60
30 41 46 26 43 21 4 47 51 36 35 83 68 80 74 65 52 62 47 30 30 36 51 62 67 61 55 19 63 11 10 20 27 33 26 33 24 30 65 76 73 72 67 64
50 57 69 43 93 49 12 47 66 46 70 74 74 74 115 57 63 56 62 58 25 23 32 54 51 70 70 22 15 10 18 28 52 68 61 45 47 60 70 79 77 83 79 64
77 96 66 35 50 22 3 61 73 41 67 73 71 79 91 99 94 54 60 71 62 42 33 40 60 66 59 33 25 28 31 23 28 52 60 60 62 67 76 79 90 79 68 64
104 95 74 4 42 19 43 47 43 49 49 63 69 95 87 136 116 103 49 71 70 64 35 47 35 59 62 44 39 51 63 61 48 49 52 52 56 58 73 83 84 83 79 59
93 114 105 64 34 30 42 68 54 45 65 58 68 98 97 109 150 134 51 69 57 62 18 48 52 31 51 49 44 52 56 63 81 84 85 94 97 86 84 89 91 85 86 74
55 85 83 62 42 68 101 83 45 58 61 70 76 67 108 88 105 120 68 54 61 61 42 53 13 16 15 36 25 30 43 48 58 72 76 85 96 98 98 90 88 86 79 80
53 96 66 42 45 98 84 79 48 52 52 42 62 52 92 89 91 119 92 75 74 51 66 56 68 22 26 23 25 30 26 38 48 59 64 62 52 42 33 21 15 17 24 26
117 105 149 129 136 65 95 71 70 44 71 54 55 58 98 112 129 122 163 62 54 100 98 79 79 66 71 51 28 29 34 50 60 65 59 45 29 23 31 35 36 49 56 45
97 93 147 153 92 117 101 87 95 62 71 73 73 80 117 114 142 137 131 108 110 120 115 68 64 62 44 39 37 32 49 62 57 55 51 45 33 28 28 36 46 43 44 43
86 114 141 107 127 110 111 101 91 74 88 80 80 71 93 109 138 194 188 234 134 -2 20 29 65 37 30 24 28 22 58 71 68 70 59 50 40 29 18 28 30 33 30 20
101 104 136 117 128 109 102 89 66 74 100 88 84 97 84 149 175 207 185 179 -6 -59 -4 30 10 -2 8 17 3 36 73 85 98 96 86 76 57 31 21 17 23 19 14 9

GFSNW_con_3kmhel_096.txt.gz
Helicity
21 8 19 26 39 67 114 130 87 45 47 106 70 152 38 -0 6 5 16 28 -14 9 39 63 95 118 67 52 30 14 38 74 75 62 63 87 166 73 109 169 95 91 121 147
33 17 18 18 28 69 125 110 93 34 33 69 112 72 47 11 10 12 8 14 -15 31 35 30 62 67 41 34 22 28 23 67 47 28 88 88 118 49 124 154 113 110 137 153
37 30 18 8 16 83 106 92 50 63 77 51 75 125 97 26 -4 12 5 9 -8 -3 26 26 43 48 57 33 20 14 5 60 42 36 95 76 75 76 112 127 154 119 100 205
41 41 25 15 16 73 81 55 63 49 59 87 97 104 70 42 2 8 8 28 6 -11 30 17 28 54 53 52 13 8 -8 69 41 15 188 161 120 73 66 110 131 135 84 170
51 58 37 21 15 66 72 40 68 84 91 96 93 104 120 70 15 4 12 -3 -15 -8 -19 9 55 38 68 95 60 38 10 27 12 25 119 175 96 95 88 98 68 51 44 119
67 68 47 26 16 32 44 47 61 59 75 119 128 130 117 82 3 27 16 -15 -4 -0 -4 38 90 81 63 48 74 65 19 6 80 89 41 24 79 48 33 59 32 21 5 73
76 78 51 31 32 40 39 36 55 53 49 104 127 138 97 65 28 6 -17 -3 1 11 49 57 16 17 30 45 81 71 10 8 48 124 71 134 112 106 54 33 24 24 49 37
89 84 49 27 36 39 33 37 38 45 17 92 100 108 105 30 5 19 -0 2 2 65 34 -5 -8 8 22 26 45 70 50 12 49 91 78 53 59 73 85 57 55 56 38 19
103 83 49 21 24 31 25 28 25 19 -3 31 61 76 81 114 69 53 -0 -9 -7 12 15 5 9 8 -3 3 14 22 26 67 56 67 84 76 28 22 29 58 94 98 68 44
105 84 45 19 12 10 6 15 2 -18 -25 -6 29 72 96 74 87 67 3 -17 -17 11 -11 2 20 12 -1 10 16 7 12 21 46 46 54 27 19 34 21 60 91 104 93 71
103 78 41 15 12 17 -14 -4 -7 -40 -63 -39 17 48 68 66 61 87 -6 -1 -18 -11 -16 -11 13 13 19 6 11 20 23 26 29 34 40 38 31 16 41 52 61 65 99 97
101 69 37 11 4 13 -14 -23 -33 -56 -72 -44 -3 33 45 51 35 37 5 -6 -7 -4 -11 7 12 13 13 20 18 8 13 32 37 30 42 32 32 34 45 37 46 47 47 61
91 58 35 19 4 11 -19 -21 -28 -15 -38 -32 -17 7 42 44 46 19 1 -2 -5 -1 7 8 19 9 12 22 19 16 6 7 23 43 37 35 31 39 44 45 43 63 64 63
82 50 44 25 13 16 -14 -15 -26 -25 15 -8 1 -21 -1 24 35 35 19 10 14 14 17 13 11 12 7 16 14 6 15 14 21 27 20 16 23 33 44 53 50 48 60 64
77 50 50 21 20 9 5 11 -0 -14 -20 12 8 5 26 22 53 42 44 45 24 13 12 12 3 17 11 17 20 -1 -1 18 24 37 42 32 32 29 22 28 43 35 30 48
72 68 54 39 45 34 -17 13 11 7 9 26 24 27 45 44 55 72 65 61 50 38 9 4 40 59 34 12 18 4 -9 -4 14 33 39 31 37 41 45 48 51 54 57 49
92 77 57 34 34 -36 -0 13 27 18 12 26 44 56 69 68 78 72 68 59 55 46 33 12 26 54 70 48 41 36 5 11 15 16 18 24 23 33 51 55 58 69 76 73
106 86 69 44 57 5 17 34 46 26 35 27 48 53 61 73 106 117 81 66 60 59 37 21 -2 40 66 42 53 39 25 22 21 47 47 44 51 45 50 55 54 61 72 75
127 122 96 91 58 -3 10 48 59 41 35 51 39 42 52 69 98 113 112 71 100 60 42 32 34 7 -14 52 76 60 57 43 34 32 40 42 45 47 53 63 77 74 78 80
163 141 141 143 99 31 44 33 34 51 50 43 43 24 43 51 70 98 127 94 108 93 51 22 27 23 52 14 -6 13 42 47 47 34 29 29 41 44 54 71 89 95 92 82
223 176 162 98 28 15 30 16 62 67 66 53 37 26 33 47 62 69 98 119 125 133 67 32 17 38 22 49 66 59 55 61 63 53 55 68 70 68 65 79 90 91 89 88
114 113 134 96 103 65 67 73 61 70 69 46 36 39 35 40 47 55 79 111 110 160 89 73 45 52 2 19 53 35 37 40 47 51 48 50 57 64 66 73 71 70 70 72
164 177 176 102 112 127 111 142 114 85 41 30 31 43 41 42 44 64 67 107 144 124 153 141 89 21 6 23 16 24 27 29 22 30 39 48 52 59 53 41 32 28 36 42
242 236 307 140 162 137 134 107 89 67 47 52 50 48 52 60 66 85 80 107 149 230 255 211 77 27 27 34 11 14 13 27 38 56 58 62 58 49 44 42 37 43 54 61
249 182 197 135 143 130 103 143 125 73 47 58 61 68 75 76 83 83 71 106 147 232 278 138 45 10 12 31 11 1 12 34 53 55 60 71 75 53 46 41 39 36 40 41
195 147 134 127 184 180 147 130 108 65 68 66 57 69 78 79 85 119 103 179 221 268 179 39 6 34 34 37 1 -15 -11 30 82 83 92 100 90 70 49 35 22 26 33 28
143 140 140 123 122 132 105 86 72 65 65 75 64 75 73 107 106 128 140 177 225 194 64 10 42 28 29 40 3 -22 -30 35 90 103 141 156 125 84 51 23 21 24 24 18

GFSNW_con_3kmhel_099.txt.gz
Helicity
37 29 32 37 49 89 102 124 144 76 54 107 82 122 102 9 14 7 16 18 14 14 26 46 61 77 37 11 5 13 53 96 44 25 4 38 102 120 105 169 142 120 145 123
46 29 29 32 57 83 113 136 161 67 62 108 88 103 116 21 30 16 0 13 6 6 30 25 30 54 26 1 7 20 57 79 43 33 8 20 56 69 77 137 101 97 121 98
50 35 35 33 58 84 99 123 131 136 132 104 71 98 115 100 16 16 -3 -1 7 -5 13 3 32 40 42 8 8 -16 61 70 71 55 32 20 36 52 61 111 91 99 57 108
53 35 40 39 59 79 72 88 119 109 135 148 87 99 103 101 93 14 -3 19 2 6 17 6 27 39 62 34 -13 24 53 83 48 25 30 82 103 45 75 103 107 99 119 168
57 58 48 47 60 76 59 75 111 127 144 143 92 110 134 111 66 17 31 -4 -20 1 5 23 34 28 83 75 31 13 21 56 44 19 68 130 126 90 61 78 87 74 136 178
50 61 65 64 57 60 48 70 100 85 120 128 93 106 111 108 28 40 -4 -21 -17 5 -8 12 47 40 77 75 43 42 -29 22 45 16 61 64 121 91 44 25 76 79 43 103
32 80 77 82 64 26 33 66 92 67 85 99 88 87 67 64 33 25 -22 -12 -3 -28 29 42 22 11 24 47 70 -2 13 13 76 48 74 76 94 67 82 42 70 48 34 80
49 86 96 109 87 32 27 63 46 31 49 93 92 61 50 44 33 31 -10 -17 -21 -20 14 4 15 31 30 32 29 52 12 -2 56 78 138 51 71 73 82 67 77 45 48 40
36 84 100 117 89 61 36 37 6 -9 9 43 75 43 52 73 69 94 4 -18 -19 6 8 13 8 15 -4 6 25 28 65 56 62 84 119 97 64 39 68 98 104 67 30 6
31 88 99 100 64 31 10 14 -21 -8 -5 11 29 32 44 58 54 46 -10 -33 -19 -2 -1 3 8 11 6 4 -4 -3 9 26 67 92 82 38 30 26 39 84 139 133 122 72
49 87 99 102 67 41 4 9 -35 -19 -55 -15 -1 20 40 58 37 46 -27 8 3 -8 0 1 0 -6 17 1 10 1 -13 21 22 37 49 37 36 13 37 57 62 89 131 101
33 83 92 93 56 34 4 8 -22 -23 -50 -43 -21 -16 -11 12 1 -6 -20 2 -10 -11 0 -6 -9 -5 14 20 17 3 15 31 36 51 46 31 32 33 36 47 59 72 90 120
39 89 88 82 55 39 10 17 14 28 -8 -16 10 -4 -5 -4 -7 -31 5 6 -10 -4 -10 -9 -8 -3 12 22 30 15 7 12 22 42 35 35 40 43 43 54 46 61 69 73
67 92 83 73 59 48 21 -1 -2 0 -8 -4 0 -13 2 0 6 -3 -9 -2 4 -3 -3 -7 -7 -6 10 18 20 17 5 23 29 14 23 22 26 33 43 29 37 38 52 68
83 97 84 69 69 71 35 -1 -28 -32 -14 14 5 13 17 5 23 24 25 26 21 12 17 4 -2 2 -3 11 18 15 5 38 49 50 50 38 33 23 35 26 39 38 45 53
114 113 95 74 74 84 38 46 5 -8 -15 24 34 10 41 35 51 57 57 45 32 32 35 21 -3 20 -14 -39 -2 47 27 20 25 36 40 32 31 35 38 32 40 51 53 54
142 129 121 86 68 78 69 61 34 23 13 20 50 39 44 36 53 66 71 47 42 33 36 38 25 3 8 -33 -36 92 44 34 28 25 36 22 26 41 40 40 44 50 59 65
172 141 128 110 110 70 74 4 58 50 41 27 56 56 44 38 51 58 71 75 68 60 43 38 42 29 21 -6 44 75 102 72 53 51 46 46 42 43 43 39 38 41 52 60
177 165 150 146 126 137 61 9 79 71 51 61 59 61 64 29 44 57 63 58 96 69 98 74 40 59 73 38 37 74 92 92 88 70 38 40 46 44 43 38 31 33 57 69
195 233 238 185 115 72 43 52 10 43 94 86 90 39 61 32 43 51 53 60 80 100 94 48 112 96 76 4 16 22 34 39 57 61 58 53 39 26 30 41 52 63 57 56
321 290 316 151 106 112 121 122 104 68 74 78 101 52 61 47 57 67 58 63 68 101 119 125 162 155 65 4 10 14 27 43 51 64 58 60 42 47 40 38 55 56 57 62
210 170 198 173 159 132 115 112 112 130 120 83 83 55 52 61 51 58 61 76 74 109 141 137 143 108 27 -4 2 12 28 32 30 36 36 37 41 39 46 57 53 51 49 47
213 225 230 151 147 213 185 164 148 174 79 71 51 59 57 58 46 66 65 77 96 103 145 138 141 69 17 6 -2 6 34 28 20 23 26 24 33 44 57 57 56 45 40 44
332 375 461 279 245 215 199 142 142 100 85 81 74 71 69 70 70 77 87 101 102 135 154 168 168 107 55 23 12 1 9 33 25 31 32 34 38 48 69 76 66 54 52 61
353 249 410 396 212 180 131 154 172 136 93 85 84 89 82 95 98 88 103 107 120 121 169 209 184 137 76 51 36 22 22 33 37 63 63 59 64 68 77 78 70 56 50 51
204 274 364 179 268 198 168 172 182 111 82 88 70 72 92 108 114 115 106 139 127 156 203 199 141 99 69 65 53 58 41 33 31 37 61 74 80 78 95 83 55 44 43 41
343 489 269 207 155 147 175 182 142 66 69 78 67 101 110 122 119 124 121 139 156 197 184 142 96 77 61 65 61 64 53 34 32 22 46 83 124 128 103 70 52 42 33 30

GFSNW_con_3kmhel_102.txt.gz
Helicity
60 64 14 8 17 75 96 119 134 109 48 153 141 149 95 23 22 4 17 24 14 22 24 21 54 80 40 -14 1 48 60 54 56 28 -11 -2 22 66 36 16 67 58 103 104
56 68 21 -1 32 54 89 114 169 95 56 158 169 145 115 40 48 12 -5 9 4 0 49 35 25 61 13 9 -10 56 61 48 48 66 21 13 33 65 46 41 123 123 93 65
54 78 35 5 -16 52 78 117 131 161 144 143 142 149 138 95 44 17 2 7 2 -5 22 21 43 51 19 -4 -9 31 58 28 2 39 17 -14 22 27 28 76 106 162 40 55
50 82 39 19 -6 65 70 104 118 149 160 159 156 145 131 94 122 28 -3 21 9 15 27 27 33 44 39 11 -33 -3 63 37 42 17 -27 15 62 21 23 13 65 198 263 93
78 88 8 -3 38 78 70 107 124 154 164 167 152 159 157 87 93 46 43 5 -14 4 12 29 27 25 63 41 12 18 34 47 38 2 -20 27 61 38 10 17 81 157 243 126
77 46 -1 3 43 62 65 92 112 114 141 140 121 171 150 108 31 51 -4 -14 -4 10 1 -8 18 23 82 62 41 48 20 36 33 38 -14 47 84 27 24 -3 72 70 148 135
24 50 19 0 36 54 59 68 92 87 102 104 118 154 113 85 36 37 -19 -13 -3 -20 -45 28 23 16 30 68 20 3 -1 31 27 7 -37 34 80 93 49 8 11 5 49 74
70 36 25 25 49 33 58 64 58 52 73 100 107 125 90 49 55 40 3 -18 -27 -41 7 13 35 35 30 29 41 22 17 6 55 31 19 9 2 70 89 55 67 35 23 19
190 -34 42 43 81 90 90 67 28 33 63 45 74 95 76 64 49 76 2 -23 -22 6 13 25 22 19 12 26 36 27 26 20 50 89 106 90 51 63 61 47 50 98 98 65
120 35 45 60 73 78 68 35 4 20 36 12 31 45 60 34 29 37 -6 -34 -19 2 16 18 18 12 5 13 13 24 27 40 70 136 47 47 41 24 67 107 110 116 55 57
196 35 30 42 62 70 66 55 24 9 -4 -1 6 33 48 40 14 13 -15 18 -3 -5 19 13 19 9 8 19 13 0 8 -14 14 42 46 46 17 14 50 70 96 79 79 102
125 17 10 46 62 71 91 75 34 34 19 -8 -4 1 -3 -3 -18 -8 -13 16 -6 -4 5 10 6 11 7 12 14 10 12 17 15 31 21 8 10 22 23 48 44 69 94 100
273 -17 36 44 48 96 90 107 53 74 27 -5 6 -8 -6 -18 -32 -45 24 20 -5 1 -8 -1 2 6 -6 0 -11 4 26 15 14 37 36 31 37 22 28 49 50 59 72 105
225 54 53 54 64 95 116 125 81 27 16 19 1 8 8 -11 -21 -21 -6 22 11 5 4 7 14 17 -5 -9 -13 0 10 25 35 39 59 25 24 43 41 43 70 39 41 69
198 49 58 60 89 124 162 147 72 40 20 32 6 8 9 7 4 11 18 24 25 34 52 56 49 0 6 1 19 -1 19 32 49 57 58 40 31 15 16 62 49 58 50 70
138 53 66 63 78 98 131 77 -20 4 35 43 34 4 14 18 14 29 42 33 32 35 45 44 14 -3 7 19 18 41 55 68 44 31 42 36 44 37 43 33 43 54 65 64
54 72 67 63 140 176 123 68 46 24 41 37 48 32 15 21 24 22 37 46 47 49 61 58 41 39 49 57 74 23 24 49 57 52 60 34 73 59 64 56 52 54 51 57
78 92 105 103 135 96 80 116 89 48 65 45 56 50 39 18 19 31 31 50 57 67 58 59 79 59 70 114 104 22 10 28 88 88 76 62 58 59 63 59 49 40 46 43
115 120 112 177 167 145 111 90 75 69 50 59 50 85 60 28 40 42 38 39 53 68 79 77 87 110 103 106 40 7 -23 -2 -16 63 55 57 60 64 65 64 52 40 44 47
104 246 229 183 163 98 109 122 84 113 77 62 80 74 80 47 52 54 57 49 58 74 74 85 102 97 109 72 43 33 22 -9 -35 0 67 75 78 96 66 61 60 52 62 68
358 274 229 190 130 176 154 107 55 79 95 101 130 122 95 58 85 77 53 71 68 89 91 75 80 90 116 74 45 25 18 17 9 1 35 49 49 61 84 82 67 59 58 64
248 168 188 240 194 202 178 171 100 65 92 110 123 115 88 74 74 76 65 87 89 112 97 90 71 74 95 84 52 39 24 22 23 27 7 35 37 59 59 68 93 80 74 74
337 246 218 183 216 219 185 168 159 115 103 94 112 129 83 67 59 75 83 101 111 104 110 107 89 106 102 78 65 55 42 32 30 30 25 33 45 40 55 71 79 90 90 81
291 310 429 284 212 192 219 195 157 120 125 149 144 111 73 75 77 77 112 112 132 162 167 116 122 140 136 108 62 51 50 49 44 37 41 46 42 46 49 58 70 80 93 78
419 386 341 299 237 201 189 178 166 186 164 140 134 111 84 88 93 84 121 130 152 112 120 156 178 173 157 128 101 76 50 43 46 47 63 64 51 75 65 68 73 72 75 77
384 353 311 263 344 300 234 181 194 205 151 134 111 112 101 105 116 136 123 147 125 110 141 173 187 161 135 113 85 78 82 61 54 71 76 57 63 71 72 87 90 91 75 61
425 460 354 257 251 208 150 117 154 120 147 165 137 125 101 134 128 123 107 111 122 143 159 164 156 132 113 101 92 86 74 64 64 81 88 73 87 111 87 77 78 66 57 60

GFSNW_con_3kmhel_105.txt.gz
Helicity
115 55 48 31 11 59 105 72 65 80 72 101 101 138 124 77 40 8 12 31 21 11 47 33 71 65 -11 12 79 72 76 53 111 120 45 45 70 67 25 51 88 74 66 118
124 45 45 43 12 102 57 47 100 76 72 108 81 104 118 73 66 17 -4 2 2 -5 36 55 43 43 -3 13 50 27 61 0 30 85 55 27 18 17 -20 -82 -38 53 126 148
119 51 35 30 -8 58 3 51 61 94 91 105 134 159 146 151 23 16 -5 9 11 19 24 24 42 45 11 -9 3 35 28 33 38 68 55 24 5 36 32 -5 42 101 98 63
94 63 36 38 -45 68 15 28 22 95 95 100 149 141 131 141 103 10 -4 17 8 13 21 41 43 47 13 -13 -20 13 17 32 25 27 18 2 26 42 37 24 27 104 180 152
106 117 52 16 -16 103 38 33 33 66 105 135 147 125 137 134 88 51 62 21 -13 7 22 22 30 33 45 27 -18 19 19 26 17 3 -7 14 44 42 35 9 37 109 157 150
126 108 71 -39 4 84 35 32 33 79 91 118 128 123 132 116 54 16 -6 1 4 17 15 6 27 30 59 57 21 16 14 26 19 34 51 41 52 40 6 7 31 130 173 110
159 157 81 -32 48 60 30 11 53 48 52 95 115 124 95 107 44 43 -17 -17 -1 0 -15 12 17 27 41 44 19 24 5 10 14 63 24 55 56 61 28 -1 -4 93 162 47
142 71 46 -1 37 37 31 31 24 30 35 113 120 119 92 68 20 -2 -4 -26 -7 -14 -8 14 30 27 22 28 26 28 2 11 26 27 34 18 67 107 77 60 56 60 46 78
184 52 10 7 45 12 40 60 34 16 81 48 80 90 64 78 60 32 -6 -24 -15 -3 5 11 34 51 29 24 23 14 20 37 58 59 65 34 52 73 67 49 46 91 68 33
197 110 41 -47 5 36 59 46 45 15 25 32 47 49 62 29 20 29 -11 -28 -31 7 23 19 26 24 19 22 19 26 22 17 15 54 39 29 41 36 38 56 55 113 72 46
258 87 -26 -50 17 38 54 57 68 8 4 6 5 27 40 17 -3 14 -1 10 -18 -8 47 36 22 22 10 11 1 2 8 5 -12 32 39 44 23 25 43 31 44 69 83 70
204 53 2 14 25 25 75 79 101 63 18 3 -15 4 -1 -13 -30 -2 -15 20 -7 3 41 27 14 26 12 21 13 -15 -2 9 14 19 10 12 18 6 24 19 33 51 74 72
258 119 59 7 18 57 47 106 95 130 49 3 -20 -19 -13 -39 -48 -32 17 -3 -1 -5 20 19 18 26 3 26 6 3 -13 5 22 34 47 26 30 29 29 36 40 53 62 85
210 127 -46 -27 35 56 116 124 123 39 18 12 -15 -9 -20 -18 -37 -34 -16 23 -3 14 8 28 43 36 10 21 4 5 21 -8 -1 32 46 41 32 24 21 34 64 64 72 75
177 128 -67 4 43 87 183 203 110 53 19 20 3 -8 -12 -14 -21 -17 -18 1 16 15 41 61 70 31 34 27 23 33 13 3 9 16 35 24 22 18 26 43 68 61 43 49
268 129 -48 34 54 91 138 63 46 44 66 45 12 -1 0 -7 -1 3 -9 -10 -1 3 18 26 17 10 49 90 110 48 40 24 10 10 17 21 21 41 41 40 47 50 47 70
320 132 26 74 113 121 95 34 43 72 48 39 47 34 9 11 7 9 -1 -12 7 18 17 12 30 34 68 85 127 86 53 20 5 -19 50 67 68 41 52 54 50 55 60 60
381 142 91 87 109 90 67 92 134 93 53 55 51 44 42 10 16 23 17 26 28 28 23 26 40 48 53 38 67 44 21 15 27 2 -15 19 34 42 60 58 58 54 53 58
312 115 106 164 135 79 58 69 128 79 51 53 52 82 61 41 38 32 27 33 52 45 35 32 39 48 44 59 79 45 20 15 17 2 11 5 35 61 49 49 70 69 63 60
187 213 228 221 150 58 94 116 91 95 92 81 62 79 90 56 58 40 47 44 52 73 59 44 52 26 57 71 59 49 35 26 26 30 67 34 19 1 80 65 61 72 69 63
516 402 307 186 179 183 144 126 44 55 48 82 116 128 141 68 81 64 38 59 58 83 70 74 60 45 42 83 67 50 38 33 31 34 38 31 17 -12 -22 72 68 67 70 77
342 212 196 223 189 160 172 107 56 37 29 80 109 144 132 93 68 71 49 79 81 97 87 88 79 54 55 91 82 63 53 47 35 40 45 48 42 37 18 2 63 80 82 78
397 315 262 232 183 193 137 108 70 68 57 70 121 165 100 77 68 81 79 92 97 89 101 96 72 53 72 87 90 74 56 53 48 38 37 41 52 59 66 46 56 81 81 88
525 396 290 224 190 193 110 96 88 88 85 154 178 165 116 91 118 94 109 83 108 134 111 97 89 71 86 100 100 93 78 56 39 29 36 33 53 59 59 75 63 60 70 101
518 353 237 247 225 162 185 205 188 142 117 205 205 180 128 147 144 107 120 115 120 97 107 96 87 105 120 119 113 96 79 68 64 54 50 42 77 94 75 66 74 72 85 89
467 335 256 316 312 227 190 168 168 153 178 208 171 170 179 163 143 137 102 146 116 93 79 94 118 118 113 110 105 97 92 89 82 68 64 53 80 96 85 85 86 83 108 109
406 336 302 264 271 204 195 149 123 131 200 170 175 193 170 154 131 114 93 95 83 80 97 105 110 114 107 104 112 105 96 92 79 71 66 65 91 113 106 91 74 87 98 71

GFSNW_con_3kmhel_108.txt.gz
Helicity
287 143 121 65 50 83 40 50 43 37 34 58 49 69 101 69 67 13 20 17 21 29 46 41 51 -19 -0 31 59 56 90 94 123 93 104 73 61 56 38 63 105 90 170 156
201 134 95 64 54 90 43 82 36 25 8 54 33 62 84 55 83 19 1 11 4 12 39 63 41 -8 2 22 40 49 83 54 71 97 102 104 71 57 45 -1 15 94 136 174
157 130 107 61 55 -7 65 53 33 30 1 18 66 88 99 102 15 11 -8 9 10 14 28 24 47 2 -19 12 30 43 39 66 49 59 67 58 44 26 13 -16 41 77 103 159
109 131 79 49 16 -23 63 39 22 -9 44 64 70 83 92 122 107 -1 -17 10 6 17 30 32 41 36 -16 -10 12 19 18 39 48 55 33 40 45 35 16 23 7 27 91 137
166 149 151 46 17 18 48 29 22 43 29 84 102 78 91 103 85 54 17 15 -0 11 19 18 27 30 28 -16 4 22 27 22 12 26 1 10 21 54 37 29 10 66 98 130
161 152 91 50 45 28 46 29 31 31 39 57 61 75 94 82 66 -7 -32 -2 7 8 9 2 6 29 48 37 14 25 20 7 6 35 38 29 63 70 37 31 32 68 81 151
154 183 160 68 -11 -28 36 26 33 37 60 49 55 75 57 74 38 62 -19 -32 -21 -23 -34 -12 7 21 31 27 20 8 37 62 67 88 65 41 42 70 6 -7 6 92 132 177
144 144 99 57 -57 -10 46 36 29 28 44 34 43 73 59 43 -2 -0 -12 -34 -30 -42 -26 16 18 21 27 18 12 33 28 58 54 53 39 47 43 56 39 22 -12 42 44 117
168 157 122 32 4 26 53 45 29 20 35 67 47 52 43 44 36 17 -3 -39 -47 -31 -11 2 38 42 20 21 9 5 26 52 51 61 38 15 72 77 63 39 20 9 12 28
185 153 86 41 25 82 40 37 35 27 23 56 33 22 33 8 4 23 -6 -16 -31 -30 -0 15 27 22 14 15 17 19 -3 -10 -3 37 21 21 43 58 39 32 27 34 15 15
150 117 177 34 12 72 42 46 57 16 17 59 -5 -20 -1 -7 -9 18 8 9 -31 -15 6 21 15 14 13 7 3 6 5 -12 -15 -19 -9 8 38 11 29 27 26 41 47 39
135 161 122 -83 -2 52 37 68 90 84 33 18 2 14 32 -4 -21 -11 -17 -10 -9 -8 -6 -15 8 18 -2 9 14 -14 -7 6 3 -5 -3 9 18 21 29 18 25 41 42 52
192 126 48 -95 -5 56 35 78 67 117 99 40 3 -12 23 22 26 -15 -14 -23 -20 -18 8 11 -1 24 -4 36 7 -2 -10 -6 2 -4 6 35 31 33 41 48 27 36 41 44
218 87 59 -70 41 61 51 82 79 49 13 16 1 31 -30 -20 -15 -26 -28 10 -9 -0 16 -10 15 14 -10 20 14 19 22 -5 -11 -3 -3 21 35 31 28 11 42 44 72 56
161 151 65 -29 63 62 105 104 80 58 25 21 6 -15 2 -15 -25 -30 -9 5 6 5 -9 -8 17 5 20 12 13 21 -0 11 18 6 9 -1 -1 24 27 33 42 59 45 46
188 238 121 -24 33 100 104 98 56 75 49 53 25 7 -7 -23 -10 -4 -14 -17 -16 -8 -3 -4 -8 1 13 36 53 39 32 12 19 18 -8 1 -5 26 55 40 37 40 40 42
227 249 113 -1 101 106 95 89 56 112 56 47 45 34 2 -6 -8 -12 -15 -12 -2 1 5 3 12 12 17 28 52 92 62 40 16 -3 -19 -0 -0 -3 7 51 56 59 66 70
259 250 85 89 89 90 72 94 113 120 56 66 44 37 32 -2 9 14 -6 17 32 12 13 10 32 27 26 19 35 68 47 29 37 12 12 -3 -21 -20 -13 27 72 68 67 68
294 215 182 214 103 116 72 64 114 115 60 69 54 45 28 45 39 29 13 21 39 23 22 31 42 49 42 40 64 51 33 23 18 -1 5 36 35 21 18 11 15 58 76 89
357 420 367 250 190 91 128 101 89 116 93 93 48 67 56 66 70 57 45 32 53 51 52 29 49 45 26 48 57 56 41 19 19 19 28 21 12 13 -3 -7 61 59 78 83
469 445 350 253 165 177 179 84 89 97 43 46 72 88 113 58 89 83 42 65 58 73 56 81 71 70 61 65 65 48 46 46 37 43 40 46 41 32 18 15 54 73 76 79
359 275 281 307 277 262 173 107 94 51 34 55 91 148 140 98 85 91 58 88 87 83 63 90 87 80 66 58 70 63 58 57 48 50 45 43 46 47 44 41 41 67 80 85
553 451 387 287 200 169 124 117 119 74 38 60 112 164 120 111 94 98 98 123 115 85 106 90 83 84 49 64 74 71 61 59 60 51 45 44 39 43 54 53 62 85 93 93
458 418 358 209 172 186 122 139 101 86 84 129 175 184 123 92 117 101 141 108 122 121 103 92 59 62 76 81 85 91 77 71 65 60 55 54 50 45 51 79 104 106 86 83
525 363 281 245 222 199 197 176 209 181 115 182 187 169 116 155 140 114 138 120 107 85 89 117 72 83 108 102 99 93 85 81 80 89 80 67 61 64 70 89 103 95 86 88
421 270 232 280 290 216 211 224 226 196 159 170 173 157 168 170 142 136 127 157 115 114 104 70 107 108 101 101 98 98 103 101 102 101 94 81 77 84 95 99 96 95 95 100
330 322 264 253 270 194 173 174 156 151 153 151 150 159 142 124 134 126 105 117 115 63 72 85 91 105 97 91 101 109 114 115 108 104 93 85 94 113 115 97 112 96 101 111

GFSNW_con_3kmhel_111.txt.gz
Helicity
384 235 424 280 78 14 157 121 52 61 20 -7 -19 19 40 40 63 13 13 9 16 30 32 19 -4 24 51 56 87 87 153 154 137 112 112 57 34 40 77 246 274 159 73 139
317 -28 216 129 49 163 183 132 58 54 19 -8 -2 44 32 33 70 46 31 19 -2 6 37 43 -8 -10 32 39 48 70 97 85 103 63 65 73 47 49 26 87 131 164 124 163
-125 146 277 145 47 126 141 57 40 49 3 -19 1 47 38 57 9 22 -11 3 -4 3 14 13 -1 -29 -0 19 42 44 47 60 64 47 46 46 30 31 38 16 58 22 92 189
48 324 213 83 37 86 92 52 21 -7 10 -7 13 36 47 65 70 -2 -14 -2 -12 7 14 23 29 -17 -21 17 23 19 22 48 65 57 31 46 34 44 42 17 22 36 57 140
147 166 163 53 16 93 68 29 9 30 29 31 48 37 46 69 52 35 19 9 2 -1 -9 2 28 4 -20 -1 5 25 34 39 50 50 1 28 27 25 21 19 17 39 50 68
115 148 196 98 41 63 29 30 29 12 64 28 28 42 47 49 39 -17 -23 15 7 -8 -16 -13 3 26 27 8 12 23 7 3 15 42 58 39 44 55 31 13 -3 21 54 84
105 186 270 113 50 58 34 28 27 23 53 16 25 37 12 43 15 35 -6 -20 -2 -16 -25 -9 6 8 16 12 2 18 28 35 32 42 45 11 39 63 5 -8 -4 29 46 69
159 236 133 68 20 46 33 46 25 25 64 23 55 29 15 15 -17 -11 -8 -37 -21 -15 -27 -3 6 8 14 11 9 6 22 29 7 19 6 30 62 59 29 16 6 27 46 64
129 205 232 182 128 -23 28 49 12 16 39 39 50 43 10 5 -0 -4 -25 -45 -41 -32 -4 3 37 39 11 28 15 -6 -0 22 5 3 7 8 39 64 45 18 3 4 47 60
127 162 183 96 100 -1 31 29 26 19 31 68 66 37 10 -22 -18 1 6 -10 -21 -33 1 17 36 40 12 22 28 -6 -15 -18 -13 1 -8 -4 22 49 21 23 15 29 25 25
121 123 77 148 68 21 30 32 41 14 37 91 55 30 -12 -32 -25 17 17 14 -24 -10 21 22 18 19 17 3 5 6 4 -11 -6 -7 -8 -11 30 17 28 16 20 20 29 25
133 79 108 68 19 11 39 58 66 59 55 64 66 41 57 21 -48 -38 -10 -10 18 -3 2 -0 3 21 9 19 31 -12 -3 6 3 -0 -0 -11 33 27 17 7 23 39 45 39
134 140 171 51 55 52 37 67 72 92 122 88 63 65 86 54 46 -17 -39 -28 -12 -16 -5 10 1 14 18 55 30 -2 -8 -3 -7 -9 -17 -23 -30 30 24 28 59 47 37 35
205 139 60 90 63 34 43 96 76 61 45 45 50 66 31 77 48 1 -49 -19 -18 8 11 -13 -3 -0 -9 26 8 18 14 -10 -0 -12 -2 -7 -20 -26 28 21 39 39 41 48
183 133 77 60 49 43 92 86 64 43 52 50 51 54 59 49 12 4 11 5 4 -5 -12 -22 -0 -3 12 12 -2 14 20 35 45 21 13 -2 2 -29 -38 -30 25 41 45 42
162 160 101 62 50 66 103 140 57 55 37 53 59 55 38 24 -5 -5 1 -1 -13 -21 -13 -10 -14 8 18 22 21 14 21 16 10 11 -0 2 -5 -7 -11 -31 -39 -18 36 53
177 186 152 88 87 102 142 124 72 86 57 68 52 61 40 8 -6 -15 -11 2 -3 -7 -6 -4 -4 21 7 23 40 33 66 52 41 24 1 3 6 3 -12 -7 -21 -38 -20 55
244 204 182 183 99 95 106 94 91 107 70 89 76 64 60 16 9 5 9 19 25 10 18 14 25 17 16 23 21 55 67 47 40 15 3 5 1 3 10 5 6 -4 -9 -10
295 283 248 300 160 121 98 72 81 93 103 110 91 62 36 63 35 26 33 43 52 36 42 44 54 58 51 36 48 61 65 54 50 27 16 32 52 52 50 36 30 18 30 63
333 414 279 196 229 97 145 83 112 130 128 110 97 107 63 68 80 61 49 58 67 55 60 60 72 41 23 38 44 64 76 65 56 42 47 54 52 46 35 29 20 22 29 63
454 290 305 281 245 200 196 183 128 154 125 91 84 121 85 68 84 87 55 57 75 87 63 123 78 52 62 95 90 71 74 67 62 56 56 58 55 60 62 51 45 39 43 56
283 226 336 363 362 284 191 191 188 122 86 93 113 183 182 124 109 100 54 87 97 92 79 119 100 68 82 98 68 72 73 69 65 59 54 50 50 58 69 79 80 83 82 86
457 464 518 398 271 169 166 187 256 149 76 87 145 220 207 178 150 120 102 123 130 106 121 131 91 92 104 63 78 95 80 74 71 64 57 46 43 48 49 52 74 90 94 103
379 450 444 259 179 131 125 156 188 173 126 155 234 256 164 142 162 130 163 138 142 142 141 106 79 72 65 82 92 109 98 84 71 64 60 58 62 68 75 75 85 91 81 100
425 399 280 235 234 186 200 175 274 274 135 246 232 207 130 194 174 132 163 147 138 92 83 81 80 79 106 108 108 100 93 85 78 72 76 72 69 64 63 78 92 98 97 93
406 363 241 271 316 256 235 259 248 206 177 326 227 192 194 187 171 163 159 196 121 99 97 93 102 107 115 118 107 101 95 88 87 88 85 75 70 67 74 92 106 119 125 121
221 386 283 286 338 217 204 208 222 143 268 292 206 193 184 153 176 173 138 141 101 80 99 93 88 113 100 98 103 91 92 101 100 102 84 78 74 87 95 107 142 132 116 115

GFSNW_con_3kmhel_114.txt.gz
Helicity
396 192 214 162 43 115 236 134 61 50 44 24 7 20 61 37 24 -0 14 4 14 26 25 -15 41 47 54 81 98 104 98 72 96 119 97 71 101 335 199 141 160 150 180 257
333 9 214 255 304 87 141 144 68 48 49 29 35 44 48 23 32 32 11 8 10 9 26 2 12 41 55 56 79 85 77 31 49 31 49 46 63 182 177 123 108 134 145 171
31 201 246 269 89 -22 99 50 74 57 17 -6 24 49 43 26 -18 1 -19 9 10 5 14 -27 -5 1 34 34 54 52 40 42 45 50 17 60 40 71 82 127 62 67 64 136
48 129 144 -21 -15 44 41 15 33 23 50 18 17 20 35 44 48 -20 -26 -4 20 23 22 -7 -29 -13 6 19 27 22 16 32 45 51 64 67 37 24 55 98 100 72 74 102
123 328 182 85 30 70 16 10 2 30 11 6 35 28 20 47 29 11 10 24 20 -4 11 -4 -13 -18 -11 15 12 11 18 2 21 43 47 55 22 15 3 27 52 63 103 135
284 200 91 91 33 85 16 26 16 3 48 54 39 29 35 32 18 -20 -22 28 6 4 -0 -3 -1 -17 -12 -3 7 20 25 14 24 50 67 54 36 88 14 -29 -20 15 59 79
158 141 162 96 53 10 6 9 12 8 37 45 22 17 19 30 3 20 -13 -22 -1 2 -6 -3 -7 -9 -4 -5 2 25 26 35 36 -1 24 23 14 36 18 -5 -3 15 -5 29
176 112 142 139 106 22 -9 15 15 2 33 42 36 16 20 30 -8 -1 -6 -33 -18 -11 -8 5 11 15 22 -11 -1 10 15 29 18 9 11 -2 31 29 25 5 -12 7 28 42
190 174 135 164 109 26 10 8 13 -0 15 50 33 23 19 29 10 17 -8 -31 -22 -28 2 9 53 69 35 12 -21 -5 6 17 17 16 13 11 3 47 7 12 -7 7 -12 25
124 146 116 77 77 11 20 15 24 4 4 55 57 18 17 -8 -10 4 4 4 -8 -21 14 40 54 52 23 40 30 5 -12 -6 1 2 -2 -5 -13 60 15 -2 6 19 39 26
71 109 110 120 119 50 23 20 35 -2 15 80 56 50 24 7 -17 13 14 13 -4 12 31 29 37 47 38 16 13 20 17 1 1 -3 -0 -7 -12 -14 -29 -2 13 12 34 39
94 105 64 50 82 55 28 22 53 49 37 51 67 57 77 54 -26 -32 -10 -11 12 9 22 24 29 46 28 36 51 -4 25 15 7 9 2 -4 -0 -15 18 15 5 11 27 31
17 90 38 42 64 18 30 30 39 48 66 88 67 80 94 81 61 -32 -14 -15 -15 -15 -1 21 23 40 45 74 56 28 6 -3 3 2 1 -1 -18 -27 -25 38 43 43 31 38
140 80 48 32 44 22 62 57 46 41 45 52 60 62 63 97 56 -4 -35 -28 -21 -4 4 10 22 27 19 50 30 50 39 24 45 19 3 -2 -11 -28 -26 -25 -37 8 52 48
134 76 54 60 54 54 76 92 51 45 63 72 72 61 74 74 52 36 22 9 5 11 9 4 17 16 31 39 33 52 73 92 96 60 24 28 7 -12 -29 -29 -40 -54 -61 -31
29 73 56 80 109 33 105 117 60 53 37 68 99 73 73 64 57 46 35 34 11 6 3 -2 4 23 31 36 40 28 68 75 74 64 43 33 16 15 16 -3 -13 -14 -35 60
56 64 63 109 122 78 115 121 84 59 47 91 95 91 90 79 67 37 21 30 9 6 5 2 10 20 30 45 67 31 75 98 102 83 69 64 58 49 18 18 28 19 19 23
107 145 104 129 145 91 120 98 76 89 88 85 105 113 90 83 72 56 25 35 35 25 29 18 29 24 28 38 30 52 89 91 88 83 59 53 42 36 62 65 71 56 50 52
239 286 227 257 342 227 122 53 73 94 110 106 111 97 72 109 101 74 71 53 56 46 50 58 64 61 58 47 62 73 83 70 77 81 58 66 80 84 84 84 96 74 70 64
384 419 235 170 261 199 132 113 94 110 137 124 111 123 91 92 151 118 94 76 85 72 58 79 94 55 40 53 64 67 85 80 89 76 71 82 77 78 80 83 79 77 70 58
365 210 187 213 369 440 315 208 136 137 130 110 139 147 117 100 136 124 73 74 80 79 67 134 109 61 54 122 133 109 95 83 89 82 85 85 76 70 71 78 87 94 101 102
280 187 245 310 318 305 280 209 214 138 99 144 176 220 173 154 152 147 109 118 98 104 109 130 103 68 75 127 150 128 94 108 110 91 83 73 65 63 62 63 68 77 90 106
423 292 212 219 248 246 186 211 303 266 154 194 207 290 269 219 170 168 148 138 134 135 146 139 120 104 113 115 124 97 95 107 106 91 79 66 53 48 49 44 60 68 86 99
277 245 225 237 242 289 226 273 314 325 276 177 292 319 197 253 219 142 165 185 192 172 199 127 81 69 98 108 71 109 111 109 102 87 73 54 47 54 67 71 72 83 85 94
186 202 196 201 223 189 181 232 304 394 324 343 295 314 206 212 194 150 201 212 195 156 116 89 75 78 117 87 88 125 139 123 103 79 74 68 69 67 65 78 98 110 117 129
171 204 176 140 199 179 184 275 289 331 296 365 298 217 221 224 231 207 206 282 201 139 99 74 81 117 118 105 118 145 134 116 99 87 89 86 76 69 55 56 70 94 119 122
163 131 205 105 188 171 157 181 241 193 280 345 281 244 201 178 227 236 212 224 151 101 83 78 90 130 111 122 144 133 122 115 103 114 112 92 71 62 68 61 74 80 76 74

GFSNW_con_3kmhel_117.txt.gz
Helicity
102 53 108 73 87 166 321 250 88 59 27 32 10 42 35 24 18 -17 6 10 17 8 13 31 58 57 87 58 64 77 84 58 40 83 257 241 191 278 198 134 249 279 375 255
-76 211 259 59 101 72 139 107 70 43 50 45 70 53 37 10 22 15 1 9 10 -2 -30 -17 36 45 53 49 31 45 67 48 34 43 146 121 194 209 188 89 111 183 228 234
93 91 139 127 143 96 59 32 38 38 17 10 48 49 45 28 -18 -3 -18 3 3 1 -44 -46 0 7 31 31 35 32 26 41 54 65 96 164 204 193 182 46 59 107 147 141
105 139 155 166 59 106 57 28 47 57 91 57 40 30 40 24 16 -8 -27 -19 23 16 -33 -24 -25 10 10 21 25 22 34 48 47 75 103 87 97 109 136 81 37 72 39 58
139 173 45 45 84 60 40 20 30 37 57 28 40 44 32 27 14 8 10 12 -5 -4 -6 -34 -8 6 2 15 24 18 15 27 31 35 61 77 71 112 76 80 45 46 50 70
181 115 117 137 64 56 37 -13 -20 3 43 43 41 42 35 25 15 -1 -10 15 10 3 9 -2 -8 -8 8 20 37 45 48 13 2 27 28 54 68 112 92 67 64 84 86 129
76 131 114 144 36 49 28 -18 -24 6 49 46 41 27 17 21 1 29 5 -18 -2 10 -14 1 1 3 1 5 31 68 43 31 8 24 9 13 42 60 71 41 13 27 55 83
104 98 84 44 -42 46 2 -1 -18 -15 17 22 30 25 16 16 9 26 12 -16 0 -11 3 19 33 27 -6 -5 6 18 28 27 11 15 15 19 21 14 41 56 36 33 79 73
59 71 104 101 34 84 20 1 -22 -21 -12 32 32 26 23 13 21 28 5 -8 -6 -25 5 29 71 77 43 6 -1 11 23 31 22 30 19 13 2 14 17 30 21 20 20 24
53 61 56 76 30 51 50 4 -10 -10 -15 10 35 25 26 -7 -1 17 21 15 -1 -25 29 54 67 76 42 61 43 13 8 4 11 6 10 6 10 19 5 2 14 8 -9 22
21 54 54 -9 -15 34 82 12 2 -7 -3 26 41 37 4 -12 -4 25 23 22 4 15 41 53 57 63 57 43 38 39 38 18 24 14 7 22 -3 -4 -13 -11 -7 -23 -7 16
4 29 12 -2 11 62 109 31 39 49 24 10 55 52 50 15 -18 -11 17 3 17 19 29 36 40 58 50 61 70 16 49 35 26 24 10 -2 11 -3 -8 -5 -15 -23 -25 46
31 22 -1 -28 16 46 73 39 30 45 15 42 53 50 55 69 42 -39 -1 1 -2 1 2 27 31 46 50 70 81 62 40 15 34 20 13 8 5 -14 -22 -28 -33 -30 -23 -40
19 21 39 -7 -2 57 67 35 32 54 30 23 36 46 37 73 61 -27 -18 3 3 2 4 12 21 31 33 45 43 64 70 71 79 51 25 15 10 5 -3 -13 -25 -33 -44 -54
94 45 57 15 9 48 67 67 48 62 37 13 43 63 47 66 37 21 18 33 24 21 5 5 22 26 43 35 40 63 114 108 107 58 61 70 43 36 15 6 4 6 11 11
106 58 63 41 31 50 87 115 75 68 63 40 50 63 62 64 50 45 47 49 52 42 25 9 10 33 30 41 46 26 70 82 94 82 84 79 62 27 30 26 19 15 20 25
71 53 80 76 58 87 136 126 62 97 97 70 64 62 78 77 72 59 47 56 51 40 30 21 26 15 40 54 86 35 65 87 107 114 123 85 97 96 55 24 29 47 56 52
84 24 62 129 121 104 140 99 61 151 136 105 83 89 92 82 84 75 59 60 71 61 47 42 50 47 56 34 33 46 88 103 107 104 89 86 92 82 92 91 94 100 97 85
129 104 282 297 189 185 158 106 104 146 162 124 106 78 64 113 120 102 98 92 89 80 64 71 85 84 68 43 64 88 110 91 79 90 90 87 87 91 90 89 88 94 86 91
179 422 240 147 129 181 165 185 155 159 163 169 121 122 92 101 141 142 120 108 100 69 68 103 113 87 51 81 84 78 113 108 154 128 98 93 91 91 85 82 79 79 79 87
348 286 230 204 227 250 317 235 180 153 143 139 165 168 122 110 139 141 118 114 121 81 67 101 104 76 58 137 175 128 149 138 119 110 130 130 115 96 83 73 74 76 83 93
306 237 251 268 206 137 191 209 218 127 130 181 181 274 248 160 153 159 139 143 129 81 118 113 105 67 85 131 192 199 188 165 148 124 145 133 113 96 81 72 76 83 84 84
361 256 171 171 203 153 152 186 261 216 143 229 246 296 302 251 187 197 160 138 125 167 125 143 147 128 120 144 217 226 173 146 138 150 145 134 113 100 84 59 62 70 89 105
247 202 186 161 154 194 72 104 104 227 235 229 313 430 289 299 246 180 171 188 182 115 138 148 104 95 115 134 159 187 128 119 140 151 137 121 97 72 63 69 80 94 97 101
257 249 223 128 212 158 63 69 133 269 242 391 389 339 253 300 235 207 195 172 129 92 103 85 86 125 153 135 129 135 126 133 149 132 118 93 75 77 83 83 80 76 74 87
249 263 261 190 180 169 69 72 115 237 277 391 340 215 220 234 219 178 168 219 146 128 99 89 136 137 129 148 144 129 132 142 132 112 100 98 102 105 90 74 69 59 59 70
287 328 243 171 132 147 170 87 122 182 286 311 300 267 205 183 205 270 210 180 158 129 110 120 107 105 125 172 167 148 147 128 113 112 108 103 106 103 103 98 77 76 84 92